ECMWFNIL_850_spd_000.txt.gz
Wind_Speed
43 46 47 47 47 46 45 43 41 40 39 37 34 30 28 25 23 22 21 21 20 20 19 19 21 23 24 25 25 24 23 23 22 23 23 24 24 25 25 26 26 27
42 45 47 48 48 47 46 44 42 41 39 37 34 31 28 26 24 22 21 21 20 20 19 21 22 24 25 25 24 23 22 23 22 22 23 24 24 25 26 26 27 28
41 44 47 48 49 49 48 46 43 41 40 37 35 32 29 26 24 23 22 21 21 20 20 22 24 25 25 24 24 23 22 22 22 22 22 23 23 25 26 27 28 29
37 41 45 47 48 49 48 47 45 43 41 39 36 33 30 28 25 24 23 22 21 21 21 23 24 24 24 24 23 23 23 22 22 22 22 23 23 25 26 27 29 29
36 39 42 45 47 48 49 48 47 45 43 41 38 35 32 29 27 26 24 23 22 21 22 24 24 24 24 24 23 23 23 22 22 22 23 23 24 25 27 27 29 30
36 38 41 44 46 48 49 49 48 46 44 42 39 36 33 31 28 26 25 23 22 22 23 24 24 24 24 24 23 23 23 22 22 22 23 24 24 25 26 27 28 29
38 39 40 43 45 47 49 49 48 46 45 42 40 37 34 31 28 26 25 23 22 23 24 24 24 24 24 24 23 22 22 22 22 22 23 24 24 25 26 27 28 29
42 42 42 43 45 47 49 49 48 47 45 43 40 37 34 31 28 26 25 23 23 24 24 24 24 24 24 22 22 21 21 21 22 23 23 24 24 25 26 26 28 29
45 45 44 44 45 46 48 49 48 47 45 43 40 37 34 30 28 26 24 24 24 25 24 24 24 24 22 21 21 21 21 21 22 23 23 24 25 25 26 26 27 29
47 47 46 46 46 47 48 49 48 47 45 43 40 37 33 30 28 26 25 25 25 25 24 24 24 23 21 20 20 21 22 21 22 22 23 24 25 25 26 27 28 29
48 49 48 48 47 47 49 49 48 47 45 43 40 36 33 30 28 26 25 26 25 24 24 24 23 21 20 20 20 21 21 22 22 23 23 25 25 26 26 27 28 30
49 50 50 49 48 48 49 49 48 47 45 42 39 36 32 29 28 26 26 26 25 24 24 23 21 20 19 20 20 21 21 22 23 23 24 25 26 27 26 27 28 30
49 50 50 50 49 49 49 49 48 47 45 42 38 35 32 29 27 26 26 26 24 24 23 21 20 19 19 20 20 21 21 22 23 24 25 26 27 27 27 27 29 30
48 49 49 49 49 49 49 48 48 46 44 41 37 34 31 29 27 27 26 25 24 23 22 20 19 19 19 19 20 21 22 23 24 25 26 27 27 28 28 28 29 30
47 48 48 48 49 49 49 48 48 46 43 40 36 33 30 28 27 27 26 24 23 22 20 18 18 18 18 19 20 21 22 24 25 26 27 28 28 28 29 29 30 31
46 47 48 48 49 49 49 49 48 45 42 39 35 32 30 29 28 27 25 23 22 20 18 18 18 18 18 19 21 22 24 26 27 28 28 28 29 29 30 30 30 31
45 47 48 48 48 48 49 49 47 44 41 38 35 32 30 29 27 25 24 22 20 19 18 18 18 18 18 19 21 23 25 27 28 28 28 27 29 30 30 30 29 29
46 48 49 49 49 49 50 49 47 44 41 38 35 32 30 28 26 24 22 21 19 18 17 18 18 18 18 20 22 23 25 27 28 28 27 28 28 29 29 29 29 28
47 48 49 49 49 50 50 48 46 43 40 37 35 32 30 27 25 23 21 19 18 17 17 17 17 18 19 20 22 24 24 26 27 27 27 28 29 29 29 28 28 29
46 47 48 49 49 50 50 47 45 42 39 37 34 31 29 26 23 21 19 18 17 17 17 17 17 18 20 21 22 24 25 24 25 27 27 28 29 28 27 27 27 29
45 46 48 49 49 49 48 46 44 41 38 36 33 30 27 24 21 19 18 18 18 17 17 16 17 19 20 21 23 24 24 24 25 26 27 29 29 27 26 26 27 29
45 47 48 48 48 48 48 46 44 41 38 35 31 28 25 22 20 19 18 18 18 18 17 16 17 18 19 21 23 23 23 24 25 26 27 28 28 26 25 26 28 29
46 48 48 48 49 49 49 47 45 42 38 34 31 27 24 21 20 19 19 19 19 18 18 17 17 17 18 20 22 22 23 24 25 26 27 26 25 25 25 27 29 30
46 48 48 48 50 50 50 49 46 42 38 34 30 26 24 22 21 20 19 19 19 19 19 18 16 16 17 19 20 21 21 23 24 25 24 24 24 25 26 28 30 30
46 47 47 48 50 51 51 48 45 41 37 32 29 26 24 23 21 20 20 19 19 19 19 17 15 15 17 18 18 19 20 21 22 22 21 22 24 26 27 29 31 32
45 47 47 49 51 52 50 47 44 40 36 32 30 27 24 22 21 21 20 19 19 19 19 17 15 14 16 17 17 17 18 18 18 18 20 22 24 26 28 30 32 32

ECMWFNIL_850_spd_003.txt.gz
Wind_Speed
41 41 40 40 40 40 41 41 42 42 42 42 41 41 40 38 37 36 34 31 28 25 23 21 19 19 20 21 21 21 22 22 22 23 23 22 20 18 16 14 14 15
41 41 42 42 42 41 41 42 42 42 42 41 40 39 38 37 36 36 34 31 28 25 23 21 20 20 20 21 21 22 22 23 23 23 23 21 19 18 16 15 15 16
41 41 41 41 41 42 42 41 41 42 42 41 40 39 38 37 37 36 35 32 29 26 24 22 21 20 21 21 22 22 22 23 23 23 22 20 19 17 16 15 16 17
41 40 40 40 41 42 43 42 41 41 42 42 41 40 39 38 38 37 36 33 30 27 24 22 21 21 21 22 22 22 23 23 23 22 22 20 18 17 16 16 17 18
41 41 41 41 41 43 44 44 42 41 42 43 42 42 41 40 39 38 37 34 31 28 25 23 22 22 22 22 22 23 23 23 23 22 21 19 18 18 17 17 18 19
43 44 44 43 43 43 44 45 44 42 42 43 43 43 43 42 41 39 37 35 32 29 26 24 23 22 22 23 23 23 23 23 22 21 20 19 18 18 18 18 19 20
46 46 46 46 46 45 45 46 47 45 43 43 44 44 44 43 42 40 38 36 32 29 26 24 24 23 23 24 24 24 24 23 21 21 20 20 19 19 18 19 20 21
48 49 49 49 49 48 47 48 48 48 45 44 44 45 45 44 43 41 39 37 33 30 27 26 24 24 24 25 24 24 24 22 21 21 20 20 20 19 19 19 20 22
50 50 50 51 50 50 50 49 49 49 48 46 45 45 45 44 43 42 40 38 34 31 28 27 25 25 25 25 25 25 24 22 21 21 20 20 20 20 19 19 21 24
51 51 52 52 52 51 51 50 50 50 50 48 46 45 45 45 44 42 40 38 35 32 29 27 26 26 26 26 26 25 23 22 21 21 21 21 21 21 20 21 23 25
52 52 54 54 53 52 51 50 51 51 50 49 47 46 45 45 45 43 41 39 35 32 30 28 27 27 27 27 26 25 23 22 21 21 21 22 21 21 21 23 24 26
51 52 53 54 53 52 51 51 51 51 51 50 49 47 46 46 46 44 42 39 36 33 31 29 29 28 28 27 26 25 23 22 21 21 21 21 21 22 22 24 25 27
49 50 51 52 52 52 51 51 51 51 51 50 49 48 47 46 46 45 42 39 36 34 32 30 30 29 28 27 25 24 22 21 21 20 21 21 21 22 23 24 27 28
47 48 49 51 51 51 51 51 51 51 51 50 50 48 47 47 46 45 42 39 37 34 32 31 30 29 28 26 24 22 21 20 20 19 20 20 21 22 23 25 28 29
46 47 48 49 50 51 51 51 50 50 50 50 49 48 47 47 46 44 42 40 37 35 33 31 30 28 26 24 22 21 20 19 19 19 19 20 21 23 24 26 28 30
45 46 47 48 49 50 50 50 50 50 50 49 49 47 47 47 46 45 42 40 37 35 32 31 30 28 25 23 21 20 19 18 18 18 19 20 21 23 24 26 28 30
44 44 46 47 48 48 48 49 49 49 49 49 48 47 48 48 47 46 44 41 38 35 33 31 29 27 24 22 20 19 17 16 17 18 19 20 22 24 25 27 28 30
43 44 45 46 47 47 48 48 48 49 49 48 48 48 49 49 48 47 44 41 38 35 33 31 28 26 23 21 19 17 16 17 17 18 20 23 24 25 26 27 29 29
42 43 44 45 46 47 47 48 48 48 49 48 48 48 49 50 49 47 44 41 38 35 33 30 27 25 21 18 18 17 16 17 19 21 23 24 25 25 26 27 29 29
42 42 43 45 45 46 47 47 48 48 47 47 47 48 50 50 49 46 44 40 37 34 32 29 25 23 20 18 18 17 16 17 19 21 23 24 24 25 26 27 27 27
42 42 44 45 45 46 47 47 47 47 47 47 47 48 50 50 48 46 43 39 36 33 30 26 24 21 20 19 18 17 16 17 19 21 23 24 24 25 25 27 26 26
42 43 44 44 45 46 46 47 47 47 47 46 46 48 49 50 48 46 42 39 36 32 28 25 23 21 20 19 18 17 17 18 19 21 23 23 24 24 25 25 25 24
42 43 44 44 45 45 46 47 47 47 47 47 47 49 51 51 49 45 42 39 35 32 28 26 24 21 19 19 18 17 17 18 20 21 22 23 23 24 24 24 23 23
42 43 43 43 44 44 45 46 46 46 47 47 48 50 51 52 49 46 43 39 34 31 28 25 23 21 20 19 18 17 18 19 20 21 22 22 23 23 23 23 23 21
41 42 42 43 44 44 45 45 45 45 46 47 48 50 51 51 49 46 42 38 34 31 28 25 22 21 20 20 18 18 19 20 20 21 21 22 22 23 23 22 21 20
40 41 42 43 43 43 44 45 45 45 45 47 49 51 51 50 48 44 41 37 34 31 27 24 23 21 20 20 19 20 20 20 20 20 20 21 21 22 22 21 20 19

ECMWFNIL_850_spd_006.txt.gz
Wind_Speed
41 42 41 41 41 41 42 43 43 43 43 43 42 43 43 42 42 42 43 43 42 41 39 36 33 31 28 25 22 20 18 17 17 17 19 20 22 21 20 19 18 18
40 40 41 41 41 41 42 42 42 42 43 42 42 43 42 42 42 42 42 43 43 42 40 38 35 32 29 26 23 21 19 18 17 18 19 21 22 22 21 20 19 19
40 41 41 41 41 41 42 42 42 43 43 43 43 43 43 42 42 42 43 43 43 43 41 39 37 34 31 28 25 22 20 19 18 19 20 22 23 23 22 21 20 19
41 41 41 41 41 42 43 43 43 43 44 44 44 45 44 44 43 42 43 44 44 44 42 40 38 35 32 29 26 24 21 20 19 19 21 23 24 24 22 22 21 20
42 42 42 42 43 44 44 45 45 44 45 45 45 45 45 44 43 43 44 45 45 44 43 41 39 36 34 31 28 25 23 21 20 20 22 24 25 24 23 22 21 20
43 43 43 44 45 46 46 46 46 46 46 46 46 46 45 45 44 43 44 45 45 45 44 42 40 38 35 32 29 27 24 22 21 21 23 24 25 25 23 22 21 20
45 45 46 47 47 47 48 47 48 48 48 47 47 47 46 46 44 43 44 45 45 45 44 43 41 39 36 34 31 28 26 23 22 23 24 25 25 25 23 21 21 20
48 48 49 49 49 49 49 49 49 50 49 49 48 48 47 47 45 44 44 44 45 45 44 43 42 39 37 35 32 30 27 25 24 24 24 25 25 24 22 21 21 21
51 51 52 52 51 51 51 51 51 51 51 51 50 49 49 48 46 45 44 44 45 45 45 44 42 40 38 35 32 30 27 25 25 25 25 26 25 23 22 21 21 21
54 54 54 54 53 53 53 52 52 52 52 52 51 50 50 49 47 46 45 44 45 45 46 45 44 41 39 36 33 30 28 26 26 26 26 26 25 23 22 22 21 20
56 56 56 56 55 55 54 54 53 53 53 53 52 52 51 49 48 47 46 45 45 46 46 46 45 42 40 37 34 31 29 28 27 27 27 26 24 23 22 22 21 20
57 57 57 57 57 57 55 54 54 54 53 53 53 53 52 50 49 48 47 46 45 46 46 46 45 43 41 38 35 33 31 29 28 28 28 26 24 23 22 21 20 20
56 55 54 56 58 58 56 55 54 54 54 54 53 53 52 52 50 49 48 46 45 45 46 47 46 44 42 39 36 34 32 30 29 29 28 25 23 23 22 20 20 19
52 51 52 54 56 56 56 55 55 54 53 53 53 53 53 52 51 49 48 47 45 45 46 47 47 46 43 40 38 35 33 31 30 29 27 25 23 22 21 20 19 18
49 50 51 52 53 55 56 55 55 54 53 52 52 52 52 52 50 49 48 47 46 46 47 49 48 46 44 41 39 36 34 32 30 28 26 24 23 22 20 19 18 16
50 51 50 50 51 52 54 55 54 53 52 51 51 51 51 51 50 49 48 47 47 47 49 50 49 47 44 42 39 36 34 32 30 28 26 25 23 21 20 18 17 16
51 51 50 49 49 50 52 54 53 52 50 50 49 50 50 50 50 49 49 48 48 49 49 50 50 48 45 43 40 37 35 33 31 29 27 25 23 21 19 18 17 17
52 51 50 49 49 50 51 52 51 50 49 48 49 49 50 50 50 50 49 49 49 49 50 50 50 48 46 44 41 39 36 34 31 29 27 25 23 21 19 18 17 17
52 52 51 49 49 49 49 50 49 48 47 48 48 48 49 50 50 49 49 49 49 49 50 50 50 48 46 44 42 39 36 33 31 29 27 25 23 21 19 18 18 18
52 52 50 49 48 48 48 48 47 47 46 46 47 47 48 49 49 49 49 48 49 49 50 50 49 47 45 43 41 38 35 32 30 28 27 25 23 21 20 19 18 18
51 50 50 49 47 47 47 46 46 45 45 45 46 46 47 47 47 48 47 47 48 48 49 50 49 46 44 42 40 37 35 32 30 29 27 25 23 22 20 19 18 19
48 49 48 48 47 46 46 45 45 45 44 45 45 45 45 46 46 46 46 47 47 48 50 50 48 46 44 42 39 36 35 33 31 28 26 24 23 22 21 19 18 19
46 47 47 46 46 46 45 45 44 44 44 44 44 44 45 45 46 46 46 46 47 48 50 50 48 47 44 41 38 36 36 34 30 27 26 24 23 22 21 19 19 20
43 45 45 46 46 45 44 43 42 42 42 42 43 43 43 43 44 44 45 45 46 48 49 49 49 46 44 41 38 37 36 33 29 27 25 24 23 22 21 20 20 21
40 42 44 45 44 42 41 40 40 40 41 41 41 41 41 41 43 44 44 45 46 48 49 49 48 46 44 41 38 37 36 32 28 27 25 24 23 22 21 20 21 21
36 40 42 42 41 40 39 39 39 39 39 39 40 40 40 41 42 43 44 45 46 48 50 50 49 46 43 41 38 37 35 31 28 27 25 24 24 22 21 22 22 20

ECMWFNIL_850_spd_009.txt.gz
Wind_Speed
38 40 41 42 42 42 41 41 40 39 39 39 39 40 41 42 42 43 44 45 45 45 45 44 44 43 42 41 39 36 34 31 29 27 25 24 22 21 20 21 21 22
38 39 41 42 42 41 41 41 40 39 39 38 38 40 41 41 42 42 42 44 45 45 46 45 45 44 43 42 41 38 35 33 31 29 27 25 23 22 21 22 22 23
38 39 41 41 41 41 41 41 41 41 39 39 39 40 41 41 42 42 41 42 44 45 46 46 46 45 44 43 42 39 37 34 32 30 28 26 24 23 22 22 23 23
39 40 40 40 40 40 41 42 42 42 41 41 41 41 42 42 42 42 41 42 44 45 47 47 47 46 45 44 42 40 38 35 33 30 28 27 26 24 24 23 23 23
40 41 41 41 41 42 43 43 43 42 42 42 42 43 43 43 43 43 42 42 43 45 46 47 48 47 47 45 44 41 39 36 34 32 31 29 27 26 25 25 24 24
42 44 44 44 44 45 45 45 44 44 44 44 44 45 45 44 44 44 43 42 42 44 45 47 48 48 48 47 45 43 40 38 36 35 33 31 29 27 26 26 25 25
43 45 46 47 47 47 47 46 46 46 46 46 46 46 46 45 45 44 44 43 42 42 43 45 47 48 49 48 46 44 42 40 38 37 35 32 30 28 27 27 26 25
45 47 48 50 50 50 50 48 48 48 48 48 48 48 47 46 46 46 45 44 43 42 42 44 46 48 49 49 48 46 44 42 40 39 36 34 32 30 28 27 26 26
46 49 51 52 53 53 52 50 49 49 50 50 50 49 48 47 47 47 46 45 44 42 42 43 45 47 49 50 49 48 46 44 42 40 38 35 33 30 28 28 27 27
49 51 53 54 55 55 54 52 51 51 52 52 51 51 50 49 49 48 48 47 45 43 43 43 44 46 49 50 50 48 47 45 43 41 39 36 33 31 29 28 28 27
50 52 55 56 56 56 56 55 54 53 53 53 53 53 52 51 50 50 49 48 47 46 44 43 43 45 48 50 50 49 47 45 44 42 40 37 34 32 31 30 29 27
53 54 56 57 57 58 58 58 57 56 56 55 55 54 54 53 53 52 51 50 49 48 45 43 43 44 47 49 49 49 47 46 45 43 40 38 36 34 32 30 29 27
56 55 55 56 58 59 59 59 59 59 58 57 56 56 56 55 54 54 52 51 50 48 46 44 43 44 45 47 48 48 48 48 47 44 42 39 38 35 33 31 29 28
58 55 54 56 58 59 59 60 60 60 59 58 57 57 57 56 55 54 53 52 51 49 47 45 44 44 45 46 48 49 49 49 48 46 44 41 39 36 33 32 30 28
57 54 53 55 58 59 59 59 59 60 59 58 58 57 57 56 55 54 53 52 51 48 47 46 45 45 45 46 48 49 51 51 49 46 44 42 39 36 34 33 30 28
54 55 54 55 56 57 58 58 58 58 58 58 57 56 56 55 54 54 53 52 50 49 48 47 47 47 46 46 47 49 50 51 49 47 44 42 39 37 35 33 31 29
55 56 55 55 54 55 56 56 56 57 57 57 56 56 55 54 54 54 53 52 50 49 48 48 48 48 47 46 47 49 50 51 49 47 45 43 40 38 36 33 31 30
55 56 55 54 53 53 54 55 56 56 57 56 56 55 54 53 53 53 52 51 49 49 48 48 48 48 47 47 47 49 50 50 49 47 46 44 41 39 36 33 32 30
51 54 54 53 52 52 53 55 56 56 56 56 55 54 52 52 52 51 51 50 49 49 48 47 47 48 47 46 47 48 49 50 50 48 46 44 41 38 36 34 33 31
46 49 51 52 52 52 53 54 55 55 55 54 53 52 51 51 50 50 50 50 49 48 47 47 47 47 46 46 46 48 50 50 50 48 45 42 40 38 36 34 33 31
43 44 47 49 50 51 52 53 54 53 53 52 52 52 51 49 49 49 49 49 48 47 46 47 48 47 45 45 47 49 51 51 50 48 45 42 40 38 36 34 32 31
39 41 43 45 47 49 50 51 51 51 50 50 50 50 49 48 48 48 48 48 47 46 46 47 47 46 45 46 48 50 52 52 51 48 46 43 40 38 36 34 33 32
35 36 39 41 43 46 48 49 49 48 49 49 49 49 48 48 48 47 47 46 46 46 46 47 47 45 45 47 49 51 53 54 51 48 46 43 40 37 36 35 34 33
31 32 34 36 39 42 44 46 47 47 48 47 47 48 47 46 46 45 45 45 45 45 45 45 46 45 45 47 49 52 54 54 50 48 45 42 39 38 36 36 35 32
28 28 29 32 35 38 40 43 44 45 46 46 46 46 45 44 44 43 44 44 44 44 44 44 45 45 45 47 49 52 55 53 49 48 46 43 41 39 37 36 34 32
30 28 27 28 30 33 36 39 41 43 44 45 44 44 43 43 43 42 42 42 42 43 43 44 45 45 45 48 49 51 54 52 49 48 47 44 41 39 38 37 34 33

ECMWFNIL_850_spd_012.txt.gz
Wind_Speed
32 35 37 38 38 39 39 39 39 39 39 39 39 38 37 37 38 40 42 43 44 45 45 45 45 45 44 44 45 45 44 42 41 39 37 35 33 31 29 28 26 25
30 33 36 38 40 40 41 40 39 39 38 37 37 37 37 38 38 39 40 42 43 44 44 45 45 45 45 45 45 46 45 44 42 41 38 36 34 32 31 29 27 26
29 31 34 37 40 42 43 42 41 40 38 37 37 38 39 39 38 38 39 40 42 42 43 44 44 45 45 45 46 46 46 45 44 42 40 38 36 34 32 30 29 27
29 30 32 33 36 40 43 44 43 42 40 40 40 40 40 40 39 39 39 39 40 41 41 42 43 44 45 45 46 47 46 46 45 43 41 39 38 36 34 32 31 29
31 32 32 33 34 37 41 44 45 45 43 42 41 41 41 41 41 40 40 40 40 40 40 42 43 44 45 45 46 47 47 47 46 44 42 41 40 38 36 34 33 31
33 34 35 36 37 37 40 42 45 46 46 45 43 42 42 42 42 41 41 41 40 40 40 41 42 43 44 45 47 48 48 48 47 45 44 43 41 39 37 36 34 32
34 34 36 38 39 40 41 42 44 46 47 47 46 45 45 44 44 43 42 42 41 40 40 40 41 42 43 45 47 48 48 48 48 47 46 45 43 41 39 38 36 33
38 38 38 39 40 42 43 44 45 46 47 48 49 49 48 47 45 44 44 43 43 42 41 41 41 41 42 44 46 47 48 49 49 48 48 47 45 44 42 40 37 35
42 42 41 41 42 43 44 44 46 47 48 49 51 51 51 49 48 46 45 45 45 45 43 42 41 41 41 43 44 46 48 49 50 49 49 48 47 45 43 41 40 37
40 41 42 44 44 44 45 45 46 48 49 50 52 53 52 51 50 49 48 48 47 47 46 44 43 42 42 43 44 45 47 48 49 50 50 49 48 47 45 44 42 40
37 40 42 44 44 45 46 47 49 50 51 52 54 55 54 53 52 52 51 50 49 48 48 47 45 43 43 44 44 45 46 47 48 50 50 50 49 48 47 46 44 42
35 39 42 44 44 45 46 47 50 52 53 55 55 55 56 55 55 54 53 52 51 50 49 49 47 45 44 44 44 44 46 47 48 49 50 50 50 50 49 48 46 44
34 36 39 41 43 45 46 47 50 51 53 55 56 56 56 57 57 57 56 54 53 52 51 50 48 47 46 44 44 44 45 46 47 48 50 51 51 51 50 49 48 46
33 33 35 38 40 42 45 48 49 50 52 53 55 57 57 57 58 59 58 57 55 54 53 51 50 49 48 47 46 45 46 46 47 48 50 52 52 52 52 51 50 47
31 31 33 36 38 40 43 46 47 48 50 52 53 56 57 56 57 58 59 59 58 56 54 53 52 52 51 50 48 48 48 48 48 49 50 52 53 53 53 53 51 49
33 31 31 33 37 40 42 43 45 46 48 51 52 53 55 56 56 57 59 59 59 57 56 55 54 54 54 52 50 49 49 49 49 50 51 52 54 54 55 54 53 50
38 34 31 32 35 39 41 41 42 44 46 48 50 52 53 54 55 56 58 59 59 58 57 56 56 56 55 53 51 50 48 48 49 50 51 53 54 56 56 55 54 51
42 40 35 33 33 35 38 39 40 42 45 46 48 50 51 52 54 55 56 57 57 57 57 57 56 55 54 53 52 50 48 48 49 50 51 53 54 56 56 55 54 52
43 43 41 37 33 32 34 37 39 41 43 44 46 47 49 51 53 53 54 55 56 57 57 57 56 54 53 52 51 49 49 49 49 50 51 52 53 55 55 55 55 53
44 44 44 41 37 33 32 34 37 39 41 41 43 45 47 50 51 52 53 54 55 56 56 55 55 54 53 52 50 49 49 48 49 50 50 51 52 53 54 55 54 53
44 44 45 44 41 37 33 33 34 36 38 39 40 43 46 48 49 51 52 52 52 53 53 54 54 53 53 51 50 49 48 48 49 50 51 52 52 52 52 53 53 52
44 45 46 45 44 41 37 34 33 34 35 37 39 41 43 46 47 49 49 50 49 50 52 53 53 53 53 51 49 48 47 48 50 51 52 53 52 51 51 51 53 52
44 45 45 45 45 43 40 36 33 32 33 34 37 39 41 44 45 46 47 48 48 49 51 52 53 53 52 51 49 47 48 50 51 52 53 53 52 51 50 51 53 51
44 45 45 45 45 44 42 38 34 32 32 32 35 37 39 42 43 44 46 47 48 49 50 50 51 52 51 50 48 47 48 51 51 51 52 52 51 50 50 51 51 49
43 44 45 45 44 44 42 40 36 33 31 32 33 35 37 39 41 43 44 45 46 47 48 49 50 51 50 49 47 46 49 51 51 50 50 51 52 51 50 50 49 47
44 44 44 45 45 43 42 41 38 34 31 31 32 34 35 37 39 41 43 44 45 46 47 48 49 49 48 47 46 46 49 51 51 50 51 51 52 51 50 50 48 46

ECMWFNIL_850_spd_015.txt.gz
Wind_Speed
29 31 33 35 36 37 37 37 37 37 37 37 37 36 36 38 41 43 45 45 47 48 48 49 50 50 50 49 48 47 46 45 44 44 44 43 42 41 40 38 36 34
30 31 33 35 37 38 39 39 39 38 37 36 35 35 35 37 39 42 43 44 45 45 46 48 49 50 50 50 49 48 47 46 46 46 46 45 44 43 42 40 38 36
27 29 32 34 36 37 38 39 40 40 39 38 36 35 35 36 38 41 42 43 44 44 45 47 48 49 50 50 49 48 47 47 47 47 47 47 46 45 43 42 41 39
22 25 28 32 34 36 38 39 39 39 39 39 38 37 36 36 38 40 41 42 43 44 45 45 46 47 48 49 48 48 48 48 48 48 48 48 47 47 45 44 43 41
20 22 25 28 31 34 37 38 39 39 39 39 38 38 39 38 39 39 40 41 42 43 43 44 44 45 47 48 49 49 49 49 49 49 49 49 49 48 47 46 45 43
22 22 23 25 28 31 35 36 37 38 38 38 38 38 39 40 40 40 40 41 41 42 42 42 43 44 46 48 49 50 50 50 50 51 51 51 50 49 48 47 47 46
25 22 22 23 26 29 33 35 36 37 37 38 39 39 39 40 41 42 41 41 41 42 42 43 43 43 44 47 49 50 51 51 52 52 52 52 51 51 50 49 49 48
29 26 22 21 23 26 30 33 35 36 37 38 40 40 41 42 42 43 43 43 42 43 43 43 44 43 44 45 48 50 52 53 53 53 53 53 53 53 52 52 51 51
31 29 26 23 22 23 25 28 31 34 35 37 39 40 42 43 44 44 45 45 45 45 45 45 45 45 45 45 47 49 52 53 54 54 54 54 54 54 54 54 54 53
31 31 30 29 26 24 23 24 26 29 32 35 37 38 40 42 44 45 46 47 48 48 48 47 47 46 46 47 48 49 51 52 54 54 55 55 55 54 55 55 56 55
33 33 33 33 32 29 27 25 24 25 28 32 35 37 38 40 42 45 47 49 50 50 51 50 50 48 48 48 49 49 50 52 54 55 55 55 55 55 55 56 57 56
35 35 35 35 35 34 33 30 27 26 26 28 32 36 38 40 41 43 46 48 50 51 52 53 52 51 51 50 50 50 51 53 54 55 55 55 55 55 56 57 57 57
36 36 36 35 35 36 36 34 32 30 29 29 29 33 37 40 42 43 44 46 48 51 52 53 53 53 53 53 52 52 52 53 54 55 55 55 56 57 57 58 58 58
35 36 36 35 35 35 35 35 35 34 33 32 30 31 34 38 41 43 44 45 47 50 52 52 53 54 55 55 55 54 54 54 55 56 56 56 57 58 58 58 58 59
34 34 34 34 34 35 35 35 35 35 35 34 33 32 32 34 37 41 43 45 47 49 51 51 53 55 57 57 57 56 56 55 55 57 57 58 58 59 59 59 60 60
37 35 34 33 32 33 34 34 34 35 35 35 34 33 33 32 34 38 42 44 46 48 50 51 53 55 57 57 58 57 56 56 56 57 58 59 59 60 60 60 61 61
39 38 37 35 33 32 32 32 33 34 35 35 34 33 32 31 31 34 39 43 45 46 49 51 53 54 55 56 57 57 57 56 56 57 59 60 60 61 61 61 61 61
40 40 39 38 37 36 34 33 33 33 34 34 35 34 31 30 30 32 35 39 43 46 48 51 52 53 54 55 56 57 57 57 57 57 58 59 60 61 61 61 61 62
41 41 41 40 40 39 38 36 35 34 34 34 34 34 32 31 30 30 32 35 40 45 47 49 50 51 52 54 55 56 57 57 58 58 57 57 58 60 60 61 61 62
42 42 42 42 42 41 40 39 38 37 36 34 34 33 33 32 30 30 30 32 36 42 46 48 50 50 51 53 54 56 56 57 57 58 58 56 56 57 59 60 61 60
42 43 43 43 43 43 43 42 40 39 38 37 36 35 34 33 31 30 30 30 32 36 42 47 49 49 50 51 53 55 55 56 56 57 58 57 57 57 58 59 59 59
41 43 44 44 44 44 45 45 44 42 40 39 39 37 35 34 33 31 29 29 29 32 38 44 46 47 49 50 52 54 54 55 56 57 57 58 58 58 59 58 58 58
41 43 44 45 45 45 46 46 47 46 43 41 41 40 38 36 35 32 30 28 28 30 34 39 43 45 47 49 50 52 53 54 55 56 57 58 59 59 59 59 58 57
42 43 44 45 46 46 47 47 47 47 46 44 43 42 41 39 37 35 32 29 28 29 30 34 38 41 44 48 49 51 52 53 53 54 56 57 59 59 59 59 58 56
44 44 45 46 47 47 48 48 48 48 48 47 45 44 43 41 39 38 36 32 29 29 29 31 34 37 41 45 48 49 50 51 52 54 56 57 58 59 59 58 57 56
44 45 46 47 48 49 49 49 49 50 50 49 48 47 45 44 41 39 38 35 31 29 28 29 31 33 37 42 46 48 48 48 51 54 56 57 57 58 58 57 56 54

ECMWFNIL_850_spd_021.txt.gz
Wind_Speed
23 22 21 20 19 18 18 18 19 20 20 19 19 19 19 21 23 24 22 19 20 21 21 22 24 26 28 31 35 39 44 47 50 50 50 50 50 51 51 53 52 51
23 22 22 21 20 19 18 18 19 20 21 21 21 21 21 21 22 24 24 22 20 20 20 21 23 25 27 28 30 35 39 43 48 49 49 50 51 51 51 52 53 53
21 21 21 21 20 20 20 19 19 19 20 21 22 22 22 22 23 24 25 25 23 21 20 20 22 23 25 27 28 32 34 37 43 46 48 50 51 51 50 50 51 53
20 20 20 20 21 22 21 21 21 21 21 22 22 23 22 21 22 22 24 25 25 23 21 21 21 22 24 26 27 30 31 34 38 42 46 49 51 51 50 50 51 52
21 20 21 21 21 22 22 22 22 22 23 23 24 24 24 23 22 21 21 23 24 24 24 22 22 22 23 24 27 29 29 32 35 37 42 47 49 50 50 50 51 52
23 23 23 23 22 22 22 22 22 23 23 23 23 24 25 25 24 23 22 22 22 23 24 24 24 24 23 24 26 28 29 31 32 34 38 43 45 48 50 51 52 53
25 25 25 24 24 23 23 22 22 22 22 22 23 23 24 24 25 24 24 23 23 23 23 24 24 25 25 26 27 28 28 30 31 33 36 39 41 44 48 51 53 54
25 26 26 26 26 26 25 25 24 23 23 23 22 22 22 22 23 24 24 24 24 24 24 24 25 25 25 27 28 29 29 29 30 32 35 37 38 40 43 47 51 53
27 27 27 28 28 27 27 26 26 25 25 24 23 23 23 22 22 22 22 23 23 23 23 24 25 26 26 27 28 29 30 30 30 32 34 36 38 39 40 42 45 49
31 30 30 30 29 29 28 27 27 27 27 27 26 25 24 24 23 22 21 21 21 21 21 22 23 25 26 27 28 29 29 30 30 32 34 35 37 39 40 41 43 45
32 33 32 31 31 31 30 30 29 28 28 28 28 28 27 26 25 25 24 22 21 20 20 19 20 22 25 27 29 30 30 29 30 31 34 35 36 38 39 41 43 45
30 31 32 32 32 31 31 31 31 30 29 28 28 28 29 28 28 27 26 25 24 22 21 19 18 19 21 24 27 29 30 30 31 32 33 35 36 37 38 40 42 44
26 27 29 31 32 32 32 32 32 32 32 31 30 29 29 29 29 28 28 27 27 26 24 23 21 19 19 20 23 26 28 30 31 33 34 35 36 37 38 39 41 43
26 26 27 28 30 32 33 34 34 34 34 34 33 32 31 30 29 29 29 29 28 28 28 27 26 24 21 20 20 23 25 28 30 32 34 35 36 37 38 39 41 42
28 29 30 29 30 30 31 33 35 36 37 37 36 35 34 33 32 31 31 30 30 30 30 29 29 28 26 24 22 22 23 25 28 31 33 35 36 37 37 39 41 42
30 31 32 33 34 34 33 34 35 36 38 39 39 39 37 36 36 35 34 33 32 31 31 31 30 30 29 28 26 25 24 24 25 28 31 35 37 38 38 39 41 42
30 32 33 35 35 36 37 37 37 38 39 40 41 42 42 41 39 38 36 35 35 34 33 33 32 31 30 29 29 28 27 27 26 27 28 32 36 39 40 40 41 42
33 34 35 36 36 37 38 38 40 41 42 43 43 44 44 45 44 42 40 38 37 37 36 36 34 33 32 30 30 30 30 29 30 29 29 30 34 37 40 42 43 43
37 37 38 39 39 39 39 39 40 41 42 44 45 45 46 47 47 47 46 43 41 40 39 39 37 35 33 32 31 31 31 31 32 32 32 31 32 35 38 41 43 45
42 42 43 43 43 43 43 43 43 42 42 43 44 45 46 47 48 49 49 49 48 46 44 43 41 39 36 34 33 32 32 32 33 35 35 34 34 34 36 40 42 44
45 45 45 47 47 46 45 46 46 45 45 45 45 46 46 47 48 49 50 51 52 51 51 49 46 43 40 38 36 35 34 34 35 36 37 38 37 36 36 38 41 44
46 45 45 46 48 49 49 49 48 48 48 47 47 48 48 48 48 49 49 50 52 53 55 55 53 49 46 43 40 38 37 36 37 38 38 39 40 39 38 38 39 43
44 44 43 44 48 52 54 54 54 53 53 52 51 52 53 52 51 50 51 51 51 53 55 57 57 55 52 49 45 43 41 40 39 40 40 41 41 41 41 40 40 42
42 42 43 44 48 52 56 57 58 58 58 57 57 57 58 58 56 54 53 53 52 53 53 56 58 58 57 55 51 48 45 44 43 42 42 43 43 43 42 42 43 43
45 45 46 47 49 52 54 56 57 59 61 61 59 59 59 62 63 61 58 57 56 55 54 54 56 58 59 59 57 53 49 48 46 45 45 45 44 44 44 44 45 45
49 49 48 49 51 52 54 55 56 57 58 57 55 56 57 60 64 66 65 64 62 60 59 57 57 58 59 60 60 58 54 51 48 47 47 47 46 45 45 45 45 45

ECMWFNIL_850_spd_024.txt.gz
Wind_Speed
18 18 18 17 17 17 16 16 16 17 17 18 17 17 16 14 12 12 14 17 18 17 15 14 15 15 16 15 15 15 17 19 23 27 31 36 39 41 42 44 46 48
15 15 15 16 16 16 16 16 16 16 16 17 17 17 17 17 16 15 14 14 16 17 16 14 14 14 15 16 17 17 17 18 20 22 26 32 36 38 41 42 44 46
15 15 14 14 15 15 16 16 16 16 16 16 16 17 17 17 17 17 16 15 15 16 16 15 14 14 14 15 16 18 19 19 19 19 22 27 31 35 38 40 42 45
18 17 16 15 14 14 14 14 14 15 16 16 17 17 17 18 18 17 17 17 17 16 15 15 15 14 14 14 15 17 18 20 20 19 21 24 26 30 34 37 41 43
20 19 19 17 16 15 14 14 14 14 15 16 17 18 18 19 19 19 19 18 18 18 17 16 15 14 14 14 15 16 18 19 19 20 22 23 24 26 29 33 37 41
20 20 20 20 19 18 18 17 16 16 15 16 16 17 18 18 19 20 20 20 20 20 20 19 17 16 14 14 14 15 16 18 19 19 21 23 24 25 26 29 33 37
21 21 21 21 21 21 21 20 19 19 18 18 18 18 19 19 19 20 20 21 21 21 22 22 21 19 17 16 16 16 16 17 18 19 21 23 23 24 25 26 29 33
23 23 23 23 23 23 23 22 22 22 21 20 20 20 21 21 22 21 21 21 21 20 21 21 22 22 21 20 19 18 18 17 17 18 20 22 24 25 25 26 28 31
23 24 25 26 26 26 26 26 26 25 24 24 23 23 22 22 22 23 24 24 23 22 22 21 21 22 22 22 22 21 20 19 19 19 21 22 23 25 26 26 28 30
23 24 25 26 27 28 28 29 29 29 29 29 28 27 26 25 24 24 24 25 25 26 25 25 23 22 22 22 23 23 23 22 21 21 22 23 23 25 26 27 29 31
20 22 23 25 26 27 28 28 29 30 31 32 32 33 32 31 30 29 27 26 26 26 27 28 28 26 25 24 23 23 24 24 24 24 24 25 25 26 27 28 30 31
22 23 24 25 26 26 27 27 28 29 30 30 32 34 35 35 36 36 35 33 31 29 28 28 29 29 29 28 26 25 25 26 26 27 27 27 27 27 27 28 30 32
25 26 28 29 30 31 30 30 30 31 31 31 31 33 34 35 36 37 38 38 38 36 33 31 30 30 31 31 30 28 28 28 28 29 29 30 30 30 30 29 30 31
26 27 29 31 33 35 36 36 36 36 36 35 35 36 36 36 37 37 38 39 40 40 39 38 35 32 31 31 32 31 30 30 30 30 31 32 32 32 32 32 32 32
28 29 30 32 33 35 37 38 39 40 41 41 41 40 40 40 40 40 40 41 41 41 42 42 42 40 36 33 32 32 32 32 32 32 32 32 34 34 34 34 35 35
33 33 34 35 35 36 38 39 40 41 43 44 44 44 44 45 45 44 44 44 44 44 44 44 45 45 43 40 36 34 33 34 34 33 33 33 34 35 35 35 35 36
37 38 38 39 39 39 40 40 41 42 43 44 46 46 47 48 48 48 48 47 48 48 48 48 48 47 47 46 44 41 38 36 36 36 35 35 35 36 36 36 36 36
38 39 40 41 41 42 43 44 45 46 47 48 49 50 50 51 52 52 52 51 51 51 51 52 52 51 50 50 49 48 45 42 41 40 39 39 38 38 38 37 36 36
38 39 41 43 44 45 46 47 48 50 51 52 53 54 55 55 56 56 56 55 54 54 54 54 55 55 55 54 53 52 51 49 48 46 45 44 42 41 41 40 38 37
38 39 42 44 46 47 48 49 50 51 53 54 54 56 57 58 59 59 58 58 57 56 57 57 57 57 57 57 58 56 55 54 53 52 51 50 48 45 44 43 41 40
40 41 44 46 48 48 48 49 50 51 52 53 53 55 57 59 59 60 60 59 59 58 58 59 59 59 58 59 60 60 59 57 56 57 56 55 53 51 48 47 44 42
43 45 47 49 49 48 48 49 50 51 52 53 53 55 57 58 59 60 60 60 61 60 61 62 62 61 60 60 60 62 62 59 55 55 56 56 56 55 53 51 49 46
46 47 49 49 49 49 50 51 52 53 53 53 53 54 56 58 59 60 60 61 62 63 63 65 66 65 63 63 62 62 63 62 58 55 55 56 58 58 57 54 52 51
50 49 50 50 50 51 52 52 53 54 54 53 52 53 55 56 57 59 61 62 62 63 63 63 66 69 69 68 66 64 64 65 63 59 56 56 57 58 58 56 55 54
52 51 51 51 51 52 52 53 53 54 54 53 52 52 54 55 56 57 59 61 60 61 61 61 64 68 69 69 69 68 66 65 64 61 60 60 60 59 59 57 56 56
52 52 52 51 52 53 53 53 53 53 53 53 52 52 53 54 55 55 56 59 60 60 61 62 63 66 68 68 67 67 67 66 63 62 61 62 62 61 60 58 56 56

ECMWFNIL_850_spd_027.txt.gz
Wind_Speed
11 12 12 12 12 12 12 12 12 12 13 13 13 14 14 14 14 14 13 13 13 13 12 12 12 12 12 13 14 15 17 18 19 20 22 24 27 30 33 35 36 37
11 10 10 10 10 11 12 12 13 13 13 13 14 14 14 14 14 14 14 14 14 14 14 14 14 14 13 12 13 15 16 18 19 19 20 23 24 27 30 32 34 36
11 10 9 8 8 9 10 11 12 12 13 14 14 15 16 17 18 18 17 17 16 16 15 15 16 16 16 15 15 15 16 17 18 18 20 22 23 25 27 29 32 34
12 11 10 10 9 8 8 9 9 10 11 12 13 15 17 18 20 20 21 21 20 20 19 19 18 17 18 18 18 18 18 18 18 18 20 21 22 24 25 26 29 32
13 12 12 12 12 12 11 11 11 11 11 11 12 13 14 16 18 20 21 22 23 24 24 24 23 22 21 20 20 20 21 20 20 19 20 22 21 22 24 25 27 30
14 14 14 14 14 14 14 14 15 15 14 14 14 14 14 15 16 18 19 21 23 24 25 26 27 27 26 25 24 23 22 23 23 22 22 23 22 22 23 24 26 29
16 16 17 17 17 16 17 17 17 17 17 18 17 17 18 18 18 19 20 21 22 23 24 26 27 28 29 30 30 28 27 25 25 25 26 26 25 24 23 23 26 28
17 18 18 19 20 20 20 20 21 21 22 22 22 22 22 22 22 22 22 23 24 24 25 25 26 27 28 30 31 32 32 30 28 27 27 28 28 28 26 25 26 28
17 18 19 20 21 22 22 23 23 24 25 25 26 26 26 26 26 26 26 26 26 26 27 27 27 28 28 29 30 31 33 33 33 32 30 30 30 30 30 29 29 30
18 19 20 21 22 23 24 25 26 26 27 28 28 29 29 29 30 30 30 30 30 30 29 29 29 29 29 29 29 30 31 33 34 35 35 34 33 32 31 31 31 32
21 22 23 25 26 27 27 28 29 29 30 30 31 31 32 32 32 32 33 34 34 34 34 33 33 33 33 32 31 31 31 32 33 34 35 37 37 36 34 33 33 33
22 23 25 27 28 29 30 31 32 32 33 33 33 34 34 34 35 35 36 37 37 38 38 38 38 38 38 37 36 35 35 34 34 34 34 36 37 39 38 36 35 35
22 24 25 27 28 29 30 31 32 33 35 35 36 37 37 38 39 39 40 41 41 42 42 42 42 43 43 42 42 41 40 40 39 38 37 37 37 38 39 40 39 38
25 26 27 28 29 30 31 33 34 35 36 38 39 40 41 42 43 44 45 46 46 47 47 47 47 48 48 47 47 46 46 46 45 44 43 42 41 39 39 40 41 41
30 31 32 32 33 34 35 35 37 38 39 40 42 43 44 46 47 48 49 50 51 52 52 52 52 53 52 51 50 49 49 49 49 48 48 47 47 46 43 42 41 42
34 34 35 36 36 37 37 38 39 40 42 43 43 45 46 47 49 50 52 53 55 56 56 57 57 57 56 55 53 52 51 51 51 51 51 50 50 51 50 49 47 45
35 36 37 37 37 38 39 41 42 43 44 45 45 47 47 48 50 52 53 54 55 57 58 59 60 60 59 57 55 54 52 52 52 52 52 52 52 53 54 54 53 51
35 36 37 38 39 40 42 43 44 45 46 47 47 48 49 50 52 53 54 54 55 56 58 59 60 61 60 59 57 55 53 52 52 52 52 52 52 53 54 55 56 56
35 36 38 39 40 42 43 44 45 46 47 47 48 49 50 51 52 53 54 55 55 56 57 58 59 60 59 58 57 56 55 54 52 51 51 52 52 52 53 55 56 56
35 37 39 41 41 42 43 44 45 46 46 46 47 48 49 51 52 53 54 55 56 56 57 59 60 59 59 58 58 58 57 55 52 50 50 51 52 53 53 54 55 55
38 40 41 42 43 43 44 45 45 45 46 46 46 48 50 51 52 54 55 56 57 57 58 60 61 61 60 60 59 59 57 54 51 50 51 52 53 54 54 53 53 53
40 41 42 43 44 45 45 45 45 45 46 47 48 49 51 52 53 54 55 57 58 58 58 60 62 62 61 60 59 56 53 51 49 50 51 52 54 56 55 54 53 51
41 42 43 44 44 44 44 45 46 47 47 47 48 50 52 52 53 54 55 57 58 58 57 58 62 62 60 58 56 51 47 46 47 49 50 52 55 57 56 56 56 54
42 43 43 43 43 43 44 45 46 47 48 48 49 51 53 53 53 54 56 56 55 55 54 54 58 60 57 54 53 50 46 45 46 48 51 54 56 57 57 57 58 58
42 42 42 42 42 43 44 46 47 48 49 50 50 52 53 54 53 53 55 55 52 50 49 48 50 53 51 48 47 45 42 41 42 44 48 51 52 54 55 56 57 59
41 40 40 41 43 44 45 46 47 49 50 50 51 52 52 53 52 51 52 53 49 46 45 44 44 46 45 42 40 38 36 35 37 40 43 45 47 48 51 54 55 57

ECMWFNIL_850_spd_030.txt.gz
Wind_Speed
5 5 6 7 8 9 9 10 10 10 11 11 11 12 12 12 12 12 12 12 12 12 12 13 13 14 14 15 16 16 17 18 18 20 22 24 26 27 28 29 29 30
4 4 4 5 6 7 8 9 11 11 11 11 11 12 12 12 13 13 14 14 14 14 14 14 15 15 15 15 16 16 17 18 18 19 20 21 22 25 28 29 30 30
4 4 3 4 5 6 7 9 9 10 11 11 11 12 12 12 13 14 14 15 16 17 17 17 17 18 18 18 18 18 18 19 19 20 21 21 21 23 24 27 29 31
4 3 3 3 3 4 5 6 6 7 9 10 10 12 13 13 14 14 15 16 16 17 17 18 19 20 21 21 21 21 21 21 21 21 22 22 22 23 24 24 26 27
3 3 3 3 3 4 4 5 6 7 7 8 9 10 11 12 14 15 16 17 18 19 19 19 20 21 22 23 23 24 24 24 24 24 25 24 23 24 25 25 26 27
6 6 6 6 7 7 8 9 10 10 11 12 12 12 13 13 14 15 16 17 19 20 22 22 23 23 24 24 24 25 25 26 27 27 28 28 27 26 26 27 28 29
10 10 10 11 11 12 12 12 13 14 14 15 16 16 17 17 17 17 18 19 19 20 21 23 24 25 26 27 27 27 27 27 28 28 29 30 30 30 30 30 30 31
11 12 13 14 15 15 16 17 17 18 18 18 19 19 20 20 21 21 21 22 22 23 23 23 24 25 26 28 29 30 31 31 31 31 32 32 32 33 33 33 34 34
12 13 14 16 17 17 18 19 19 20 21 22 22 22 22 22 23 24 24 25 25 26 27 27 28 28 29 30 31 32 34 34 35 36 37 37 37 37 36 36 36 37
15 16 17 18 19 20 21 21 22 23 24 25 25 26 26 26 27 28 29 29 30 31 31 32 33 33 34 34 35 35 37 37 38 39 40 41 41 42 41 41 40 40
17 19 20 21 23 23 24 24 25 26 26 27 28 29 30 30 31 32 33 34 36 37 38 38 39 39 40 40 41 40 41 41 41 41 41 42 43 44 44 44 44 45
19 21 22 23 25 25 26 27 27 28 29 30 30 31 32 33 34 35 36 38 39 41 43 44 45 46 46 47 47 47 46 46 45 44 44 43 44 44 44 44 45 46
22 23 25 26 27 27 28 28 29 30 31 32 33 34 34 35 37 38 39 41 42 44 45 47 48 49 51 51 51 51 50 49 49 49 48 47 46 46 45 45 45 46
25 27 28 29 30 30 30 30 30 31 32 33 35 36 36 38 39 40 41 43 44 46 47 49 50 51 52 53 52 52 51 50 50 50 50 50 49 49 48 48 47 47
28 30 31 32 33 33 32 32 32 33 33 34 35 37 38 39 41 42 44 45 46 47 49 50 51 52 52 52 52 51 51 50 49 48 48 48 49 50 50 50 50 50
30 31 33 34 35 35 34 34 34 34 35 35 36 37 39 40 42 43 45 46 47 48 49 50 51 52 52 52 51 51 50 49 48 48 47 47 48 49 51 51 50 50
31 32 34 35 35 35 35 35 35 36 37 38 38 39 40 41 43 44 45 46 47 48 49 50 50 51 51 52 52 51 50 48 48 49 49 49 49 50 52 53 52 52
32 33 34 35 35 35 35 36 38 38 39 40 41 42 42 43 44 44 45 46 47 48 49 50 51 52 52 52 53 53 51 48 47 49 51 51 52 51 53 54 54 54
32 33 34 34 34 35 37 38 39 40 41 42 42 43 43 44 45 45 46 47 48 49 51 53 54 54 53 53 53 53 52 49 48 51 53 54 55 55 54 55 55 54
32 33 33 34 36 37 38 39 39 41 41 42 42 43 44 45 46 47 48 49 49 51 53 55 56 55 53 53 53 52 50 48 48 51 53 54 56 56 56 55 55 54
31 32 34 36 37 38 39 39 40 41 41 41 42 43 44 45 47 48 49 50 50 51 53 56 56 52 49 50 49 47 45 44 44 47 50 53 56 56 55 56 56 56
32 33 35 37 37 38 39 40 41 41 41 42 42 43 45 46 47 48 49 50 51 51 52 54 53 48 44 44 43 41 40 40 42 45 47 50 52 53 52 53 53 52
33 35 36 37 38 39 40 41 41 41 41 42 43 45 46 46 47 48 48 49 51 50 49 51 50 45 42 41 39 37 37 37 38 40 42 44 46 47 46 46 46 45
34 35 36 37 38 39 40 41 41 41 42 42 43 45 46 47 47 49 49 48 48 48 46 46 47 44 40 39 37 35 33 33 34 36 38 40 41 41 40 40 40 38
35 35 36 37 39 39 40 40 41 41 42 42 43 45 46 47 47 49 50 48 45 45 43 42 43 42 38 36 35 31 28 29 31 35 37 38 39 40 40 39 40 40
35 35 36 37 38 39 39 40 40 41 42 42 43 44 45 47 47 47 48 46 43 42 41 39 39 39 36 33 31 28 25 26 30 34 37 39 40 42 43 43 41 40

ECMWFNIL_850_spd_033.txt.gz
Wind_Speed
3 3 4 4 5 5 5 6 7 7 8 8 9 9 9 10 10 10 10 11 11 11 12 12 13 13 13 13 14 14 15 16 16 16 16 16 16 17 16 16 16 17
3 3 4 4 5 5 5 6 7 8 8 9 9 9 10 10 10 11 11 11 12 13 13 14 15 15 16 16 16 16 16 17 17 18 19 18 19 19 19 19 19 19
3 3 3 4 4 4 5 5 6 7 8 9 10 10 11 12 13 13 14 14 15 15 15 16 16 17 18 18 19 19 20 20 21 21 21 21 21 22 21 22 22 22
4 3 3 3 3 3 3 4 5 6 7 9 10 11 12 13 15 16 16 17 18 19 19 19 19 19 19 19 20 20 20 21 22 23 24 23 23 24 24 24 25 25
3 2 2 2 2 3 4 5 6 7 8 9 10 12 13 14 15 16 17 18 19 20 21 22 23 23 24 24 24 23 23 23 23 24 25 25 25 26 26 27 28 28
2 3 3 4 5 5 7 8 9 10 11 12 13 14 15 16 17 17 18 19 20 21 22 22 23 24 25 26 27 28 28 28 28 28 29 29 28 29 29 30 31 31
4 5 6 7 8 10 11 12 13 14 15 16 16 17 18 18 19 19 20 21 21 22 22 23 24 24 25 27 28 29 30 31 32 33 34 35 34 34 33 33 35 35
7 8 10 11 12 13 15 15 16 17 18 19 19 20 21 21 22 23 23 23 23 24 24 24 25 26 27 29 30 31 32 32 33 35 36 38 39 39 39 39 40 40
11 12 13 15 16 17 18 19 20 21 22 22 23 23 23 24 25 26 27 27 28 28 29 29 29 30 30 31 33 34 35 35 36 37 38 39 40 41 43 43 44 45
13 14 16 17 19 20 21 23 24 24 25 26 26 26 27 27 28 28 29 30 31 32 33 34 35 36 36 37 38 38 39 40 40 41 41 42 43 43 44 45 46 48
15 16 18 19 21 22 24 25 26 27 27 28 28 29 29 30 30 31 31 32 33 35 36 37 38 40 41 42 42 43 44 44 44 45 45 46 46 47 47 47 48 49
18 19 20 22 23 25 27 28 29 29 29 30 30 31 31 31 32 32 33 34 35 36 37 39 40 42 43 44 45 45 46 47 47 48 49 49 50 50 50 50 50 50
21 22 23 25 26 28 30 32 32 33 32 32 32 32 32 33 33 34 35 36 37 38 40 41 42 43 44 45 45 46 47 48 50 51 51 52 52 53 53 53 53 52
23 24 25 27 28 30 32 34 35 36 35 34 34 34 34 34 35 36 37 38 39 40 41 42 43 43 44 45 46 47 48 49 51 52 53 54 55 56 56 57 57 56
25 26 27 28 30 32 34 37 38 37 36 36 35 35 35 36 37 39 40 40 41 42 42 42 43 43 44 44 46 47 48 50 51 53 55 56 57 59 59 59 59 59
27 28 29 30 32 34 37 38 39 38 36 35 35 35 36 38 39 40 41 42 42 42 42 42 43 43 44 45 45 47 49 51 53 54 55 57 59 60 61 62 61 60
28 29 30 32 34 37 39 39 38 37 36 35 35 36 38 39 40 41 42 43 43 43 43 43 44 44 45 46 47 48 49 51 53 55 56 57 58 59 60 60 60 60
29 30 32 34 37 38 39 38 37 36 35 36 37 38 39 40 41 42 42 43 43 43 44 45 46 46 47 47 48 49 48 49 52 54 55 56 56 56 56 56 56 56
30 32 35 37 38 38 37 36 36 35 36 38 39 40 41 41 42 42 43 42 43 43 44 46 47 47 48 48 48 48 47 47 49 51 52 53 53 52 51 51 51 51
33 35 37 37 37 36 36 35 35 36 38 39 39 40 41 42 43 43 43 43 44 45 46 47 47 47 47 47 47 47 46 45 46 48 49 49 49 49 48 48 48 47
34 35 36 36 36 35 35 35 36 38 38 38 39 40 41 42 42 43 43 44 45 46 47 48 47 46 46 46 46 45 44 44 45 46 47 47 47 46 46 45 45 44
32 34 34 34 34 34 35 36 37 38 38 39 40 40 41 41 41 42 43 44 45 46 47 48 47 45 45 45 44 43 42 42 43 44 45 45 45 44 43 43 42 41
32 33 33 33 33 34 35 37 38 38 38 38 40 40 41 41 41 42 43 44 45 45 45 47 47 45 44 44 43 41 40 40 41 42 43 43 43 41 41 41 39 38
32 32 32 32 33 35 36 37 37 37 38 38 39 40 40 41 42 43 44 44 44 44 44 45 46 44 42 42 41 38 37 38 39 40 40 40 40 39 39 39 39 37
32 32 33 33 34 35 36 36 36 36 37 38 38 39 40 41 42 43 44 44 43 43 42 42 44 43 41 40 40 37 35 35 36 37 37 37 38 38 38 38 38 37
31 32 33 34 35 35 35 35 35 36 37 37 38 39 40 41 42 43 44 44 42 42 41 40 41 42 40 38 38 35 33 32 33 34 35 36 36 37 38 38 38 37

ECMWFNIL_850_spd_036.txt.gz
Wind_Speed
5 4 4 5 5 6 7 8 9 10 10 12 12 13 14 14 14 13 14 14 14 14 14 15 15 15 15 15 16 16 17 18 18 19 19 19 19 19 19 19 20 20
3 3 3 4 4 6 6 7 8 9 10 11 12 13 13 14 14 14 15 15 16 16 16 17 17 17 17 17 18 18 18 19 19 20 21 21 22 22 22 22 22 22
2 2 2 3 4 5 6 7 8 9 10 11 12 13 13 14 15 15 16 17 18 18 19 19 20 20 20 20 20 21 21 21 22 22 22 23 24 24 25 25 25 25
2 3 3 4 4 5 6 7 8 9 10 11 11 13 14 14 15 16 17 18 19 19 20 21 22 22 23 23 23 23 23 24 24 25 25 25 26 27 27 28 28 28
4 4 4 4 4 4 5 6 7 9 10 11 12 13 14 15 16 17 18 18 19 20 21 22 23 24 25 25 26 27 27 28 28 29 30 30 29 30 31 31 32 32
5 4 4 4 4 5 6 7 9 11 12 14 15 16 17 17 18 18 19 19 19 20 21 21 22 23 24 25 26 27 28 29 30 31 32 33 33 33 34 35 36 36
4 4 4 4 5 6 8 9 10 12 13 15 16 17 18 19 19 20 20 21 21 21 21 22 22 22 23 24 25 26 27 28 30 31 32 33 34 34 35 36 38 38
5 5 5 6 7 8 9 11 13 15 17 19 20 22 23 23 24 24 24 25 25 25 26 26 27 27 28 29 29 30 31 31 32 33 34 35 35 36 36 37 38 39
5 6 7 9 10 12 14 16 18 20 22 24 25 26 27 28 29 29 29 29 29 29 29 29 30 31 32 33 34 35 36 37 37 38 38 39 39 39 39 40 40 41
7 9 11 13 14 16 18 20 22 23 25 26 27 29 30 30 31 31 31 31 31 31 32 32 33 34 35 36 37 38 40 40 41 41 42 42 43 43 44 44 45 45
10 11 13 15 17 19 21 22 24 25 27 28 29 30 31 32 32 32 31 32 32 32 33 34 35 36 38 39 40 41 42 43 43 44 44 44 45 45 47 48 48 49
12 13 14 16 19 21 23 24 26 27 28 30 31 32 33 33 33 33 32 32 32 33 34 36 37 39 40 42 43 43 44 44 44 45 45 45 46 47 48 49 50 51
14 15 17 19 21 23 25 27 28 29 31 32 34 35 35 35 35 34 33 33 33 34 36 37 39 40 42 43 44 44 44 44 45 45 46 46 47 48 48 49 50 51
15 17 19 21 23 25 27 29 30 31 33 35 37 37 37 36 35 34 33 34 35 36 38 39 40 42 43 43 44 44 44 45 45 46 47 48 48 49 49 49 50 51
18 19 21 23 25 27 29 30 32 33 35 37 38 38 37 36 34 34 34 35 37 38 39 40 42 43 43 43 43 44 44 45 46 47 48 49 49 50 50 50 51 51
20 21 23 25 26 28 30 32 34 35 37 38 38 37 36 34 34 34 36 37 38 39 41 42 42 42 42 42 42 43 45 46 47 48 48 49 50 51 51 51 51 51
21 23 24 25 27 28 31 33 35 36 37 38 37 36 34 34 34 36 37 38 39 40 41 42 42 42 41 42 42 43 45 46 47 48 48 49 50 51 52 52 51 51
23 24 24 25 27 29 31 33 35 36 37 37 36 34 34 34 36 37 38 39 39 40 41 42 42 41 41 42 43 44 44 45 46 48 48 49 49 49 50 50 50 49
23 23 24 25 27 29 32 33 35 36 36 35 34 34 34 36 37 38 38 39 40 41 41 42 42 41 41 42 43 44 44 44 45 46 47 48 48 47 47 47 47 47
22 23 24 26 28 30 32 33 35 35 35 35 34 35 36 37 38 38 38 39 40 41 41 42 41 41 42 42 43 43 43 43 44 46 46 46 46 46 46 45 45 45
22 23 25 27 29 31 33 34 35 35 35 35 35 36 37 38 38 38 38 40 40 40 41 41 41 41 42 42 43 43 43 43 44 45 45 46 45 45 44 44 43 43
23 25 27 29 30 32 33 34 35 35 35 35 36 37 37 37 37 38 39 40 40 40 41 41 41 41 41 42 42 42 42 43 44 44 44 44 44 43 43 42 42 41
24 26 28 30 31 33 34 35 35 35 35 35 37 37 37 36 36 37 38 39 39 39 40 41 41 41 41 42 41 41 41 42 42 42 42 43 42 42 41 41 40 38
26 28 29 31 32 33 34 35 35 35 35 36 37 37 36 35 36 37 38 38 38 38 39 41 42 41 41 41 41 40 39 40 40 40 41 41 41 40 39 38 37 36
27 29 31 31 32 33 34 35 34 34 35 36 36 36 35 35 36 37 37 37 37 38 39 40 41 41 40 40 40 39 37 37 37 38 40 40 40 39 38 37 36 35
29 30 31 31 32 33 34 34 34 34 35 35 35 34 34 35 35 36 37 37 37 38 39 39 40 41 40 39 39 37 35 34 35 36 37 39 39 39 39 38 38 36

ECMWFNIL_850_spd_039.txt.gz
Wind_Speed
6 5 4 4 4 4 4 3 4 4 5 6 7 8 9 11 11 12 13 14 15 15 16 16 17 17 18 18 18 19 19 19 19 19 19 19 20 20 20 21 21 21
4 3 3 2 2 3 3 3 3 4 5 6 7 8 9 10 11 12 13 14 15 15 16 17 18 18 19 19 20 21 21 21 22 22 22 23 23 23 23 23 24 24
3 2 1 1 1 1 2 2 3 4 5 6 7 8 9 11 12 13 14 15 16 17 17 18 19 20 21 21 22 23 23 23 24 24 25 25 25 26 26 27 27 27
2 1 1 1 1 2 3 3 4 4 5 6 7 8 10 11 12 13 14 16 17 17 18 19 20 21 21 22 23 23 24 25 25 26 26 27 27 28 28 29 29 29
2 2 2 3 3 3 3 3 4 4 5 6 7 8 10 11 12 13 14 16 16 17 18 18 19 20 21 22 22 23 23 24 24 25 26 27 27 28 29 30 31 31
4 5 5 5 4 3 2 3 4 5 6 7 8 9 11 12 13 14 15 16 17 18 18 18 19 20 20 21 21 22 22 23 24 24 25 26 27 28 29 30 31 32
6 6 5 4 3 3 3 4 5 6 7 9 11 12 14 15 17 18 19 20 20 21 21 21 21 22 22 23 23 24 24 25 26 26 27 28 29 30 31 32 33 33
7 6 5 4 3 3 4 5 6 8 10 12 14 16 18 19 21 22 23 23 24 24 24 25 25 25 25 25 26 26 27 28 29 30 31 32 32 33 34 35 35 35
8 8 6 5 4 4 5 7 10 12 14 16 18 20 21 22 23 24 24 25 26 26 26 27 27 27 27 28 28 29 30 31 32 33 34 35 36 37 37 38 38 38
10 8 6 4 4 6 8 11 13 16 17 19 20 22 23 24 24 25 26 26 27 27 27 27 27 28 28 29 30 31 32 34 35 36 37 38 39 39 39 39 40 40
9 7 6 5 6 9 11 14 16 17 19 21 22 23 25 25 26 27 27 28 28 27 27 27 27 28 29 30 31 33 34 36 37 38 39 39 39 39 40 40 41 42
9 8 7 7 9 10 13 15 17 19 20 22 24 25 26 27 28 29 29 29 28 27 27 27 28 29 30 32 33 35 36 37 38 39 39 39 39 39 40 41 41 42
10 10 9 9 10 12 14 16 17 19 21 23 25 26 28 29 30 30 30 29 28 27 28 28 29 31 32 33 35 36 37 38 39 39 39 40 40 40 40 41 42 42
11 11 10 10 11 13 15 16 18 20 21 23 26 27 29 30 30 30 29 28 27 28 28 30 31 32 33 34 36 37 38 38 39 39 39 40 40 40 40 41 42 43
13 12 11 12 13 14 15 17 18 20 22 24 26 28 29 30 30 30 29 28 28 28 29 31 32 33 34 35 36 37 38 38 38 39 39 40 40 41 41 42 42 44
15 14 13 14 14 15 16 17 18 20 22 25 27 29 30 31 31 30 29 29 29 29 31 32 32 33 34 35 35 36 37 37 38 39 39 40 41 41 42 43 43 44
17 16 16 16 16 16 16 17 19 21 24 27 29 30 31 31 31 30 29 29 30 31 32 32 32 33 33 34 34 35 35 36 38 39 39 40 41 42 44 44 44 45
19 19 18 18 18 17 17 18 20 22 25 28 29 31 31 31 31 30 30 30 31 32 32 32 32 33 33 34 34 34 35 36 37 38 40 41 42 43 44 44 44 44
21 21 20 20 19 18 18 19 21 24 26 29 30 31 32 32 31 31 30 31 32 32 32 32 32 33 34 34 34 34 34 35 37 38 39 41 42 43 43 43 43 43
23 23 22 21 20 18 19 20 23 25 28 29 31 32 32 32 31 31 31 31 32 32 32 32 32 33 33 33 33 33 34 35 37 38 39 41 41 42 42 42 42 42
24 23 22 21 19 19 20 22 24 27 29 30 31 32 32 32 31 31 31 32 32 32 32 32 32 32 33 33 33 33 34 35 36 38 39 40 41 41 41 41 41 41
23 22 21 20 20 20 22 24 26 28 30 31 32 32 32 32 31 31 31 32 31 31 32 32 32 32 32 32 32 33 34 35 37 38 40 41 41 40 39 39 39 39
21 21 21 21 21 22 24 25 27 29 30 31 32 33 33 32 31 31 31 31 31 31 31 31 31 31 31 32 32 32 34 35 37 39 39 40 40 39 38 38 38 37
22 22 22 22 23 24 25 27 28 29 31 31 32 33 33 32 31 31 31 31 30 30 31 31 31 31 31 31 31 32 33 35 37 38 39 39 39 38 38 37 37 36
23 24 24 24 25 26 26 28 29 30 31 32 32 33 33 31 31 31 31 30 29 29 30 30 31 31 30 31 31 31 32 34 36 38 38 38 37 37 37 37 37 37
25 26 26 26 27 27 27 28 29 30 31 32 32 32 32 31 31 30 30 30 29 29 29 30 30 30 30 31 31 31 31 32 33 35 35 35 35 36 36 37 36 36

ECMWFNIL_850_spd_042.txt.gz
Wind_Speed
7 6 5 3 3 3 2 2 2 2 1 2 3 4 5 7 8 9 11 12 13 14 14 15 16 16 16 17 17 18 18 18 18 18 19 19 19 19 19 20 20 21
7 6 5 4 3 3 3 3 2 1 1 1 3 4 6 7 8 10 11 13 14 15 16 16 17 18 19 19 20 20 21 21 22 22 22 22 22 22 22 22 22 22
8 7 6 5 5 5 4 4 3 2 2 2 3 4 6 7 9 10 12 13 14 15 16 17 18 19 20 21 21 22 23 24 24 25 25 25 25 26 26 26 26 26
9 8 8 7 6 6 5 4 3 3 3 4 4 6 7 8 10 11 12 13 14 15 17 17 18 19 19 20 21 21 22 22 23 23 23 24 24 24 24 25 26 26
10 9 9 8 6 6 5 5 5 4 5 5 6 7 8 9 10 11 12 13 14 16 17 17 18 18 19 19 19 20 20 20 21 21 21 22 22 23 24 24 25 26
12 10 9 8 7 6 6 6 6 6 6 6 6 7 8 9 10 12 13 14 15 16 17 18 18 19 19 19 19 19 19 19 20 20 21 22 22 23 24 25 26 27
12 10 9 8 8 7 7 7 7 6 6 6 6 7 8 10 11 13 14 16 17 18 19 19 20 20 20 20 20 20 20 20 21 21 22 23 24 26 26 27 28 29
12 11 10 9 9 8 8 8 8 7 6 6 7 8 10 12 13 15 16 18 19 20 20 21 21 22 22 22 22 22 22 22 23 23 24 26 27 28 29 30 30 31
13 12 11 10 10 10 9 8 8 7 7 7 9 10 12 14 16 17 18 19 20 21 21 22 22 22 22 22 23 23 24 24 25 26 27 29 30 30 31 31 32 32
15 13 12 12 11 10 10 9 8 7 8 9 11 12 14 16 17 19 19 20 21 22 22 22 22 22 22 23 23 24 25 26 27 28 29 30 31 31 32 32 33 33
16 14 14 13 12 11 10 9 8 8 9 11 12 14 16 17 19 20 21 22 22 23 23 22 22 23 23 24 24 25 26 27 28 29 30 31 32 32 33 33 33 34
17 16 15 14 13 12 11 10 9 9 10 12 13 15 17 18 20 21 22 23 24 24 24 23 23 23 24 25 25 26 27 28 29 30 31 31 32 32 33 33 33 34
19 17 16 15 14 13 11 10 9 10 11 12 14 16 18 19 21 23 24 25 25 25 24 24 24 24 25 25 26 27 27 28 29 30 31 32 32 32 33 33 33 34
20 18 17 16 14 13 11 10 10 11 12 13 15 16 18 20 22 24 25 26 26 25 24 24 24 25 25 26 26 27 28 29 30 31 31 32 32 32 32 33 33 34
21 19 18 16 14 13 11 10 11 11 12 14 15 17 19 21 23 25 26 26 26 25 24 24 24 25 26 26 27 27 28 29 30 30 31 31 31 32 32 33 34 35
22 20 19 17 15 13 12 12 12 13 13 14 16 18 20 22 24 26 26 27 26 26 25 24 25 25 26 26 26 27 28 28 29 30 30 31 31 32 33 33 34 35
24 22 19 18 16 15 14 13 14 14 14 16 17 18 20 22 24 26 27 27 27 26 25 25 25 26 26 26 26 26 27 28 29 30 30 31 31 32 34 34 35 36
25 23 21 19 17 16 16 15 16 16 16 17 18 19 21 23 25 26 27 28 28 27 26 25 26 26 26 26 25 25 26 27 29 30 30 31 32 33 34 35 36 37
27 24 23 21 19 18 18 18 18 18 18 19 19 20 22 23 25 27 28 28 29 28 27 26 26 26 25 25 25 25 26 27 29 30 30 31 32 33 33 34 35 36
28 26 24 22 21 20 20 21 20 20 20 20 20 21 22 24 26 27 28 29 29 28 27 27 27 26 26 25 25 25 26 27 28 29 30 31 32 33 33 34 35 35
28 27 25 23 22 22 23 23 22 21 21 21 21 22 23 25 26 28 29 30 30 29 28 27 27 26 26 25 25 25 26 27 28 30 31 32 33 33 34 35 35 35
28 27 25 24 24 24 24 24 23 22 22 22 22 23 24 25 27 29 30 31 30 29 29 28 27 27 26 25 25 25 27 28 29 30 32 33 33 34 34 35 35 34
27 26 25 25 24 25 24 24 23 23 23 23 23 24 25 26 28 30 31 31 30 29 29 28 28 27 26 25 25 26 27 28 29 31 32 33 34 34 34 34 34 34
26 25 25 24 24 25 24 24 24 24 24 24 24 25 25 27 29 30 31 31 30 29 29 29 28 26 25 25 25 26 27 28 30 31 32 33 33 33 34 34 33 33
24 24 24 24 24 24 24 25 25 25 25 25 25 26 27 28 29 31 31 31 29 28 28 29 28 26 25 25 25 26 27 28 29 31 31 32 31 32 32 32 32 33
23 23 23 23 24 24 25 26 26 26 26 26 26 27 28 28 30 31 31 31 29 28 28 28 28 26 25 25 25 26 26 27 29 30 30 30 31 31 32 32 32 33

ECMWFNIL_850_spd_045.txt.gz
Wind_Speed
11 10 8 8 7 6 5 4 4 3 2 2 1 1 2 4 6 7 9 10 11 12 13 15 16 17 18 19 19 20 20 21 21 22 22 22 22 22 22 22 21 21
10 10 8 7 7 6 5 5 4 3 2 2 1 2 3 4 6 7 9 9 11 12 13 14 15 16 18 19 20 20 21 22 22 23 23 23 23 24 24 24 24 24
11 10 9 7 7 6 6 5 5 4 3 3 2 3 4 5 6 8 9 10 11 12 13 14 15 17 18 19 20 21 21 22 22 22 23 23 22 22 22 22 23 23
12 11 10 9 8 8 7 6 6 5 4 4 4 5 6 7 8 10 10 12 13 13 15 16 17 18 19 20 20 21 21 21 21 20 20 20 20 20 20 21 22 22
13 12 11 11 10 9 9 8 7 6 5 5 6 7 8 9 10 10 11 12 13 14 15 16 17 18 18 19 19 19 19 19 19 18 18 18 18 19 20 20 22 22
15 14 13 13 12 11 10 9 8 7 7 7 7 8 9 9 10 10 11 13 13 14 15 16 17 18 18 18 18 18 18 18 18 18 17 18 18 19 20 21 22 23
16 16 15 14 13 12 11 10 9 8 8 8 8 8 9 9 10 10 11 12 13 14 16 17 18 18 19 19 19 18 18 18 18 18 18 18 19 20 22 23 23 24
18 17 16 15 14 13 12 11 10 9 9 9 9 8 9 9 10 11 11 13 14 15 17 18 19 19 19 20 19 19 19 19 19 19 19 20 21 22 23 24 25 25
19 18 17 16 15 13 12 11 11 10 10 10 9 9 9 9 10 11 12 13 15 17 18 19 20 20 20 20 20 20 20 20 20 20 21 22 22 23 24 25 25 26
20 19 18 17 15 14 13 12 12 11 11 10 10 9 10 10 11 12 13 15 16 18 19 20 20 21 21 21 21 21 21 21 21 22 22 23 23 24 25 25 26 27
22 21 19 18 16 15 14 13 13 12 11 11 11 10 10 10 11 13 14 16 17 18 20 21 21 21 21 21 21 21 22 22 22 22 22 23 23 24 25 26 26 27
23 22 21 19 18 16 15 15 14 13 13 12 11 10 10 11 12 14 15 17 18 19 20 21 22 22 22 22 22 22 22 22 22 22 23 23 23 24 24 25 26 26
25 23 22 20 19 18 16 16 15 14 14 12 11 11 11 11 13 15 16 17 18 20 21 22 23 23 22 22 22 22 22 23 23 23 23 23 23 24 24 25 26 26
26 25 23 22 20 19 18 18 17 16 14 13 12 11 11 13 14 15 16 17 19 20 22 23 24 23 23 23 22 22 22 23 23 23 23 23 23 23 24 24 25 26
28 27 25 23 21 20 20 19 18 17 15 13 13 13 13 14 15 15 16 18 20 21 23 24 24 24 23 23 23 23 23 23 23 23 23 23 22 23 23 24 25 26
30 29 26 24 23 22 21 20 19 17 15 14 14 14 15 15 15 15 17 19 20 22 24 24 25 25 24 24 23 23 24 23 23 23 22 22 22 22 23 24 25 27
31 29 27 26 25 24 22 21 20 18 16 15 16 16 16 16 16 16 18 19 21 22 24 25 25 25 24 24 23 23 24 24 24 24 22 22 22 23 24 25 26 28
32 29 28 28 27 25 24 22 21 19 18 18 17 18 18 17 17 18 19 20 21 22 24 25 25 25 25 24 23 23 24 25 24 24 23 23 23 23 24 26 27 29
31 30 30 30 28 26 25 23 22 21 20 19 19 19 19 19 19 19 20 21 21 22 24 25 25 26 25 24 24 24 24 25 25 24 24 24 24 24 25 26 27 29
30 31 31 30 29 28 26 25 24 23 22 21 20 20 20 20 21 21 21 21 22 23 25 25 25 25 25 24 24 24 25 25 25 25 25 24 24 25 26 27 28 30
31 32 32 31 30 29 29 28 26 25 24 23 22 21 22 22 23 22 22 22 22 23 25 25 25 26 25 25 25 25 26 26 26 26 25 25 25 26 26 27 29 30
31 31 31 32 31 31 31 30 28 27 26 25 24 23 23 24 24 24 23 22 23 24 25 25 25 26 26 25 25 25 26 26 26 26 26 26 26 27 27 28 29 30
30 31 31 32 32 31 31 30 29 28 27 26 25 25 25 26 26 25 24 23 23 24 25 26 25 26 26 26 25 26 27 27 27 27 27 27 27 28 28 28 29 30
30 30 31 31 32 31 31 30 29 28 28 27 26 26 27 27 27 26 25 24 24 24 26 26 26 26 26 26 26 27 27 27 27 27 28 28 28 28 29 29 29 30
30 30 31 31 31 31 30 29 29 28 28 27 27 27 28 28 28 27 26 25 25 25 26 27 27 26 27 27 27 27 28 28 28 28 28 28 29 29 29 29 29 30
30 30 31 31 31 30 29 29 29 29 28 28 28 28 29 30 29 28 27 27 26 25 26 27 28 28 27 27 28 28 28 28 28 28 28 28 29 29 29 29 30 31

ECMWFNIL_850_spd_048.txt.gz
Wind_Speed
16 15 14 13 12 10 9 8 7 6 5 5 3 3 2 1 3 4 6 7 8 9 10 11 12 13 14 15 16 17 18 19 20 20 20 20 20 20 20 19 19 19
17 16 14 12 11 10 9 8 7 6 5 5 4 2 1 1 3 4 6 7 8 9 10 11 12 13 14 15 16 17 18 19 19 20 20 19 19 19 19 19 18 19
18 16 14 12 11 10 10 9 8 7 6 5 4 2 1 2 3 4 6 7 8 9 9 10 11 12 14 15 16 17 18 18 18 18 18 18 17 17 16 16 16 17
19 17 15 13 12 11 10 10 9 8 6 5 4 3 3 3 5 5 6 7 8 8 9 10 12 13 14 16 17 18 18 18 17 16 16 16 15 15 14 14 15 15
19 17 16 14 13 13 11 11 9 8 7 5 4 5 5 6 6 7 8 8 8 9 10 11 13 14 15 16 17 18 18 17 16 15 15 15 14 14 14 14 15 16
20 19 17 16 15 13 12 11 10 8 7 7 7 7 7 8 8 8 8 8 8 10 11 12 13 15 16 17 17 17 17 16 16 15 15 15 14 15 15 15 16 16
21 20 18 17 16 14 13 12 10 10 9 9 9 9 9 9 9 8 8 8 9 10 11 13 14 15 16 17 17 17 17 16 16 15 15 15 15 15 15 16 16 17
22 21 19 18 17 15 14 13 12 11 11 11 11 11 10 9 9 8 8 8 9 10 12 13 14 16 17 18 18 17 17 16 16 16 15 15 15 16 16 16 17 18
23 22 21 19 18 16 15 14 13 13 13 13 12 11 10 9 9 8 8 9 10 11 12 13 15 16 17 18 18 18 17 17 16 16 16 16 16 16 16 17 18 18
24 23 22 20 19 18 16 16 15 14 14 14 13 12 11 10 9 9 9 10 11 12 13 14 16 17 18 18 18 18 17 17 16 16 16 16 16 16 17 17 18 19
26 24 23 22 20 19 18 17 16 16 16 14 13 12 12 11 10 10 10 11 12 13 14 15 17 17 18 18 18 18 17 17 16 16 16 16 16 17 17 18 18 19
27 26 24 23 22 21 19 19 18 17 17 15 14 13 13 12 12 11 12 12 13 14 15 16 17 18 18 18 18 18 18 18 17 17 17 16 17 17 17 18 18 18
28 26 25 24 23 22 21 20 20 19 17 16 15 14 14 13 13 13 13 13 13 14 15 16 17 18 18 18 19 18 18 18 18 17 17 17 17 17 17 18 18 18
28 27 26 25 24 23 22 22 21 20 19 17 16 16 15 15 15 15 14 14 14 14 15 16 17 18 18 19 19 19 18 18 18 18 18 17 17 18 18 18 18 18
29 27 27 27 26 25 24 24 23 21 20 19 18 17 16 16 16 16 15 14 14 14 15 16 17 18 18 19 19 19 19 19 19 18 18 18 18 18 18 18 18 18
30 29 29 29 28 27 26 26 24 23 21 20 19 18 18 18 17 16 15 15 14 15 15 17 17 18 18 19 19 19 19 19 19 19 18 18 18 18 18 18 18 18
31 31 31 31 30 29 28 27 26 24 23 21 20 19 20 19 18 17 16 16 15 15 16 17 17 18 18 19 20 20 20 20 20 20 19 19 19 19 19 18 19 19
33 33 33 33 31 30 30 28 27 26 24 23 22 21 21 21 19 18 17 17 17 17 17 17 17 18 19 20 20 20 21 22 21 21 20 20 19 19 19 20 20 20
35 35 35 34 33 32 30 29 28 28 26 25 24 23 23 22 20 19 19 19 18 18 18 18 18 18 19 20 21 21 22 23 23 22 22 21 21 21 21 21 21 22
37 37 36 36 34 32 31 31 30 29 28 26 26 26 25 23 21 21 20 20 20 20 20 19 18 19 20 21 22 22 23 24 24 24 23 23 23 22 22 23 23 23
38 38 38 37 35 33 32 32 32 31 30 29 29 27 26 24 23 22 22 22 22 22 21 20 19 20 21 22 22 23 24 24 25 25 25 24 24 24 24 24 24 24
40 40 39 38 36 34 33 33 33 33 32 32 31 29 27 26 25 24 24 24 24 24 23 21 20 21 22 23 23 24 25 25 25 26 26 26 26 26 26 26 25 25
41 41 39 38 36 34 34 34 34 34 34 33 32 31 29 28 26 25 25 26 27 26 25 22 21 22 24 24 24 24 25 26 26 26 27 27 27 27 27 27 27 26
41 40 39 37 35 34 34 34 34 34 34 33 33 32 31 29 27 27 28 29 29 27 26 24 23 24 25 25 24 25 26 26 27 27 28 28 28 28 28 28 28 27
38 38 37 35 34 33 33 33 33 33 33 33 33 33 32 30 29 29 30 31 30 28 27 26 25 25 26 26 25 25 26 27 28 29 29 29 29 30 30 29 28 28
35 35 34 33 32 32 31 32 32 31 32 32 32 32 32 31 30 31 32 32 30 29 29 28 27 27 27 27 26 26 26 27 29 30 30 30 30 30 31 30 29 28

ECMWFNIL_850_spd_054.txt.gz
Wind_Speed
33 35 35 34 33 30 28 27 25 23 21 20 18 17 16 15 13 12 10 8 8 6 5 4 3 3 3 3 4 4 4 6 7 7 7 7 6 6 5 5 4 4
36 37 35 34 32 30 27 26 24 22 21 20 19 17 16 15 13 12 10 8 7 6 4 3 2 2 2 2 2 3 4 6 6 6 6 5 5 4 4 4 3 3
38 38 36 34 32 30 28 26 24 23 22 20 19 17 16 15 13 12 11 9 7 5 4 3 3 2 0 1 2 3 4 6 6 6 5 4 4 3 3 3 3 3
40 38 35 33 31 29 28 27 26 24 22 21 20 18 17 15 14 12 11 9 7 6 5 5 4 2 1 1 2 3 4 5 5 5 4 4 3 3 2 3 3 3
40 38 35 33 31 30 29 27 26 24 23 21 20 19 17 16 14 12 11 10 9 8 7 6 5 4 3 2 3 4 5 5 5 4 4 3 3 3 3 3 4 4
40 38 36 34 32 30 29 27 25 24 23 22 21 20 18 17 15 13 12 11 11 10 9 8 7 5 4 3 3 4 5 5 5 4 4 3 3 4 4 4 5 5
41 39 36 34 33 31 28 27 26 24 23 22 21 20 19 17 15 14 14 13 12 11 10 10 8 7 5 5 4 4 4 5 6 5 5 4 4 5 5 5 6 6
42 39 37 35 33 32 29 28 26 25 24 23 22 21 19 17 16 16 16 15 13 13 12 11 10 8 7 6 5 4 5 5 6 6 5 5 5 6 6 7 7 8
42 40 38 36 35 33 31 29 28 26 26 24 23 22 20 19 18 18 17 16 15 15 14 12 11 9 8 7 5 4 5 6 6 6 6 6 6 7 7 8 8 9
43 41 39 38 36 34 32 30 29 28 27 25 24 23 21 21 20 20 18 17 17 16 15 13 12 10 10 8 6 4 5 6 7 7 7 7 7 7 8 9 9 10
44 42 41 40 38 36 33 32 31 30 28 27 26 24 23 23 22 21 20 19 18 17 16 14 13 12 11 9 6 5 6 7 7 8 8 8 8 8 9 9 10 11
45 44 43 41 39 37 35 34 32 31 30 28 27 26 25 25 23 22 20 20 20 19 17 15 14 14 13 10 7 6 7 7 8 8 8 8 8 9 9 10 11 12
47 46 44 42 39 37 36 35 34 32 31 29 28 27 27 26 24 22 21 21 21 20 18 17 16 16 14 11 8 7 7 8 9 9 9 9 9 9 10 11 12 13
47 46 44 42 40 38 37 36 35 34 32 31 30 29 29 27 24 23 23 23 22 21 19 18 18 17 15 12 10 8 9 9 10 10 10 10 10 10 11 12 13 14
48 46 45 43 42 40 39 38 36 35 34 32 32 31 29 27 26 25 24 24 24 22 21 21 20 19 16 13 11 10 10 10 11 11 11 11 11 11 12 13 14 15
48 47 46 45 43 42 41 39 38 37 35 34 33 32 31 29 28 27 26 26 25 24 23 23 21 20 17 15 13 12 12 12 12 12 13 13 13 13 13 14 15 16
49 49 47 46 44 43 42 41 39 38 37 36 35 33 32 31 29 29 28 27 26 25 25 24 22 20 18 16 15 15 15 14 14 14 14 14 14 14 14 15 16 17
51 50 48 47 46 44 43 42 40 40 39 38 37 35 34 32 31 30 30 28 27 27 27 26 24 22 20 18 18 17 17 17 16 16 16 16 16 16 15 15 16 17
51 51 49 48 47 45 44 43 42 41 40 39 38 36 35 34 32 32 31 29 29 29 29 27 25 23 22 20 20 20 19 19 18 18 19 19 18 18 17 17 17 17
51 51 49 48 47 45 44 44 43 42 42 40 39 37 36 36 34 33 32 31 31 31 30 29 26 25 23 22 22 22 21 21 21 20 21 21 21 20 19 19 19 19
51 50 49 48 47 46 45 44 44 43 42 40 39 39 38 37 35 34 33 33 33 32 32 30 28 27 25 24 24 23 23 24 23 23 23 23 23 22 22 21 21 21
49 49 49 48 47 46 46 45 44 43 42 41 41 41 40 38 36 36 35 34 34 34 33 32 30 28 27 27 26 25 26 26 26 26 26 26 25 24 24 24 24 23
48 48 48 48 48 47 46 45 44 43 42 42 43 42 40 39 38 38 37 36 35 35 35 34 32 30 30 29 28 27 28 28 28 28 29 28 27 26 27 27 26 25
46 47 47 47 47 46 45 44 43 43 43 43 43 43 41 40 39 39 38 37 37 37 36 35 34 32 32 31 31 30 30 30 31 31 31 31 29 29 29 29 28 27
44 45 45 45 45 44 43 43 43 43 43 43 43 42 41 40 40 40 39 38 38 39 38 37 36 35 34 34 34 33 33 33 34 34 34 34 32 31 31 31 30 30
39 41 42 42 42 41 41 42 43 43 43 42 42 42 41 41 41 41 41 40 40 41 40 39 39 38 37 37 37 36 36 36 37 38 38 36 34 33 33 33 33 33

ECMWFNIL_850_spd_057.txt.gz
Wind_Speed
30 29 29 29 31 33 35 37 39 38 35 33 31 29 28 27 25 24 22 19 17 14 12 10 9 7 6 5 4 4 5 5 5 5 5 5 5 5 6 6 6 7
31 30 29 30 32 35 37 39 39 37 34 31 30 28 28 27 25 23 21 19 17 14 12 10 9 7 5 3 3 3 4 4 5 4 5 5 5 6 6 7 7 7
33 32 30 31 34 37 39 40 39 36 33 31 30 29 27 26 25 23 21 18 16 14 13 11 9 7 5 3 1 2 3 4 4 5 5 5 6 6 7 7 7 7
34 32 30 31 34 38 41 41 39 36 34 32 31 29 28 26 25 23 21 19 17 15 13 12 10 8 5 3 1 1 2 3 4 5 5 5 6 7 8 8 8 8
33 32 30 32 37 40 42 41 38 36 34 32 31 30 28 27 25 23 21 20 18 16 14 12 11 8 6 5 3 3 3 4 5 5 5 6 7 8 8 9 9 9
33 32 31 35 39 42 43 40 37 36 34 33 32 30 29 27 25 23 21 19 18 17 15 13 12 10 8 7 6 5 5 5 6 6 5 6 7 9 9 9 9 9
33 32 34 38 42 44 42 39 37 36 35 34 32 31 30 28 25 23 21 19 18 17 16 14 13 11 11 10 9 8 7 6 7 6 6 7 8 9 10 10 10 11
33 33 36 40 44 44 42 39 38 37 36 35 33 32 30 28 26 24 22 20 19 18 17 15 14 14 13 12 11 10 8 8 7 6 6 8 9 10 10 11 11 11
34 35 38 42 45 45 43 41 39 38 37 35 34 32 30 28 26 24 23 22 21 20 18 17 16 16 15 14 13 12 10 9 8 7 7 9 10 11 11 11 11 12
35 37 40 44 46 46 44 42 40 39 38 36 35 33 31 29 27 26 24 23 22 21 19 19 18 18 17 16 15 13 11 10 8 7 8 9 10 11 11 12 12 12
37 39 42 45 47 47 45 43 42 40 39 37 36 34 32 30 29 28 27 25 24 22 20 20 20 19 18 17 15 13 12 11 10 9 9 10 11 11 12 12 12 12
39 41 44 46 48 48 46 44 43 41 40 38 37 35 33 32 30 29 28 27 25 22 22 22 21 20 19 18 16 14 13 12 11 10 10 11 12 12 12 13 13 13
40 42 45 47 48 48 46 45 44 42 41 39 37 36 34 33 32 31 29 27 25 24 24 24 23 22 21 19 17 15 14 13 13 12 11 12 12 12 13 13 13 14
41 42 45 47 48 49 47 46 45 43 42 40 38 36 35 34 33 32 30 29 27 26 26 26 25 24 22 21 18 16 15 15 15 14 13 13 13 13 14 14 14 15
42 43 44 46 49 50 49 48 46 45 43 41 39 37 36 35 35 33 32 30 29 28 28 28 27 25 23 21 18 17 17 17 16 16 14 14 14 14 14 15 16 16
43 43 45 47 49 51 51 49 47 46 44 42 40 39 38 37 36 35 34 32 30 30 30 29 27 25 23 21 19 19 18 19 19 18 17 15 15 14 15 15 16 17
44 44 45 47 49 51 52 50 48 47 45 43 42 41 40 39 38 37 35 33 32 31 31 30 27 25 23 21 21 21 21 21 22 21 19 17 16 15 15 16 17 18
44 44 45 46 48 51 53 51 49 48 46 44 44 43 42 42 40 39 37 34 33 33 32 30 27 25 23 23 23 23 24 24 24 24 22 19 18 17 17 17 18 18
43 43 44 45 48 51 53 52 49 48 47 46 46 45 44 43 41 40 38 36 35 34 33 31 28 26 25 25 26 26 26 26 27 26 24 22 20 19 19 20 20 19
42 43 43 45 47 50 52 51 49 49 49 48 48 47 46 44 42 41 38 37 36 35 33 31 29 28 27 27 28 29 29 29 29 28 26 24 23 22 22 23 22 21
43 43 43 44 46 48 50 50 49 49 50 50 49 48 46 44 42 41 39 38 37 35 33 32 31 30 29 30 31 32 32 32 30 29 28 27 26 25 25 25 25 24
42 42 43 43 44 45 47 48 49 50 52 52 50 48 46 44 42 41 39 38 37 36 35 34 33 32 32 33 34 34 34 33 32 31 31 30 29 28 27 28 27 27
42 42 42 42 42 44 45 47 49 51 52 51 50 48 46 44 43 42 40 39 38 37 37 37 36 35 35 35 36 36 35 35 34 34 33 32 31 30 30 30 30 30
40 40 40 40 41 42 44 46 48 50 51 50 48 47 45 44 43 42 41 40 39 39 39 39 38 38 37 37 38 37 37 37 36 36 35 35 34 33 32 32 32 32
36 36 37 38 39 41 42 44 46 48 48 48 46 45 43 43 43 42 41 40 40 41 42 41 41 40 39 38 39 38 38 38 38 38 38 38 38 37 36 35 36 35
30 32 33 34 36 37 39 40 42 44 45 44 43 42 42 42 41 41 42 43 44 44 44 44 43 42 40 40 40 40 40 40 40 40 41 41 41 41 40 40 40 39

ECMWFNIL_850_spd_060.txt.gz
Wind_Speed
33 31 29 28 27 27 30 30 28 30 32 31 33 36 37 36 34 33 32 30 29 28 26 24 22 20 18 16 14 11 9 7 5 3 2 3 4 4 5 5 6 7
31 28 28 28 28 29 31 28 26 29 31 31 34 37 37 36 35 33 32 31 30 28 26 24 22 20 17 15 13 11 9 7 5 3 1 2 3 4 5 6 7 8
29 28 29 29 29 29 28 26 27 29 31 33 37 38 37 36 35 34 33 32 31 29 27 25 22 20 18 16 14 12 9 7 5 3 1 2 3 4 6 7 8 8
30 30 31 31 30 28 26 27 30 32 33 37 40 40 38 37 36 35 34 33 31 29 27 25 23 21 19 17 14 12 10 8 6 3 2 3 5 6 7 8 9 9
31 32 33 33 31 28 28 29 31 34 36 39 41 41 39 38 37 36 35 34 32 30 28 26 24 22 19 18 15 13 11 9 6 4 3 4 7 8 9 9 10 10
31 33 34 34 31 27 29 30 32 35 38 41 43 42 40 38 37 37 35 34 32 30 28 26 24 22 20 19 16 14 12 10 7 5 5 6 7 9 10 10 11 11
32 32 33 33 31 30 32 32 33 37 40 43 44 42 40 39 38 37 36 34 32 30 28 26 24 23 21 20 17 15 13 11 8 7 6 6 8 10 10 11 11 11
33 33 34 35 34 34 35 33 34 38 42 45 45 43 41 40 38 37 36 34 32 30 29 27 25 23 22 20 18 16 14 12 10 8 7 7 8 10 11 12 12 13
36 35 35 36 36 37 36 34 35 39 44 46 46 44 42 40 39 38 36 34 33 31 29 27 25 24 22 20 18 16 14 12 10 9 8 8 9 10 11 12 13 13
39 38 37 37 37 37 36 34 35 41 46 48 47 45 43 41 40 38 36 35 33 31 29 27 26 25 23 21 19 17 15 13 11 10 9 9 10 11 11 12 13 14
39 39 39 38 36 36 35 34 36 42 47 49 48 45 44 42 40 39 37 35 33 31 29 27 26 25 23 22 20 18 16 14 13 11 10 10 10 11 12 13 14 14
39 39 39 38 37 36 35 34 37 43 48 50 48 46 44 42 41 39 37 35 33 31 30 28 26 25 24 23 21 19 17 15 14 13 11 11 11 12 13 14 15 15
40 39 38 37 36 36 34 34 37 44 49 50 48 45 44 42 40 39 37 35 34 32 31 29 27 26 25 23 22 20 18 17 15 14 12 11 12 13 14 15 16 16
40 38 36 35 35 35 34 34 38 44 49 49 47 45 44 42 40 39 37 37 35 33 32 29 28 27 26 24 23 21 20 19 16 15 13 13 14 14 15 16 17 17
39 38 37 36 36 35 34 35 39 44 48 49 47 45 44 42 40 40 39 38 36 34 32 30 29 28 26 25 24 23 22 20 17 16 16 16 16 16 17 18 18 19
38 38 38 37 37 35 34 35 39 44 48 49 47 45 44 43 42 41 40 39 37 35 33 32 30 29 27 26 25 24 23 20 18 18 19 19 18 19 19 19 19 20
37 38 39 38 37 36 35 35 37 43 47 49 47 45 45 44 43 43 41 39 38 36 34 33 31 30 29 28 27 26 24 21 20 20 22 22 22 22 22 22 22 23
37 37 38 39 38 37 36 34 35 40 45 48 48 46 45 45 44 43 42 41 40 38 36 34 32 30 30 29 28 27 25 23 22 23 25 25 25 25 24 24 25 25
38 37 37 38 38 37 37 36 35 38 42 46 48 47 47 46 45 44 43 42 41 39 36 34 33 32 31 30 29 28 26 24 24 26 28 28 28 28 27 26 27 27
39 38 37 37 38 37 38 38 37 37 40 44 47 49 49 48 47 46 45 43 41 39 36 35 34 33 32 31 30 28 27 26 26 30 31 31 30 30 29 28 29 30
39 38 37 38 38 39 39 39 38 38 40 43 47 50 50 49 47 46 45 43 41 39 37 37 36 34 33 32 31 29 28 28 30 33 34 34 33 32 31 31 32 32
38 37 37 37 38 38 38 38 38 38 39 41 45 48 49 48 46 46 45 43 41 39 38 38 37 35 34 33 31 31 31 32 34 36 37 37 36 33 33 34 34 34
36 36 36 37 37 37 37 36 36 36 37 38 40 43 46 47 47 46 45 43 40 40 40 39 38 36 34 33 33 33 34 35 38 40 40 39 37 35 36 36 36 36
32 33 34 35 35 34 34 33 32 32 33 33 34 37 41 43 44 44 43 42 42 42 41 40 38 36 35 35 36 35 36 38 41 43 42 41 39 37 37 38 38 38
25 27 29 30 31 31 30 29 29 29 29 29 30 32 35 39 41 42 43 44 43 42 40 40 39 38 37 38 37 36 39 43 45 45 45 44 41 40 40 40 41 41
19 21 23 24 25 26 26 26 26 25 25 25 26 28 30 33 36 39 41 41 39 39 39 40 41 40 39 38 38 39 43 46 47 47 47 46 44 43 43 43 44 44

ECMWFNIL_850_spd_063.txt.gz
Wind_Speed
36 37 37 36 35 34 30 29 30 28 24 24 27 31 33 35 35 34 32 31 31 32 31 30 30 31 30 29 27 25 23 21 19 17 15 13 11 10 8 8 8 9
35 36 35 36 36 34 32 30 28 26 23 24 26 28 31 35 36 34 33 33 34 34 32 32 32 32 31 29 27 26 24 22 20 18 15 13 12 11 9 9 9 9
33 34 35 35 34 34 34 30 26 24 24 25 26 27 31 34 35 35 35 35 36 35 33 33 33 33 31 30 28 26 24 21 19 18 16 14 13 11 9 9 9 9
32 33 33 32 32 33 32 28 24 25 26 28 27 26 31 34 35 36 38 38 37 36 35 35 34 34 33 31 28 26 24 21 19 18 15 13 12 10 9 9 10 10
32 32 33 33 33 31 28 26 26 27 29 30 27 26 31 34 36 39 40 40 39 37 37 36 36 35 33 31 29 26 24 21 19 18 15 13 11 10 10 10 11 11
32 32 33 34 33 29 26 26 27 29 32 31 26 25 31 34 37 41 42 41 40 39 38 38 37 36 34 31 29 26 24 22 19 17 15 13 11 10 10 11 11 12
32 31 32 33 31 27 26 27 28 30 31 29 25 26 31 34 38 42 42 41 41 40 39 38 38 37 34 32 29 27 25 22 19 16 14 12 11 10 11 11 12 12
30 30 32 33 31 28 27 29 31 31 28 26 26 28 31 34 40 43 42 42 41 40 40 39 38 37 35 32 30 27 25 22 19 17 14 12 11 10 10 11 12 12
30 30 32 34 33 31 30 32 33 32 28 26 27 30 31 35 41 43 43 42 42 41 41 40 39 37 35 33 30 27 24 22 19 17 14 12 10 10 10 11 11 12
31 31 33 35 33 31 32 34 34 32 28 25 27 29 31 36 42 44 44 43 43 42 41 40 39 38 35 33 30 27 24 22 19 16 14 12 10 10 10 10 11 12
32 32 34 36 32 29 30 32 32 32 29 26 27 30 32 36 43 45 45 45 44 43 42 41 39 37 35 32 29 27 24 22 19 16 14 12 10 10 10 10 10 11
34 34 35 36 33 30 30 30 30 31 31 29 30 31 33 38 44 47 46 45 43 42 41 40 38 36 34 32 29 27 24 22 19 17 15 13 11 11 10 10 10 12
35 35 35 34 32 31 32 33 32 32 32 31 32 33 34 39 45 48 47 45 43 42 41 39 38 36 34 31 29 26 24 21 19 17 15 13 12 11 11 11 13 14
35 35 34 34 32 32 34 35 35 35 33 32 33 34 34 39 45 48 47 45 43 42 41 39 38 36 34 31 28 26 24 22 20 17 15 14 13 13 13 14 15 16
34 34 34 34 33 34 35 34 34 35 34 34 35 34 34 37 44 48 48 46 44 42 41 40 39 37 33 30 28 26 24 22 20 18 17 16 16 16 15 16 16 18
33 34 34 34 34 35 35 34 32 33 34 35 34 33 33 37 43 48 49 46 44 43 42 41 39 36 33 30 28 26 24 22 21 20 19 18 18 18 17 17 18 21
32 33 34 35 34 34 34 34 32 31 31 32 31 31 33 36 42 47 49 47 45 43 42 41 39 36 33 30 28 27 25 24 24 24 22 20 20 21 19 19 21 24
32 32 33 34 33 33 34 34 32 29 29 30 29 29 31 35 40 46 48 47 46 44 42 41 39 36 33 31 30 28 27 27 27 27 23 21 23 23 22 23 25 26
33 32 32 31 31 31 32 33 32 30 30 29 28 27 30 34 39 45 48 48 46 45 43 41 39 37 34 32 31 30 29 30 30 27 24 23 25 25 26 29 28 28
34 33 31 29 29 29 29 31 31 30 30 30 28 28 30 34 38 44 47 48 46 45 43 41 39 37 35 33 31 31 31 31 30 27 24 25 27 29 32 33 31 30
34 33 31 29 29 29 29 29 29 29 29 31 31 29 30 32 37 42 45 46 45 44 43 42 40 37 35 33 32 32 32 32 30 27 26 28 30 33 35 36 34 34
32 32 31 30 29 30 30 28 27 28 29 31 31 30 30 31 35 40 43 45 45 44 44 42 40 37 34 33 32 33 33 32 31 28 28 31 33 35 36 37 37 37
30 30 30 29 28 28 28 27 27 28 28 29 30 30 29 30 33 37 40 42 43 44 43 42 39 36 34 33 33 33 32 32 31 30 31 34 35 36 37 39 39 39
26 26 26 27 26 25 25 26 27 27 26 26 27 27 27 28 29 31 34 37 39 40 40 39 38 35 33 32 32 32 32 33 32 32 33 36 36 37 38 40 41 42
20 21 22 23 23 23 24 25 25 24 22 22 22 23 23 23 24 25 28 32 34 35 35 35 34 32 31 31 32 32 34 35 33 33 35 36 37 38 40 41 43 44
15 16 17 17 18 20 20 21 20 19 18 17 17 18 18 18 18 19 22 25 28 31 33 34 34 33 32 33 35 36 37 35 33 33 35 37 38 40 42 44 45 47

ECMWFNIL_850_spd_069.txt.gz
Wind_Speed
31 32 35 37 38 38 37 35 34 33 33 34 34 35 36 35 34 35 36 32 27 26 25 25 26 26 30 36 37 35 37 38 35 34 36 39 39 35 31 31 30 29
30 31 35 37 37 36 36 36 35 33 32 32 32 31 32 33 32 34 35 31 28 27 25 25 27 29 31 36 40 39 39 38 35 36 37 38 38 34 32 32 30 28
28 31 34 35 35 35 35 35 34 33 32 33 33 31 30 30 32 35 36 32 30 28 27 26 28 31 32 35 39 40 39 37 35 36 36 36 35 34 33 32 29 27
26 29 31 32 34 34 34 34 33 33 33 34 34 32 30 30 33 36 35 31 31 29 27 26 27 30 34 37 38 38 38 36 34 35 35 34 35 34 33 32 29 28
25 27 28 29 31 33 33 33 34 34 34 34 33 31 31 32 33 34 31 29 31 30 27 27 27 30 35 38 39 38 38 36 34 34 34 34 35 34 34 33 30 29
24 25 25 25 27 30 32 33 33 34 34 34 33 32 33 34 32 32 30 29 31 30 27 26 27 30 35 38 39 38 37 35 34 35 35 34 34 34 33 33 31 29
24 23 22 23 25 28 31 33 33 34 35 35 34 34 35 33 31 30 29 29 31 31 29 27 27 31 36 38 40 38 35 35 34 34 34 34 34 34 33 32 30 27
22 21 21 22 24 26 30 32 34 35 37 36 36 36 36 32 29 29 30 30 30 31 31 28 27 31 36 38 40 37 34 35 34 32 33 34 34 34 33 32 29 26
22 21 21 22 24 26 29 31 33 34 35 36 36 36 35 32 31 31 32 30 29 31 33 30 28 31 35 38 40 38 35 34 33 32 33 34 34 34 33 30 28 25
22 22 21 21 24 27 28 30 32 33 33 34 35 35 35 34 33 33 32 30 29 31 33 32 30 31 33 36 38 37 36 35 33 32 33 34 35 34 31 29 27 25
22 22 22 22 24 26 27 29 31 32 34 35 35 35 35 34 33 33 32 31 30 31 33 33 32 31 32 35 36 35 35 35 33 32 34 35 34 32 29 27 26 24
22 23 23 23 24 26 26 28 29 30 33 35 34 34 34 33 32 32 32 30 30 30 31 33 33 31 31 34 35 33 34 34 33 32 33 33 32 30 28 27 25 24
24 24 23 23 23 24 26 27 28 28 30 31 31 31 31 31 30 29 28 28 28 29 31 32 34 32 30 32 33 32 32 33 33 33 33 32 31 29 28 27 25 24
25 25 24 23 22 23 25 27 27 27 27 29 29 30 30 29 28 26 25 26 27 29 29 29 30 29 27 28 30 31 32 33 33 33 33 32 30 29 28 27 26 25
26 25 24 24 23 23 25 27 27 27 27 28 29 29 29 29 27 25 24 25 27 27 26 25 26 26 25 25 28 31 33 34 33 32 32 32 31 31 30 27 25 24
27 26 25 24 24 23 24 25 27 27 28 29 30 28 27 28 28 26 24 25 28 27 25 24 24 24 24 24 27 30 33 34 34 33 33 33 33 33 30 27 25 24
28 27 26 25 25 24 23 24 26 27 27 29 30 29 28 28 27 26 25 26 29 28 26 24 24 23 23 25 27 30 33 35 34 34 34 35 34 32 29 27 26 24
29 28 26 26 26 25 23 23 25 27 28 28 29 29 28 28 28 27 26 27 29 30 27 25 25 25 25 26 29 32 34 35 35 34 34 34 32 30 28 27 26 23
30 29 27 26 26 25 23 22 25 28 29 29 28 28 27 26 28 28 26 25 28 30 30 28 27 27 27 28 30 33 35 35 34 33 33 32 30 29 28 27 25 23
31 30 28 26 25 25 24 22 24 27 29 28 27 26 25 24 24 24 23 23 24 27 30 30 29 28 28 28 29 33 35 34 33 32 31 30 30 29 28 26 24 22
31 30 28 26 25 25 24 22 22 24 26 26 25 24 22 21 21 21 20 20 22 24 28 29 27 27 27 27 29 32 35 34 33 31 29 28 28 27 26 25 23 22
30 29 28 26 25 24 24 21 20 21 23 24 23 23 21 20 19 19 18 20 22 23 24 25 24 25 26 26 28 32 34 34 32 31 29 27 27 26 25 24 23 22
29 28 26 24 23 23 22 21 19 18 20 21 22 20 19 18 18 19 19 20 22 22 22 22 22 24 25 24 27 31 34 34 33 31 29 27 27 26 26 24 23 22
27 26 23 21 21 21 20 19 18 17 18 19 19 18 18 19 19 19 19 19 20 20 19 20 21 22 22 23 26 30 33 33 32 31 29 27 27 27 26 25 23 21
24 22 20 19 19 19 18 18 18 17 16 16 17 18 19 19 19 18 17 16 16 16 17 18 19 20 21 22 25 28 30 30 30 29 28 28 27 27 25 23 22 23
21 19 18 17 16 16 17 17 18 18 17 17 17 17 16 16 15 14 13 12 12 13 14 15 18 20 20 19 21 24 26 28 28 28 28 27 26 25 24 24 25 27

ECMWFNIL_850_spd_072.txt.gz
Wind_Speed
24 25 27 28 30 31 32 34 35 33 31 31 32 33 33 32 32 32 33 35 36 34 31 30 30 30 31 31 29 27 26 26 29 32 34 38 44 47 46 44 41 40
20 22 24 26 27 29 30 32 33 32 31 31 31 31 29 31 33 33 35 38 37 34 33 32 32 33 33 32 29 28 27 25 26 30 35 41 47 48 45 43 42 39
17 19 21 23 25 26 28 30 31 31 30 29 30 31 31 33 34 33 34 38 38 37 36 34 33 35 35 31 30 30 29 26 26 29 32 37 44 46 45 44 42 38
15 17 18 21 23 25 26 28 29 30 30 29 30 31 32 33 32 31 31 33 36 36 35 33 34 36 35 31 29 29 28 26 26 28 32 35 40 44 46 44 41 38
14 16 17 18 21 22 24 26 28 28 29 30 30 30 31 31 31 32 30 30 31 32 32 33 34 36 34 31 28 27 26 27 28 30 33 36 38 42 45 43 41 39
14 15 16 17 18 19 21 23 25 26 27 29 29 30 32 31 31 32 32 30 30 30 31 32 35 36 33 30 28 27 28 30 31 33 36 38 38 41 43 43 40 38
14 15 16 17 17 17 19 21 23 24 25 27 29 30 31 31 31 32 33 32 31 31 30 31 35 36 31 29 28 27 29 32 33 36 39 39 38 39 40 38 36 34
15 16 17 17 18 18 19 20 22 23 24 26 28 30 31 31 32 33 33 32 31 31 30 30 34 34 31 28 27 28 30 31 33 37 39 37 36 37 36 33 32 31
15 16 17 18 18 19 20 21 22 22 24 26 28 30 31 32 33 34 33 32 30 31 31 31 32 32 29 28 28 29 29 30 33 37 39 37 36 35 33 32 31 30
16 17 18 19 19 20 21 22 22 22 23 26 27 29 30 31 32 33 34 32 31 31 31 31 30 29 28 29 30 30 29 30 33 36 38 37 34 32 31 30 30 31
17 18 19 21 21 21 21 22 22 22 23 25 27 29 30 31 32 34 35 34 32 32 31 30 30 29 30 30 30 30 30 31 32 35 36 33 30 29 28 28 29 30
18 19 20 21 22 22 21 22 23 22 23 24 26 28 30 32 34 34 35 34 34 32 30 30 30 30 29 29 29 29 30 31 32 32 32 29 26 26 26 26 28 29
19 19 20 22 23 23 22 23 23 23 23 23 25 27 29 31 33 33 33 34 33 31 30 31 31 30 29 28 29 29 29 31 31 30 29 26 24 26 26 26 27 28
22 21 22 23 24 24 23 24 24 24 23 23 25 27 29 30 31 32 33 33 32 30 31 32 31 29 28 28 28 28 29 30 30 28 27 25 24 25 27 26 26 26
25 24 24 25 25 25 24 24 25 25 23 24 25 27 29 30 31 33 32 31 31 31 30 29 26 25 26 26 26 27 28 29 28 26 25 24 24 26 27 26 27 27
29 28 27 27 26 26 25 24 25 25 24 24 25 27 28 29 29 29 28 28 29 29 28 26 24 23 23 23 25 26 26 26 25 25 24 24 24 27 28 28 28 28
31 31 30 29 28 27 26 25 25 25 24 24 24 25 26 26 26 25 25 26 27 27 26 24 23 22 22 22 22 22 22 22 23 23 23 22 24 27 30 30 30 28
32 32 32 31 29 29 28 26 25 25 25 24 24 24 24 25 26 26 25 25 25 25 25 23 21 22 23 22 21 20 20 21 21 21 21 22 25 29 31 32 30 28
31 33 33 32 30 29 28 26 25 25 26 24 23 24 25 25 26 27 25 23 23 23 24 23 21 23 24 23 22 22 22 21 20 20 21 23 26 29 31 31 30 29
31 32 32 32 30 30 29 27 25 25 25 24 23 23 24 25 25 26 26 24 22 22 23 23 22 23 25 25 24 23 22 21 20 20 22 24 27 30 31 30 29 27
29 30 30 31 31 31 30 27 25 25 25 24 23 23 24 24 24 25 25 23 22 22 22 22 21 22 24 24 24 23 22 20 20 22 24 26 28 30 29 28 26 25
28 28 29 30 31 32 30 27 25 24 25 24 23 22 24 25 24 24 23 21 20 20 20 19 19 19 21 22 23 23 21 20 21 23 26 27 28 28 27 25 24 24
27 27 28 30 31 31 29 25 23 24 24 23 21 21 23 24 23 22 21 19 18 18 18 18 18 18 18 20 21 22 22 21 23 25 27 27 27 27 26 25 25 24
26 26 27 28 29 28 25 22 22 23 22 19 17 18 20 21 20 19 18 18 17 17 17 16 17 17 17 18 19 20 21 22 25 27 28 27 27 28 27 27 26 25
25 24 25 26 25 23 21 20 21 21 20 17 16 17 18 18 18 17 18 17 17 16 16 16 16 16 16 17 18 19 21 23 26 29 29 28 29 29 29 28 27 24
23 23 23 23 21 20 19 19 20 20 19 17 17 17 17 17 17 17 17 16 15 15 15 15 15 15 16 16 18 19 20 22 25 29 29 29 29 29 29 28 26 23

ECMWFNIL_850_spd_075.txt.gz
Wind_Speed
16 17 18 20 22 23 24 26 27 29 30 31 31 32 30 29 30 32 37 41 43 43 43 44 45 45 44 41 39 40 38 35 33 30 29 30 30 32 34 36 39 42
12 13 14 16 18 20 21 23 24 26 27 27 28 29 29 28 28 29 33 37 41 42 41 41 42 40 39 40 40 40 37 33 31 28 28 29 29 30 32 34 37 41
10 10 11 13 15 16 18 20 22 23 24 24 25 26 27 27 27 28 29 32 35 36 36 36 35 34 35 39 40 37 33 31 29 29 30 30 30 29 30 31 35 39
8 8 10 11 13 14 16 18 21 22 22 23 24 24 25 25 25 27 28 28 30 31 32 32 32 33 36 39 37 33 32 32 31 30 31 32 31 31 31 31 34 36
7 8 9 11 12 13 14 16 18 20 21 22 23 24 25 24 25 26 27 28 29 31 32 32 32 34 36 37 37 34 33 33 32 31 32 32 32 32 32 32 32 35
7 9 10 11 13 14 15 15 16 18 20 21 22 23 24 24 25 26 27 29 31 31 31 32 34 35 34 34 35 33 32 33 33 33 33 32 32 33 33 30 29 33
10 10 12 13 14 15 16 16 16 17 18 20 21 22 23 25 25 25 27 28 29 30 30 30 33 35 35 34 33 32 32 33 35 36 33 32 32 33 32 30 30 33
12 12 13 15 16 17 17 18 18 18 18 19 20 21 22 23 25 25 25 26 28 30 30 29 31 33 35 34 33 32 32 34 37 37 33 31 32 32 31 31 33 36
14 15 15 17 17 18 19 19 20 19 19 20 20 20 21 22 24 25 25 27 29 31 30 30 30 30 32 33 33 32 31 34 36 34 31 31 31 30 29 31 34 37
16 16 17 18 18 19 19 20 21 20 21 21 21 21 21 21 23 24 25 27 30 31 31 31 31 30 31 33 33 31 31 32 32 31 31 31 30 28 28 29 33 35
17 17 17 18 19 20 21 21 21 21 22 23 23 22 21 21 23 25 26 28 30 31 32 33 32 32 33 33 32 31 30 30 29 28 29 30 28 27 27 29 32 34
18 18 18 19 21 22 23 23 23 23 23 24 24 23 22 22 23 25 27 28 30 31 32 33 33 33 32 30 30 30 29 29 28 27 28 29 28 28 29 30 31 32
19 19 19 21 22 24 25 26 26 25 25 25 25 25 24 23 24 26 27 28 29 30 32 32 33 33 31 29 29 29 28 28 28 28 29 29 28 29 30 29 29 28
21 20 21 22 24 27 28 30 29 28 26 26 26 26 26 24 24 25 26 27 29 30 31 31 32 33 32 30 29 29 28 27 28 29 29 27 28 29 28 27 25 24
25 24 24 24 26 29 31 33 32 31 28 27 28 28 27 25 24 25 26 27 29 31 32 33 33 33 32 31 31 31 30 29 29 30 28 27 27 28 26 24 23 22
29 28 27 28 29 31 34 35 35 33 30 28 29 29 28 26 25 26 26 27 29 31 32 32 32 32 31 30 31 32 32 31 31 29 27 27 28 26 25 23 22 22
30 31 32 33 33 33 35 36 36 34 32 29 29 30 29 27 26 27 27 28 29 30 31 31 31 30 29 29 30 30 30 29 28 26 26 26 26 24 23 23 23 23
31 33 35 37 36 35 36 37 37 36 33 31 30 30 29 28 27 28 28 29 30 31 31 31 29 28 28 30 30 29 28 26 25 25 25 24 23 22 21 22 24 25
32 35 36 38 37 36 36 38 37 36 35 33 30 30 29 28 27 27 28 29 29 29 28 27 26 27 29 30 30 29 26 25 24 24 23 22 21 20 20 22 25 27
33 35 36 37 36 36 37 38 37 36 36 34 31 29 30 29 27 26 25 26 26 26 26 26 26 27 29 30 29 27 24 24 24 23 22 20 19 19 20 22 26 30
32 33 33 34 34 35 36 37 36 36 36 34 31 29 29 28 26 25 24 25 26 27 28 27 26 25 27 29 28 26 24 25 25 24 23 21 19 19 20 23 28 32
31 32 33 33 34 35 36 36 36 36 35 33 30 28 28 28 26 25 25 26 27 28 28 27 25 24 26 28 28 26 26 26 26 25 23 22 21 22 23 26 31 35
31 31 32 32 33 33 35 35 35 35 33 31 28 27 28 28 26 25 25 26 27 27 28 27 25 25 25 27 28 28 27 27 26 24 23 22 22 23 24 28 33 36
28 29 30 30 31 32 33 33 33 33 32 29 27 26 26 26 25 25 25 26 26 26 26 26 25 24 25 25 26 26 27 26 25 24 23 23 23 23 24 29 34 36
27 28 29 29 30 30 30 31 31 30 29 26 25 25 24 24 24 24 25 26 26 25 24 24 23 22 22 23 22 22 23 23 24 24 24 25 25 26 28 32 36 36
25 26 27 27 27 27 27 28 28 27 26 25 25 24 23 23 22 23 24 25 24 24 23 22 21 21 21 21 20 20 21 22 24 25 26 27 28 29 33 36 38 37

ECMWFNIL_850_spd_078.txt.gz
Wind_Speed
19 20 20 20 21 22 23 24 25 26 27 28 29 29 30 30 30 30 31 32 34 35 38 40 42 44 47 45 39 42 48 49 49 46 40 35 36 42 45 47 51 52
18 18 19 19 19 19 20 21 21 22 23 23 24 25 26 27 28 28 29 29 31 32 33 38 44 45 47 47 43 43 46 47 48 46 39 36 40 46 48 48 48 45
18 18 17 17 16 16 17 17 19 19 19 20 21 22 24 25 26 27 28 28 29 31 31 35 42 47 48 47 43 43 44 47 48 45 41 43 46 49 49 45 41 39
16 16 16 16 15 15 15 16 16 16 17 18 19 21 22 24 25 26 27 28 28 29 30 32 38 44 48 47 46 45 45 47 48 46 47 51 51 51 49 42 37 36
16 16 16 16 15 15 15 15 14 15 16 17 18 20 22 23 24 25 26 27 27 27 29 31 33 38 44 47 47 46 45 46 47 47 50 52 50 49 47 39 35 34
17 17 17 16 16 15 15 14 14 15 16 17 18 20 22 23 24 26 27 27 27 27 27 27 27 30 35 40 43 44 42 41 42 44 47 47 45 47 45 38 35 34
18 18 18 17 16 16 15 14 15 16 17 18 20 21 22 23 25 27 28 27 26 27 27 26 25 26 29 33 37 39 38 38 39 41 43 43 42 42 41 37 35 35
20 19 19 18 17 17 16 15 17 18 19 20 22 23 24 24 25 27 28 28 27 27 27 28 28 28 29 32 35 37 37 38 39 39 40 41 39 38 38 38 37 37
22 21 19 19 18 17 17 18 19 20 21 23 24 25 26 27 27 27 27 28 28 27 27 29 30 31 32 33 34 35 35 37 38 38 37 38 38 37 37 38 39 39
24 22 21 21 20 20 19 20 21 23 24 25 26 27 28 28 28 28 28 28 29 29 28 29 30 31 32 34 34 34 34 36 37 37 35 34 34 33 34 36 38 39
26 24 24 24 23 22 22 22 23 25 26 27 27 28 29 30 30 29 29 29 29 29 29 29 29 30 31 34 35 35 34 35 36 37 36 35 34 33 33 35 36 37
30 28 27 26 25 24 23 23 25 27 28 29 29 29 30 31 32 32 31 29 29 28 29 29 29 30 32 33 34 34 33 33 34 35 35 35 35 34 34 34 34 34
34 33 31 30 28 26 25 25 27 29 30 31 31 31 31 32 33 33 32 31 29 29 29 29 29 30 31 32 33 34 34 32 32 32 33 34 35 35 34 34 32 32
30 33 35 35 33 31 30 29 29 30 31 32 33 33 33 33 33 33 33 32 31 30 29 29 30 31 32 32 33 34 34 33 33 32 32 33 34 34 34 33 32 32
25 28 31 35 36 36 35 35 34 33 33 33 34 35 34 33 33 33 34 34 33 31 30 30 31 32 32 32 33 34 35 34 33 32 32 33 33 32 33 33 33 32
26 28 30 33 36 38 39 39 39 38 37 35 35 35 35 34 34 34 35 35 34 33 32 32 32 32 32 32 32 33 34 34 34 33 32 31 30 30 31 32 33 32
29 30 32 33 36 38 40 40 40 39 38 37 36 36 36 35 35 35 35 35 34 33 32 32 32 32 31 31 32 32 32 33 33 33 33 33 31 31 32 32 32 31
29 30 32 32 33 35 36 38 38 39 39 38 37 36 36 36 36 35 35 35 35 34 33 32 32 30 29 30 31 32 33 33 33 33 34 34 34 34 34 34 33 31
29 30 31 31 31 31 33 35 37 39 39 39 38 37 36 37 36 35 35 35 35 34 33 32 30 28 28 30 32 33 33 34 34 34 33 33 33 34 34 33 31 29
29 30 31 31 31 32 34 36 37 39 40 40 39 38 38 37 36 35 35 35 34 34 33 31 29 28 28 30 32 32 33 33 34 33 32 32 33 32 31 30 29 27
29 31 32 32 32 33 35 36 38 39 40 39 39 39 38 37 36 35 34 33 33 32 32 31 29 28 29 31 32 32 32 32 32 32 33 34 33 31 29 27 26 25
29 30 31 32 33 34 35 36 37 38 38 39 39 39 38 37 35 34 33 32 32 32 32 30 27 26 27 29 30 31 31 32 33 34 34 34 32 29 27 25 24 24
28 29 30 32 33 34 36 36 36 36 37 37 37 37 37 36 34 33 31 31 31 31 31 29 26 25 26 28 30 30 31 33 34 34 34 33 30 28 26 25 25 25
28 29 30 31 32 33 34 34 34 35 35 34 35 35 35 33 32 30 30 29 30 30 29 28 26 26 28 29 29 29 30 31 33 33 33 31 29 28 26 26 26 24
30 29 29 29 30 30 31 32 33 33 33 33 33 33 32 31 30 29 29 29 29 29 28 27 26 27 28 29 28 29 29 30 31 32 32 30 30 28 27 27 26 25
31 31 30 30 30 30 30 31 32 32 32 33 33 32 32 31 30 29 29 28 28 29 29 28 27 28 29 29 30 31 31 30 30 30 30 30 30 29 29 29 28 27

ECMWFNIL_850_spd_081.txt.gz
Wind_Speed
23 23 23 23 24 24 24 24 24 24 25 25 25 25 25 26 26 27 29 30 31 33 34 36 37 39 40 42 43 46 48 50 50 50 50 50 52 52 52 53 54 56
22 22 22 22 23 23 22 22 22 22 22 23 23 23 23 24 25 26 27 28 29 31 32 34 36 38 39 41 42 44 45 46 48 49 49 52 54 49 46 51 53 55
22 22 22 22 22 21 21 20 21 21 21 21 21 21 21 22 23 24 25 27 27 29 30 32 35 37 39 41 42 42 42 43 45 48 51 56 57 49 42 46 50 53
22 23 22 22 21 20 20 20 20 21 20 20 19 20 21 21 23 23 24 25 26 27 29 30 33 35 37 40 41 41 41 41 43 45 47 51 53 50 46 47 47 48
23 24 22 21 21 20 20 20 20 20 20 19 19 20 21 21 22 23 23 24 25 26 27 29 31 32 34 37 39 41 41 41 44 45 46 47 48 50 51 50 46 43
24 24 23 22 22 21 21 21 21 21 20 20 21 21 21 21 22 22 22 23 24 26 27 29 30 31 32 34 36 38 40 41 44 46 47 47 46 46 46 44 44 44
24 24 23 23 23 23 23 23 23 23 22 22 22 22 22 22 21 22 23 24 26 27 28 29 30 31 32 33 34 35 36 37 41 46 48 47 45 44 42 43 45 47
26 26 25 25 24 24 25 25 25 25 24 24 24 22 23 23 22 23 25 26 28 29 29 30 32 33 33 33 34 34 33 32 34 41 47 48 48 48 48 48 47 47
26 26 26 27 26 26 28 28 28 27 26 26 24 23 24 24 25 26 27 29 30 30 31 32 33 33 33 33 34 34 33 31 30 33 38 42 45 48 49 47 45 44
23 25 27 28 27 28 29 30 31 30 29 28 26 25 25 26 27 28 29 31 32 33 33 33 33 33 32 33 33 34 33 32 32 33 34 37 40 43 44 43 43 44
20 22 25 27 28 28 29 31 31 31 31 30 29 29 28 29 30 31 32 32 33 34 35 34 34 33 33 33 33 33 34 33 34 35 36 36 38 39 40 41 42 42
20 21 23 25 26 27 28 30 31 31 31 32 33 33 33 33 33 33 33 34 35 35 36 36 34 33 34 33 32 33 34 34 35 36 37 38 37 37 37 39 41 40
22 22 22 23 24 25 27 29 31 32 33 34 35 36 37 37 37 36 36 35 36 36 37 37 36 35 35 34 33 33 34 35 35 36 37 37 38 37 38 39 41 41
23 23 23 24 24 25 27 29 31 33 35 37 38 39 40 40 40 39 38 37 36 37 38 38 38 38 37 35 34 34 34 35 36 36 36 36 37 37 37 36 38 39
24 24 25 26 27 27 28 29 30 32 34 36 39 40 41 41 41 40 39 38 37 37 38 40 40 40 38 36 35 35 34 34 35 36 36 36 36 37 36 36 35 35
25 26 26 27 28 29 30 31 31 32 33 34 36 38 39 40 39 40 39 39 39 38 39 41 41 40 40 37 36 35 34 34 34 34 34 35 36 37 37 36 35 34
28 29 29 30 30 30 31 32 33 33 33 33 34 35 36 36 36 37 38 39 39 39 40 41 41 40 39 38 36 35 34 34 34 34 35 35 36 36 37 37 35 34
29 30 31 32 32 32 33 33 34 35 34 34 34 34 34 35 36 37 37 37 39 40 41 41 40 39 39 38 36 35 34 33 33 34 35 36 37 38 38 37 36 35
31 33 34 33 33 34 35 35 35 36 36 35 35 35 36 37 38 38 38 38 38 39 40 40 39 38 37 37 36 34 33 33 33 34 36 37 38 36 34 34 34 35
34 35 36 36 34 34 35 35 36 36 36 36 36 37 37 38 38 38 38 38 38 38 38 38 38 37 36 36 35 33 32 31 33 34 36 37 37 36 35 36 35 35
35 36 37 37 35 34 34 34 34 35 35 35 36 36 37 38 38 38 38 38 38 37 37 38 37 35 34 35 35 33 30 29 31 34 36 37 37 37 36 36 35 36
36 37 38 37 36 35 34 33 32 33 33 33 34 35 36 36 37 37 37 37 36 35 36 37 36 33 33 34 34 31 29 29 32 35 36 37 37 36 36 36 36 37
35 37 37 38 37 37 37 35 33 33 32 32 33 34 34 35 35 36 36 36 35 35 35 35 34 32 31 32 32 29 28 30 33 35 36 37 37 36 37 37 37 37
35 36 37 38 38 38 38 37 36 35 34 34 35 36 36 35 35 36 36 36 36 35 34 34 33 31 29 30 29 27 27 30 32 34 36 37 37 37 38 38 37 36
36 37 38 39 39 39 39 39 38 38 37 37 37 37 37 37 37 37 37 36 35 35 33 33 32 31 29 29 28 27 28 31 33 34 36 37 37 37 37 37 37 35
36 38 39 40 40 40 40 40 40 40 39 38 38 38 37 38 38 37 37 37 35 34 33 32 31 30 29 28 28 28 29 32 34 34 35 36 35 35 36 37 37 35

ECMWFNIL_850_spd_084.txt.gz
Wind_Speed
20 21 21 22 23 24 24 24 24 24 24 24 23 23 22 22 21 22 22 22 23 24 25 27 28 28 30 32 35 37 40 42 44 46 47 48 50 50 50 50 50 49
21 22 22 23 24 24 25 24 24 24 24 23 22 21 21 21 20 21 22 22 23 24 25 26 28 29 30 31 33 35 38 42 44 46 46 47 48 49 49 48 49 51
20 21 22 23 24 25 25 25 25 25 24 22 21 20 20 20 20 21 21 22 22 23 24 25 27 29 30 31 33 35 37 39 41 42 43 44 46 48 49 49 50 51
21 20 21 22 24 24 25 26 26 25 24 23 21 20 20 20 20 20 20 21 22 23 23 25 26 27 29 30 32 34 35 37 39 40 42 45 46 48 49 48 48 47
23 22 21 21 23 24 25 26 26 25 25 23 22 21 20 20 21 21 21 22 23 23 24 24 25 26 28 29 31 32 33 35 37 39 41 44 44 45 45 43 43 42
23 24 24 22 22 24 25 26 25 25 24 24 23 22 21 22 22 22 23 24 24 25 25 25 26 27 27 29 30 31 32 34 35 35 38 39 40 40 41 41 41 41
23 24 24 23 22 22 24 24 23 24 24 24 24 23 23 24 25 25 26 27 27 27 26 27 27 27 28 29 30 31 32 33 34 33 35 36 36 37 37 37 39 42
24 24 25 25 23 21 21 21 21 22 23 24 24 23 24 26 27 29 30 31 31 30 29 28 28 28 29 30 31 32 33 34 34 34 34 35 36 36 35 34 36 39
24 24 25 25 23 21 20 20 20 21 22 23 23 23 25 27 29 31 32 34 34 33 32 31 30 30 30 31 32 33 34 34 34 34 34 35 36 36 34 33 33 35
22 22 24 24 24 23 21 20 21 22 23 24 24 24 26 27 29 31 33 35 35 34 34 33 33 33 33 33 33 34 35 35 35 35 35 35 36 36 35 33 33 34
20 21 22 23 24 24 24 22 22 22 23 25 26 26 28 28 30 32 33 35 35 35 35 35 35 35 36 35 35 35 35 36 36 37 37 36 36 36 35 34 34 35
18 19 20 21 22 23 24 24 24 24 25 26 27 28 29 30 31 33 34 35 36 36 36 37 36 36 36 36 36 36 36 36 37 38 37 37 36 36 36 36 36 36
17 18 19 20 21 22 23 24 25 26 27 28 29 30 31 31 32 34 35 36 37 38 38 38 37 37 36 36 36 36 36 36 37 38 38 38 37 37 37 37 37 37
17 18 19 20 21 22 23 24 25 26 28 29 30 32 33 33 34 35 36 37 37 38 38 37 37 37 36 35 35 36 36 37 38 39 39 39 38 37 37 37 37 37
19 20 21 22 23 24 25 26 27 27 28 29 30 32 34 35 35 36 37 37 37 37 36 36 36 36 34 34 35 35 36 37 38 39 40 40 39 38 37 36 37 37
23 24 24 25 26 27 28 29 29 29 29 30 30 31 33 34 35 36 37 38 38 37 35 34 34 33 32 32 33 34 35 37 38 40 40 40 39 39 37 36 36 37
27 27 28 29 29 30 31 32 32 32 32 32 31 32 32 33 34 35 36 37 38 38 37 36 35 32 30 30 31 32 35 36 38 39 40 39 39 39 38 36 35 35
30 30 31 31 32 32 33 33 34 34 34 34 33 33 34 34 34 34 35 35 36 38 38 38 36 34 31 30 30 31 33 35 37 38 39 39 40 39 38 36 35 34
31 32 33 33 33 33 34 34 34 35 35 35 35 35 35 35 35 35 35 35 35 36 37 37 37 35 33 31 31 31 31 33 36 38 39 39 39 38 37 35 34 33
31 32 32 33 33 34 34 35 35 35 35 36 37 37 37 36 36 36 35 35 35 35 36 37 37 36 34 32 32 31 31 32 35 37 39 40 39 38 36 34 33 33
30 31 32 33 34 35 35 36 36 37 37 37 38 39 39 39 39 38 37 37 36 36 37 37 37 36 35 33 32 31 30 31 34 37 39 40 39 37 35 34 32 32
31 32 34 34 35 36 37 38 38 39 39 39 39 40 40 41 41 41 41 40 39 39 39 39 38 36 35 34 32 31 30 31 34 36 38 39 38 36 34 32 31 32
31 33 34 36 36 37 38 39 40 41 41 41 41 41 40 41 41 42 42 42 41 40 40 40 39 37 35 34 32 31 30 32 34 35 37 38 37 34 32 31 31 32
31 33 34 35 36 37 38 39 40 41 41 41 41 41 41 40 41 42 42 42 41 40 39 39 39 37 34 33 32 30 30 31 33 34 35 36 35 33 31 30 31 32
33 34 35 36 36 37 37 38 39 39 40 41 41 41 41 41 41 42 42 42 41 40 39 38 38 36 34 33 31 30 29 31 32 33 35 35 34 33 32 31 32 32
35 36 37 37 38 38 38 38 39 39 40 40 41 42 43 43 43 43 43 43 42 42 41 39 37 36 33 31 30 29 29 30 31 33 34 34 34 33 32 32 32 33

ECMWFNIL_850_spd_087.txt.gz
Wind_Speed
13 13 14 14 15 16 17 18 18 19 20 21 22 22 22 22 21 22 23 23 23 24 25 25 26 27 28 29 31 32 32 32 32 33 34 37 39 39 40 41 40 40
15 16 17 18 18 18 18 19 20 20 20 20 21 22 22 22 22 23 23 24 24 24 24 25 26 26 28 28 29 30 31 31 32 34 37 39 39 39 40 41 40 41
17 18 19 20 20 20 19 19 20 20 20 20 20 20 20 21 22 23 23 24 24 24 24 24 25 26 27 28 29 30 31 32 33 34 37 38 39 41 42 43 44 45
17 18 19 20 20 20 20 20 19 19 19 19 18 18 19 20 20 21 23 24 24 24 24 24 25 26 27 28 29 30 31 32 33 34 36 37 38 40 41 42 44 45
17 18 18 18 19 20 20 20 19 18 18 18 17 17 18 19 19 20 21 22 22 23 23 23 24 25 26 27 29 30 31 32 33 34 36 36 36 38 38 39 41 42
18 18 18 18 18 18 19 20 19 19 19 19 18 17 18 18 19 19 20 21 21 22 22 23 24 25 26 27 29 31 32 32 33 34 35 35 35 35 35 36 38 39
18 17 17 17 18 18 18 19 19 19 19 20 20 19 19 19 19 19 20 21 22 22 23 23 25 26 27 28 30 31 32 33 34 34 35 35 34 34 33 33 35 36
15 15 16 16 16 17 17 18 18 18 18 19 19 19 20 20 20 20 21 22 23 23 24 25 26 27 28 29 31 32 34 34 34 35 35 35 35 34 33 33 34 35
14 15 15 15 16 16 16 17 18 18 18 19 19 19 20 20 21 21 22 24 25 26 27 27 28 29 29 31 32 33 35 35 35 35 36 36 36 36 35 34 34 35
14 14 14 14 15 16 17 17 18 19 20 20 20 20 20 21 21 22 23 25 26 27 28 29 30 31 31 33 34 35 36 36 36 36 37 37 37 36 36 35 36 36
11 12 12 13 14 15 16 18 19 20 21 22 23 23 23 23 23 24 24 25 26 27 28 29 30 31 32 33 34 35 36 37 38 38 38 38 38 37 36 36 36 36
10 11 11 12 14 15 17 19 20 21 22 23 24 24 25 25 26 26 27 27 28 28 29 29 30 31 31 32 32 33 35 37 38 39 39 39 38 37 36 36 36 37
11 12 14 15 16 18 19 20 22 23 24 24 25 25 26 26 27 28 28 29 30 30 30 31 31 31 31 31 31 31 32 34 36 38 39 39 38 37 37 36 36 37
13 15 16 18 19 20 21 22 23 23 24 25 25 26 26 27 27 27 27 28 29 31 31 32 33 33 32 31 31 31 31 32 33 35 37 37 38 37 37 37 37 37
15 17 18 19 20 20 21 22 22 23 23 24 25 26 26 26 26 26 27 27 28 29 30 31 32 33 32 31 31 31 31 32 33 34 36 37 37 38 38 38 38 38
16 17 17 18 19 19 20 21 22 23 24 24 25 25 26 26 26 27 27 28 28 28 29 30 31 31 32 31 31 31 31 32 33 34 35 36 37 38 39 39 39 38
17 17 18 19 19 20 22 23 24 25 26 27 27 27 28 27 27 28 28 28 29 30 30 31 31 31 32 32 32 32 32 33 33 34 35 36 37 38 39 40 39 39
18 19 20 21 22 23 25 26 27 28 29 30 30 30 31 31 31 30 29 29 30 31 31 31 31 31 32 32 33 33 33 34 35 35 35 36 37 37 38 39 40 40
20 20 22 23 25 27 28 30 31 32 33 33 34 33 34 34 34 34 33 33 32 32 33 32 32 32 32 33 33 33 33 34 35 37 37 38 38 38 38 39 39 40
21 23 24 26 27 29 31 33 34 34 34 35 35 35 35 35 36 36 36 36 36 36 36 35 34 33 34 34 34 34 34 34 36 37 38 39 39 39 39 39 39 39
24 25 27 29 30 33 35 36 36 36 36 36 37 37 37 37 37 37 37 37 38 39 39 39 37 36 35 35 35 35 35 35 36 37 38 39 39 39 39 39 39 38
28 29 31 33 35 37 38 39 39 39 39 39 40 40 40 40 39 40 40 39 40 40 41 42 41 38 37 37 36 35 35 36 36 36 37 38 38 38 39 39 38 37
31 33 35 36 38 39 40 40 40 40 40 41 42 42 42 42 42 42 42 42 42 42 42 43 43 41 40 39 37 36 35 36 36 36 37 38 38 38 38 38 38 36
33 34 36 37 38 38 38 39 39 40 40 41 42 44 44 44 45 45 44 44 44 44 44 45 45 43 42 41 40 38 35 35 35 36 37 38 38 38 38 37 37 35
31 33 34 35 36 36 37 38 38 39 40 40 41 43 44 45 45 46 46 46 45 45 45 46 46 45 43 42 42 40 38 36 35 36 38 38 38 38 38 37 36 35
29 30 32 32 34 35 36 37 38 39 40 41 41 42 43 44 45 45 47 47 46 46 46 46 46 45 44 42 42 41 39 37 36 36 37 37 37 37 37 37 36 34

ECMWFNIL_850_spd_093.txt.gz
Wind_Speed
3 1 1 2 4 5 6 7 8 9 10 11 12 12 13 14 15 17 18 19 20 21 23 24 25 27 27 29 29 29 30 31 34 36 37 38 39 40 40 41 41 40
1 2 3 4 5 6 7 8 9 9 10 11 12 12 13 14 15 16 17 18 19 20 21 23 24 25 26 27 28 28 29 31 33 34 36 37 37 39 40 40 39 39
2 3 4 5 6 7 8 9 9 10 11 11 12 12 12 13 14 14 15 16 17 17 19 20 22 23 24 25 26 27 28 29 30 30 32 33 34 35 37 37 38 38
3 4 5 6 7 7 8 8 9 9 10 10 11 11 11 12 12 13 14 14 15 15 16 17 19 21 22 23 24 26 27 28 29 29 30 31 31 33 33 34 36 37
5 5 6 6 7 7 7 7 7 7 8 8 8 9 10 11 12 12 13 14 14 14 14 15 16 17 19 21 22 24 25 26 27 28 30 30 30 31 32 33 34 35
5 5 6 6 6 6 6 5 5 5 5 6 7 8 10 11 12 13 13 14 15 15 15 15 16 16 17 18 19 21 22 24 25 27 28 30 30 30 31 32 34 35
4 4 4 4 4 3 3 3 3 4 5 7 8 9 10 11 12 13 14 15 15 16 17 17 18 18 18 19 19 20 21 22 23 24 26 27 28 29 30 31 34 35
3 3 3 2 2 1 1 1 3 4 6 7 9 10 11 12 13 14 14 15 16 17 18 18 19 20 20 21 22 22 22 22 23 24 25 26 27 28 28 30 32 34
3 2 2 1 1 1 1 3 4 6 7 9 10 11 12 13 14 15 15 16 17 17 18 19 19 20 21 22 23 24 25 25 25 26 27 27 28 28 28 29 30 32
3 2 2 2 1 2 3 5 6 8 9 10 10 11 12 13 14 15 16 17 17 18 19 20 20 21 21 22 23 24 26 26 26 28 28 29 30 30 30 30 31 32
3 2 2 2 3 4 5 7 8 8 9 10 11 12 13 14 15 17 17 18 19 20 20 21 22 22 23 23 24 25 26 27 27 28 29 30 31 31 32 32 33 34
2 2 3 4 5 6 7 7 8 9 9 11 12 13 15 17 18 19 20 21 22 23 23 23 24 25 25 26 27 28 29 30 30 31 31 32 33 33 34 34 35 35
2 3 4 5 6 6 7 8 8 10 11 12 14 16 18 20 22 23 24 24 25 25 25 26 26 26 28 28 29 30 31 32 33 33 34 35 35 36 36 37 38 38
3 4 4 5 6 6 7 8 10 11 13 15 17 19 21 23 24 24 24 24 25 25 25 26 26 27 28 29 30 32 33 34 35 35 36 37 37 38 38 38 39 39
3 4 5 6 7 8 9 11 12 14 16 18 20 22 23 24 23 23 23 24 24 25 26 26 27 28 29 30 31 33 34 36 36 37 37 38 39 39 39 39 39 40
4 5 6 7 9 11 12 14 16 18 19 21 22 23 23 23 23 23 24 25 26 27 27 28 29 30 31 32 33 34 36 38 39 39 39 39 40 41 41 40 40 40
5 7 8 10 12 13 15 17 19 20 21 22 23 23 23 23 24 25 26 28 29 30 30 30 31 32 33 34 35 36 38 40 42 42 42 42 42 43 44 43 42 41
7 9 11 13 15 16 18 19 21 21 22 23 23 23 24 25 27 28 29 30 31 32 33 34 34 34 35 36 37 37 38 41 43 45 45 46 46 46 46 46 45 44
11 13 15 16 18 19 20 21 22 23 24 25 25 26 27 28 29 31 32 32 34 35 36 36 36 37 37 38 39 40 40 42 44 46 47 48 48 48 48 48 48 47
14 16 17 18 19 20 21 22 23 25 26 27 28 29 30 31 31 32 33 34 35 36 37 38 38 38 39 40 41 41 42 43 45 46 48 49 50 50 50 50 50 49
15 16 17 19 20 21 22 24 25 26 28 29 30 31 32 32 33 34 35 35 36 38 39 40 40 40 40 41 42 43 44 45 46 48 49 50 51 51 51 52 51 51
16 18 19 21 22 24 25 26 27 28 29 30 31 32 33 34 35 36 37 37 38 39 41 42 42 42 42 43 44 45 45 47 48 49 50 51 53 53 52 52 52 51
18 20 21 23 24 25 26 27 28 29 30 31 33 34 34 35 36 37 38 39 40 41 42 44 44 44 44 45 45 46 47 48 49 50 51 52 53 53 53 54 53 52
20 22 23 24 25 26 27 28 29 30 31 32 33 35 36 37 38 39 40 41 42 42 44 46 47 46 47 48 48 49 50 51 51 52 53 53 54 54 54 54 54 53
22 23 24 25 26 27 27 28 29 30 32 33 34 36 38 39 40 42 43 43 44 44 45 47 48 49 48 49 49 50 51 52 52 53 55 55 55 56 56 56 55 55
22 23 24 25 26 27 28 29 30 32 33 34 36 37 39 40 41 43 44 45 45 46 46 47 48 49 49 49 49 48 49 50 51 52 54 55 55 56 58 58 58 56

ECMWFNIL_850_spd_096.txt.gz
Wind_Speed
8 6 5 3 1 0 2 3 4 5 5 6 6 7 8 9 9 10 10 10 11 12 12 13 14 15 15 16 17 19 20 22 23 25 26 28 29 30 31 33 34 35
6 5 3 2 2 2 3 4 5 5 6 6 7 7 7 8 8 9 10 10 11 11 12 13 14 14 15 15 16 16 18 19 20 21 23 25 26 28 30 32 33 33
5 4 3 2 2 3 3 4 4 5 5 6 6 6 6 7 8 9 9 10 11 12 13 13 14 15 16 16 17 17 18 19 19 20 21 23 24 26 27 28 30 30
4 2 2 2 2 3 3 4 4 4 4 4 4 5 6 7 8 9 10 11 12 12 13 14 15 16 16 17 18 18 19 19 20 20 21 22 22 24 25 26 28 29
3 2 1 1 2 2 3 3 2 2 2 2 3 4 5 7 8 9 10 11 12 13 14 15 16 17 18 18 18 19 19 19 19 20 21 22 22 23 24 25 26 27
2 2 1 1 1 1 1 1 0 0 1 2 3 4 6 7 8 10 11 12 13 13 14 15 16 17 18 19 19 20 20 21 21 21 22 22 22 23 23 24 26 26
3 2 1 1 1 1 1 1 1 0 1 3 4 5 6 7 8 10 10 11 12 13 14 14 15 16 17 18 19 20 21 22 22 23 23 24 24 24 25 25 27 27
3 3 2 2 2 3 3 2 1 1 2 4 5 6 7 7 8 9 10 11 12 13 14 15 16 17 18 19 20 21 21 22 23 24 25 26 26 26 27 27 29 29
4 4 4 4 4 4 3 2 1 2 3 4 5 5 6 7 8 10 11 13 14 15 17 17 18 20 21 22 23 23 24 24 25 26 27 28 29 29 30 30 32 32
5 4 4 4 4 4 3 2 1 2 2 3 4 5 7 8 10 13 14 16 17 17 19 20 21 22 22 24 25 26 27 27 28 29 29 31 32 32 33 33 34 35
5 5 5 5 4 4 3 2 1 0 1 3 5 7 9 12 14 16 17 18 19 19 20 21 22 24 24 25 27 28 29 29 30 31 31 32 33 33 34 35 36 36
6 6 6 5 4 4 3 3 1 1 3 6 8 10 13 14 16 18 19 20 20 21 21 22 23 25 26 27 27 28 29 30 31 31 32 33 34 34 35 36 37 38
8 7 6 5 4 3 2 1 1 4 6 9 11 13 15 17 18 20 20 20 21 21 22 22 23 24 25 26 27 29 30 31 31 32 33 34 34 35 36 37 38 38
8 6 5 4 2 1 1 2 4 7 9 12 14 16 18 19 20 20 19 19 20 21 21 22 23 24 26 27 28 30 31 32 33 34 35 36 36 37 38 38 39 40
7 5 4 2 1 3 4 6 7 10 12 14 16 17 18 19 19 19 19 19 20 20 21 22 23 25 26 28 30 32 33 34 35 36 38 39 40 40 41 41 41 42
5 3 1 1 3 5 7 9 10 12 13 15 16 16 17 17 17 18 19 20 21 22 23 23 25 26 28 29 31 33 35 36 38 39 40 42 43 44 45 45 45 46
4 2 2 3 6 8 9 10 11 12 13 14 15 16 16 17 18 20 21 23 24 25 26 26 27 28 29 31 32 34 36 38 40 42 43 44 46 47 48 49 50 50
3 3 4 5 7 9 10 11 12 13 14 15 16 17 18 19 21 22 24 25 26 27 28 29 29 30 31 32 34 35 38 40 42 44 46 47 48 50 51 53 54 55
3 3 4 6 8 9 11 12 13 15 16 17 18 19 21 22 23 24 26 27 28 30 30 31 32 33 34 35 37 39 40 42 45 46 48 50 51 52 54 55 56 57
3 4 5 7 9 10 12 13 15 16 18 19 20 21 23 24 25 26 27 28 30 32 33 34 34 35 37 38 39 41 42 44 46 48 50 51 53 54 55 56 57 58
3 4 6 8 10 11 13 15 16 18 19 21 22 23 25 26 27 28 29 30 32 33 35 36 36 37 38 39 41 42 44 45 47 49 50 52 53 54 54 55 56 56
4 6 8 9 11 13 15 16 18 19 21 22 23 24 26 27 28 30 31 32 33 35 37 38 38 38 39 40 41 43 44 46 48 49 51 52 53 54 54 55 56 56
6 8 9 11 13 14 16 17 19 20 22 23 25 26 27 28 30 31 32 34 35 36 38 39 40 40 40 41 42 43 45 47 48 50 52 53 54 55 56 57 57 57
7 9 11 12 14 15 16 18 19 21 22 24 26 27 28 30 31 32 33 34 35 37 38 40 41 41 42 42 43 44 45 47 49 51 52 54 55 56 57 58 58 58
8 10 11 12 14 15 17 19 20 22 23 24 26 28 29 31 32 34 35 35 36 37 38 40 42 42 43 44 44 44 45 47 49 51 53 55 56 57 59 60 60 60
9 10 12 13 15 16 18 20 21 22 24 25 27 28 30 31 32 34 36 36 37 38 39 40 42 44 45 46 46 46 46 48 49 52 54 56 57 59 61 62 62 62

ECMWFNIL_850_spd_102.txt.gz
Wind_Speed
23 23 23 22 20 17 14 13 12 12 11 9 8 7 6 6 6 5 4 3 2 1 0 1 2 3 4 5 5 6 6 7 8 8 9 9 10 10 10 11 12 13
22 21 20 19 17 15 14 14 13 12 10 9 7 7 6 6 5 4 4 3 1 0 1 2 3 3 4 5 6 7 7 8 9 10 10 11 12 12 12 12 13 13
20 18 18 17 16 16 15 14 13 11 10 9 8 7 7 7 6 5 4 2 1 1 1 1 2 3 4 6 7 8 9 10 11 11 12 13 13 13 13 14 14 15
19 18 18 18 17 16 14 13 11 10 10 9 9 8 8 7 6 5 3 2 2 1 0 1 2 4 5 7 8 9 10 11 12 13 14 14 14 14 14 14 15 16
20 20 19 18 16 15 13 12 11 10 10 10 10 9 8 7 6 5 4 3 2 1 1 2 3 4 6 8 9 10 12 12 12 13 13 14 14 14 15 15 16 17
21 19 18 16 15 14 13 12 12 11 11 11 11 10 8 7 6 4 3 2 1 2 3 3 4 5 7 8 9 10 11 11 12 12 13 14 14 15 16 17 18 19
19 18 17 16 15 15 13 13 12 12 12 11 10 9 8 6 5 4 3 3 2 3 4 4 6 7 7 8 9 10 10 11 12 12 13 14 15 17 18 19 21 21
18 17 17 16 15 14 13 13 13 13 12 11 10 9 7 6 5 5 4 3 3 4 5 6 7 7 8 9 10 10 11 12 13 14 15 16 17 19 20 21 23 24
18 17 16 15 14 14 14 14 14 13 12 11 10 8 7 6 6 5 4 4 4 5 6 7 8 8 9 10 10 11 12 13 15 16 17 18 19 20 22 22 24 25
17 16 16 15 15 15 15 15 14 13 12 11 10 9 7 6 6 4 4 5 5 6 7 8 9 9 10 11 11 12 13 14 16 17 18 19 20 21 23 24 25 26
17 17 16 16 16 16 16 15 15 13 13 11 10 9 7 6 5 5 5 5 6 6 7 8 9 10 11 12 12 13 15 15 16 18 19 20 21 22 23 24 25 26
18 18 17 17 17 17 16 16 15 13 12 11 10 8 7 6 5 5 5 6 6 7 7 8 9 11 12 12 14 14 15 17 18 19 20 21 22 23 23 24 25 26
19 19 18 18 17 17 16 16 14 13 12 10 9 7 6 6 6 6 6 6 6 7 8 9 10 11 13 13 15 16 17 18 19 20 21 22 22 23 23 24 26 27
20 19 19 18 18 17 16 15 14 12 11 9 8 7 7 7 6 6 5 6 6 7 8 10 11 12 14 15 16 18 19 20 21 23 23 23 23 23 24 25 27 29
20 20 19 19 18 17 16 15 13 11 10 9 8 8 7 6 6 5 5 6 7 8 9 10 12 13 15 17 19 20 21 22 23 24 25 25 25 26 26 28 29 31
21 20 20 20 19 17 16 14 12 11 10 10 9 8 7 6 5 5 5 6 7 8 10 11 13 15 17 19 20 22 23 23 24 25 25 27 28 29 30 31 32 34
22 21 21 20 18 16 15 13 12 11 10 10 9 7 6 6 6 6 6 7 8 9 11 12 14 16 17 19 21 23 24 25 26 27 27 29 30 32 33 34 35 37
22 22 21 19 18 16 15 14 13 12 10 9 8 7 7 7 7 7 7 8 9 10 11 13 15 17 18 20 22 23 24 26 27 28 29 30 32 33 35 36 38 39
23 22 20 19 18 16 15 14 13 11 10 9 8 8 7 7 7 8 8 8 9 10 12 14 16 18 20 21 23 24 25 26 27 29 30 31 32 34 35 37 39 41
23 22 20 19 18 16 15 14 13 11 10 9 9 8 8 7 7 8 8 9 10 11 13 15 17 19 21 22 24 25 26 27 28 30 31 32 33 34 36 38 40 42
23 22 21 19 18 17 15 14 13 12 10 10 9 8 8 7 7 8 9 10 11 13 14 17 19 21 22 24 25 26 27 28 29 30 31 32 33 35 37 39 41 42
23 22 21 20 18 17 16 14 13 12 11 10 9 8 7 8 8 9 10 12 13 14 16 18 20 22 23 25 26 27 28 29 30 31 31 33 34 36 38 40 41 42
24 22 21 20 18 17 16 14 13 12 11 9 8 8 8 8 9 10 11 12 14 16 18 19 21 22 24 26 27 28 29 30 31 31 32 34 35 37 39 40 41 43
24 23 21 19 18 17 16 14 13 11 10 9 8 8 9 9 10 11 12 14 15 17 19 20 22 23 25 26 27 28 29 30 31 33 34 35 37 38 40 41 42 43
24 22 21 19 18 17 16 14 12 11 10 9 9 9 10 10 11 11 13 15 17 19 20 21 22 24 25 26 27 28 29 31 32 34 35 37 38 40 41 42 43 44
24 22 21 20 18 16 15 13 11 10 10 9 10 10 10 11 12 12 14 16 17 19 20 21 23 24 25 26 27 28 30 31 33 35 37 38 40 42 43 44 45 46

ECMWFNIL_850_spd_105.txt.gz
Wind_Speed
26 24 22 21 20 20 20 20 20 20 18 16 15 14 13 11 10 8 6 5 4 4 4 4 3 3 3 3 3 3 4 5 6 6 7 8 9 10 10 11 11 12
26 24 23 23 22 22 22 22 21 19 16 15 14 13 12 11 10 9 7 7 6 6 5 4 3 2 2 2 3 3 4 6 7 8 9 9 10 10 11 11 11 12
26 24 24 23 23 23 23 22 20 17 16 15 14 13 12 11 10 9 9 8 7 6 4 3 2 2 2 2 3 4 5 7 8 8 9 10 10 10 10 11 11 12
25 25 24 23 23 23 22 20 18 17 16 15 14 14 13 12 11 10 9 8 6 4 3 2 2 2 2 2 4 5 6 7 8 9 9 10 10 10 11 11 12 13
25 25 25 24 24 22 21 19 18 17 16 15 15 14 12 12 11 10 8 7 5 5 4 4 3 2 2 4 5 6 7 8 9 9 10 10 10 11 12 12 14 15
25 25 24 24 23 21 21 20 18 17 17 15 14 13 13 12 11 9 8 7 6 6 5 4 3 3 4 5 6 7 8 9 9 10 10 11 11 12 13 14 16 17
24 24 24 23 23 22 21 20 18 18 17 15 14 14 13 12 11 9 9 8 7 7 5 4 4 4 5 6 7 8 9 9 10 10 11 12 13 15 16 17 18 18
24 24 24 24 23 22 21 20 19 17 17 16 15 15 14 12 11 10 10 9 8 6 5 5 5 6 6 7 8 9 10 10 11 12 13 14 15 17 17 18 19 19
26 25 25 24 23 22 20 19 19 17 17 17 16 15 14 13 12 11 10 9 8 7 6 6 7 7 8 9 9 10 11 12 13 14 15 16 17 18 19 19 20 20
26 25 24 23 22 21 20 19 19 18 18 17 16 15 14 13 13 12 10 9 8 8 8 8 8 8 9 10 11 12 13 13 14 15 16 17 18 19 19 20 20 20
25 24 24 22 22 21 20 20 19 19 19 18 16 15 14 14 13 12 10 9 9 9 9 9 9 9 10 11 12 13 14 14 15 16 17 18 19 19 20 20 21 21
25 24 23 23 22 21 21 21 20 20 19 18 17 16 15 14 13 11 10 10 10 10 10 10 10 10 11 12 12 13 14 15 16 17 18 18 19 20 20 21 21 22
24 24 23 23 22 22 21 21 20 20 19 18 18 16 15 14 12 12 11 11 11 11 10 10 10 11 11 12 13 14 15 16 17 18 18 19 19 20 21 22 23 23
24 24 23 23 22 22 22 21 21 21 20 19 18 17 15 14 13 12 12 12 11 11 11 11 11 11 12 13 14 15 16 18 18 19 19 19 20 21 22 23 24 25
24 24 24 24 23 23 22 22 22 21 20 19 18 17 15 14 13 13 12 12 11 11 11 10 11 11 12 14 15 16 18 19 20 20 21 21 21 22 23 24 25 26
25 25 25 25 24 24 24 23 23 22 21 19 18 17 16 15 14 13 13 12 11 11 10 10 11 12 13 15 16 18 19 19 20 21 22 23 24 24 25 25 26 27
26 26 26 26 25 25 25 24 23 22 20 19 18 17 16 16 14 13 13 12 11 10 10 10 11 13 15 16 18 18 19 20 21 22 23 24 25 26 27 27 27 28
27 27 27 27 27 26 26 25 23 22 20 19 19 18 17 16 14 13 12 11 10 9 10 11 12 14 15 17 18 19 20 22 23 24 25 26 27 27 28 28 29 30
28 28 28 28 28 27 26 25 23 22 21 20 19 18 17 15 14 13 12 10 10 10 11 12 13 15 15 17 18 20 21 23 24 25 26 27 28 28 28 29 30 31
29 30 30 29 29 28 26 25 24 23 22 20 19 18 17 15 14 12 11 10 10 11 12 13 13 15 16 17 19 20 22 24 25 26 27 28 28 28 29 30 31 32
31 32 31 30 29 28 27 26 24 23 22 20 19 18 16 15 13 12 11 10 11 12 12 13 14 15 16 18 20 22 23 25 26 27 28 28 28 28 29 30 31 32
34 33 32 31 30 29 27 26 24 23 22 21 19 18 16 14 13 12 11 11 11 12 13 13 14 16 18 19 21 23 24 26 27 28 28 28 28 28 29 30 31 33
35 33 32 31 30 29 27 26 24 23 22 21 19 17 15 14 13 12 12 12 11 12 13 14 15 17 19 21 23 25 26 27 27 27 28 28 28 29 30 31 32 33
35 34 33 32 30 28 27 25 24 23 22 20 18 17 15 14 13 12 12 11 11 12 13 14 16 18 20 22 24 26 27 27 27 28 28 28 29 29 31 31 32 33
35 34 32 31 29 28 26 25 24 23 22 20 18 16 15 14 13 12 12 11 12 13 14 16 18 20 21 24 25 27 27 27 28 28 29 29 30 31 32 32 32 33
35 34 32 30 29 27 27 26 24 23 21 19 18 16 15 14 13 12 12 12 12 13 15 17 19 21 23 24 25 26 27 28 28 29 29 30 31 32 32 33 33 33

ECMWFNIL_850_spd_108.txt.gz
Wind_Speed
28 27 26 26 26 26 26 24 23 22 20 20 19 17 16 17 13 11 9 8 7 7 6 6 5 4 3 2 2 1 1 1 2 3 4 5 6 7 8 9 10 10
29 28 27 26 27 27 25 22 21 20 19 19 19 17 18 17 13 11 10 9 8 8 7 7 6 5 4 4 3 2 1 1 2 3 4 6 7 8 9 9 10 11
30 30 29 29 28 26 23 22 21 21 21 20 19 19 17 15 12 11 11 10 9 9 8 7 7 7 6 5 4 3 2 2 3 4 5 7 8 9 9 10 11 12
30 30 29 29 28 24 23 24 24 23 23 22 21 19 15 13 12 12 12 12 11 11 10 9 8 8 6 5 4 3 2 2 3 5 6 8 8 9 10 11 12 13
30 30 29 28 26 24 24 25 25 26 26 24 21 17 14 13 13 13 14 14 13 12 11 10 9 8 7 5 4 3 2 3 5 6 7 8 9 10 11 12 13 14
29 29 28 27 26 26 26 26 26 27 25 21 18 16 15 15 15 15 16 15 14 13 12 11 9 8 7 5 4 3 3 4 6 6 7 9 9 11 12 13 15 16
29 28 27 27 27 27 27 26 26 24 21 18 17 17 17 17 18 18 18 16 15 14 12 11 9 8 7 5 3 3 4 5 6 7 8 10 10 12 13 14 16 17
27 27 27 28 28 28 27 26 24 21 19 18 18 19 19 20 20 20 18 16 15 14 12 11 10 8 7 5 3 4 4 5 7 8 9 10 12 13 14 15 17 17
26 26 27 28 27 27 26 24 22 20 20 20 20 21 22 22 21 19 18 16 15 14 12 11 10 8 6 5 4 4 5 6 7 9 10 11 13 14 15 16 17 17
25 25 25 26 26 26 25 24 22 21 21 22 22 23 23 23 21 19 17 16 15 14 13 11 10 8 6 5 5 5 6 7 8 9 11 12 14 15 16 16 17 18
25 25 26 26 26 25 24 23 23 23 23 24 24 25 24 23 21 19 18 17 16 14 12 11 9 8 7 6 5 6 6 7 9 10 12 13 15 16 17 17 18 19
26 27 27 26 25 24 24 24 24 24 25 25 25 25 24 22 21 20 19 17 16 14 12 11 9 8 7 7 6 6 7 8 9 11 13 14 15 16 17 18 19 19
27 26 25 24 24 25 25 25 26 26 26 27 26 25 23 22 21 20 19 17 15 14 12 11 10 9 8 7 6 7 7 9 10 12 14 15 16 17 17 18 19 20
26 25 24 25 25 26 26 27 27 27 28 27 26 25 23 22 21 19 18 17 15 13 12 11 10 9 8 7 7 7 8 10 11 12 13 15 16 17 18 18 19 21
26 26 26 26 27 27 28 28 28 29 29 28 26 25 24 22 21 19 18 16 15 13 13 12 11 9 8 7 7 8 9 11 12 12 13 15 16 17 18 19 20 21
27 28 28 28 28 29 29 29 29 30 29 28 27 25 24 23 21 20 18 16 15 14 13 12 10 9 8 8 8 9 11 11 12 13 14 15 16 17 18 20 21 22
28 29 29 29 29 29 30 30 30 30 29 28 27 26 25 23 22 20 18 16 16 15 14 12 10 9 9 9 9 10 11 12 13 14 15 16 17 18 19 21 22 23
29 29 29 30 31 31 31 32 31 30 29 28 27 26 25 23 21 19 18 17 17 15 14 12 11 10 10 9 10 10 11 12 14 15 16 17 19 20 21 22 23 23
29 30 30 31 32 32 32 32 31 30 30 28 27 26 24 23 21 20 19 18 17 15 13 12 11 10 10 10 10 11 12 13 15 16 17 18 20 21 22 24 24 24
29 31 32 32 33 33 33 32 31 31 29 28 27 25 24 22 21 20 19 18 16 15 13 12 11 10 10 10 10 11 13 14 16 17 18 20 21 22 24 25 25 26
31 32 33 34 34 34 33 33 32 31 30 28 27 25 23 22 22 20 19 18 16 15 14 12 11 10 10 10 11 12 14 15 17 18 20 21 22 23 24 25 26 26
32 33 34 34 34 34 34 33 32 31 30 29 27 26 24 23 22 21 19 18 16 15 14 12 11 10 10 10 11 13 14 16 18 20 21 22 22 23 24 25 26 27
34 34 35 35 35 35 34 34 33 31 30 29 28 26 25 24 23 21 19 18 17 15 14 12 11 10 10 11 12 14 15 17 19 21 22 22 23 23 24 25 25 27
34 34 35 36 36 36 35 34 33 32 30 29 28 27 26 25 23 21 20 18 17 15 13 12 11 10 11 12 13 15 16 18 20 22 23 23 23 23 24 24 25 26
35 35 36 36 36 36 35 34 33 32 31 29 28 27 25 24 23 21 20 18 17 15 13 11 10 10 11 13 15 16 18 20 21 23 23 24 24 24 24 25 25 25
36 36 37 37 37 36 35 34 33 32 31 30 29 28 26 24 23 22 20 18 16 15 13 11 11 11 12 14 16 17 19 21 23 24 24 25 25 25 25 25 24 24

ECMWFNIL_850_spd_111.txt.gz
Wind_Speed
33 32 31 30 29 29 27 26 26 24 24 26 26 24 23 23 22 21 20 17 15 14 13 14 15 15 14 13 11 10 9 7 6 4 2 0 2 3 4 5 6 8
33 32 30 29 29 28 26 26 26 25 26 27 26 23 22 22 21 19 18 16 14 13 13 15 16 15 14 13 11 10 9 7 5 3 1 1 2 3 4 5 7 8
32 31 30 30 29 28 26 26 26 27 27 26 24 21 21 23 21 19 19 16 14 14 15 17 16 16 14 13 12 10 8 7 4 3 1 1 2 3 5 6 8 9
32 31 30 29 28 27 26 26 28 28 27 25 23 21 21 22 22 22 21 17 15 16 17 18 17 15 14 13 12 10 8 6 4 2 1 2 2 4 5 6 8 9
31 30 29 29 28 28 27 28 29 28 26 25 23 21 21 21 21 22 20 17 16 18 19 19 17 16 15 13 11 9 7 5 4 3 2 2 3 4 5 6 8 9
31 30 30 29 29 29 29 29 29 28 26 26 25 24 23 22 21 20 18 17 18 20 21 19 18 16 15 12 10 9 7 6 5 3 2 2 3 4 5 7 8 10
32 31 30 29 29 29 29 29 30 29 27 27 26 26 26 24 23 20 18 19 21 22 21 19 18 16 14 12 10 9 8 7 5 3 3 3 3 5 6 7 9 10
32 31 30 29 29 29 29 30 31 29 28 27 27 28 28 26 23 20 20 21 23 23 21 20 18 15 13 12 11 10 8 7 5 4 3 3 3 5 7 8 10 11
31 30 30 29 29 30 32 32 31 29 28 27 28 30 29 26 22 21 22 23 24 23 21 20 17 15 14 13 12 10 9 7 6 5 3 3 4 6 8 9 10 11
30 29 29 29 30 33 33 31 30 29 28 28 30 31 27 24 23 23 24 25 25 23 21 19 17 16 15 14 12 11 9 8 6 4 3 4 5 7 9 10 10 11
30 29 29 30 31 32 31 30 31 30 29 29 30 28 25 24 24 25 26 26 24 23 21 19 18 17 15 14 13 11 10 8 6 4 4 5 6 8 9 10 10 11
29 28 29 29 29 29 29 30 32 30 29 29 27 25 25 26 26 27 27 26 24 23 21 20 19 17 16 14 13 12 10 8 6 6 5 6 7 8 9 10 11 12
28 27 27 27 27 28 30 31 31 29 27 27 26 26 27 27 28 29 28 26 25 23 22 20 19 17 16 15 14 12 10 8 7 6 6 7 8 8 9 10 12 13
25 25 26 26 26 27 28 29 29 28 28 27 28 28 28 28 29 30 28 27 25 24 22 21 19 17 16 15 14 11 10 9 7 6 6 7 8 8 10 11 13 14
23 24 25 25 25 25 27 28 29 29 30 30 29 29 29 29 30 29 28 28 26 24 22 21 19 18 17 15 13 11 10 9 7 6 6 7 8 9 10 12 13 14
23 25 25 26 26 28 30 30 31 31 31 30 30 30 30 31 30 30 28 27 25 24 23 21 20 19 17 15 13 12 10 8 7 6 7 7 8 9 11 12 13 15
27 28 29 29 30 31 31 30 30 31 31 30 31 31 32 32 31 30 28 26 25 23 22 21 20 19 17 15 14 12 9 8 7 7 7 7 8 10 11 12 14 15
30 31 31 31 31 30 29 29 29 30 30 30 32 32 33 33 31 30 28 26 25 23 22 21 20 18 17 15 13 11 9 8 7 6 7 7 9 10 11 13 14 16
28 29 29 29 29 28 28 29 29 30 30 31 33 33 33 33 31 29 28 26 25 24 23 21 20 18 17 15 13 11 9 8 7 6 7 8 9 10 12 13 15 17
26 28 28 28 28 28 28 29 29 30 31 32 33 34 34 33 31 30 28 27 25 24 23 22 20 18 17 15 12 10 9 7 6 6 7 8 9 11 13 15 17 18
25 26 27 27 27 28 28 29 29 31 32 33 34 34 34 32 31 30 29 27 26 24 23 22 20 18 16 14 12 10 8 7 6 6 7 8 10 12 14 16 18 19
25 26 26 27 27 28 29 30 31 32 34 35 35 35 34 32 31 30 28 27 26 25 23 22 20 18 16 13 12 10 8 7 6 6 7 9 11 13 15 17 19 20
26 26 26 27 28 29 30 31 33 34 35 36 36 36 34 33 31 30 28 27 26 25 23 22 20 18 15 13 11 9 8 7 6 6 8 10 11 14 16 18 20 20
27 27 28 28 29 30 31 32 34 35 36 37 37 35 34 33 32 30 29 28 26 24 23 22 20 17 15 13 11 9 7 6 6 7 9 11 13 15 17 19 20 20
28 29 29 29 30 31 32 34 35 37 38 38 37 35 34 33 32 31 30 28 27 25 24 22 20 17 15 13 11 9 7 6 7 8 10 12 14 16 18 19 19 19
30 30 30 31 31 33 34 35 37 38 39 38 37 36 34 33 32 31 30 28 27 26 24 22 20 17 15 13 10 8 6 6 7 9 11 13 16 17 18 18 18 18

ECMWFNIL_850_spd_114.txt.gz
Wind_Speed
41 40 40 40 40 39 38 37 36 34 32 30 28 28 28 27 26 26 25 25 25 24 23 23 23 23 23 22 20 17 16 17 16 15 13 11 9 6 5 3 2 2
41 40 40 40 40 39 38 37 36 35 32 30 28 27 28 27 26 26 26 26 26 25 23 22 20 20 20 20 19 18 18 18 17 15 13 10 8 6 4 3 2 3
41 40 39 39 39 38 38 37 36 34 32 29 28 28 28 28 27 27 27 28 27 25 23 22 21 21 20 20 20 20 19 18 16 14 12 10 8 6 5 4 3 3
41 41 39 38 37 37 36 35 35 34 31 29 29 29 28 30 30 27 27 28 28 25 23 23 23 22 22 22 21 21 20 19 16 14 12 10 9 7 5 4 3 3
40 40 39 38 36 35 35 35 34 33 31 30 31 29 30 33 32 27 26 27 27 25 24 24 24 23 24 23 22 22 21 19 16 14 12 10 9 8 6 4 4 4
37 38 39 37 35 35 34 34 33 32 32 32 31 31 33 34 30 25 27 28 26 25 24 25 25 25 25 24 23 22 21 18 16 15 13 11 10 8 6 5 4 4
36 37 37 35 35 34 33 33 32 32 32 32 32 33 34 33 28 26 30 31 28 28 27 25 25 26 25 24 24 23 21 19 17 15 13 11 10 8 6 6 5 5
36 35 35 34 34 34 33 33 32 32 32 32 33 34 33 32 29 27 28 28 28 30 29 26 26 26 25 25 25 23 21 20 18 16 14 12 10 8 7 6 5 6
36 35 34 34 34 34 34 33 32 33 33 33 34 33 32 30 28 27 27 26 26 29 28 27 27 27 26 26 25 23 21 20 18 16 14 12 10 9 8 6 6 7
36 35 34 34 34 34 34 34 33 33 33 33 34 33 32 29 29 31 29 27 27 28 27 28 28 28 27 27 26 23 21 19 18 16 14 12 11 10 8 7 7 7
34 34 34 34 34 34 34 34 33 34 34 34 34 35 33 29 32 35 32 29 29 28 27 29 29 28 28 28 26 24 21 20 18 16 15 13 12 10 8 7 8 8
32 32 32 32 33 34 33 33 34 34 34 35 36 37 33 29 32 36 34 32 30 28 28 30 30 29 29 28 26 24 23 21 19 17 15 14 12 10 8 8 8 8
30 31 31 32 33 33 32 33 33 33 36 38 37 35 31 30 34 36 35 34 30 28 30 30 30 31 30 28 26 24 23 21 19 18 16 14 12 10 9 9 8 8
30 30 31 32 32 32 32 33 32 33 36 37 34 32 31 32 36 37 35 33 29 29 31 31 31 31 30 28 26 24 22 21 19 18 16 14 12 10 10 9 8 7
31 31 31 31 31 31 31 31 31 32 34 35 34 32 31 32 35 34 32 30 30 31 33 33 32 31 29 28 26 24 23 21 19 18 16 14 12 11 10 9 8 8
29 28 28 28 28 28 28 29 31 31 32 35 35 31 28 31 34 31 29 29 31 33 34 34 32 31 28 26 25 23 22 21 19 18 16 14 12 11 10 8 8 8
24 23 24 24 24 26 27 29 30 31 32 34 33 27 27 30 31 29 29 30 33 35 35 34 32 30 28 26 25 24 22 21 19 18 15 13 12 10 9 8 7 7
21 22 23 25 26 28 29 28 28 30 33 33 30 28 29 30 30 30 30 32 35 36 35 33 32 30 29 27 26 25 23 21 19 17 15 13 11 10 9 8 7 7
21 21 22 24 25 27 28 26 26 30 31 30 29 30 31 31 31 31 32 34 37 36 34 33 32 30 30 28 27 25 23 21 19 16 14 13 11 10 9 8 7 7
22 23 23 23 24 25 27 27 29 31 31 31 32 32 33 33 32 32 34 37 37 36 34 33 32 31 30 28 26 25 22 21 18 16 14 12 11 10 8 7 6 7
25 26 25 25 25 26 27 28 29 31 32 33 33 33 33 33 33 34 37 38 37 35 34 33 32 31 29 28 26 24 22 20 18 16 14 12 11 9 8 6 6 7
28 29 29 29 29 29 30 31 32 34 34 33 32 32 32 33 34 36 37 38 37 35 34 33 32 30 29 28 26 24 22 20 17 16 14 12 11 9 7 5 6 8
29 30 30 31 32 33 34 34 34 34 32 31 31 32 33 34 36 38 38 37 36 35 34 33 32 31 30 28 26 24 22 19 17 16 14 13 11 8 6 5 7 9
26 27 28 28 29 31 31 31 31 31 30 31 32 33 34 35 37 38 38 37 36 35 34 33 31 31 30 28 26 24 21 19 18 16 14 13 10 8 6 6 8 10
24 25 25 26 27 28 29 29 29 30 30 32 33 33 35 36 38 38 38 37 36 35 34 33 31 30 29 27 26 24 22 20 18 16 14 12 10 8 7 8 9 11
23 24 24 25 26 27 28 29 29 30 31 33 34 34 36 37 38 38 38 37 37 36 35 33 31 30 29 27 25 24 22 20 18 16 14 12 10 9 9 9 10 11

ECMWFNIL_850_spd_117.txt.gz
Wind_Speed
44 45 45 46 45 44 43 43 42 42 42 41 41 39 37 36 35 34 33 31 30 29 28 27 27 26 26 26 26 27 28 28 25 21 20 20 19 19 17 15 13 12
45 45 45 45 45 44 44 43 41 41 41 41 40 39 38 36 34 34 33 31 31 31 30 29 28 27 27 28 30 31 32 29 24 21 21 21 21 20 17 16 14 12
45 45 44 45 44 44 44 43 41 41 39 39 40 39 37 37 35 33 33 32 32 31 30 30 29 28 28 28 30 32 32 28 25 23 23 23 22 20 18 16 14 13
45 45 44 44 44 43 44 43 42 41 39 38 40 39 36 36 35 33 33 33 31 30 32 32 30 30 30 28 26 26 27 27 26 25 25 25 23 21 19 17 15 13
45 44 43 43 42 42 43 44 43 42 39 38 39 38 35 35 35 34 34 34 32 31 32 33 33 33 32 27 24 24 26 27 27 27 27 25 23 21 19 17 15 13
46 45 44 42 41 40 42 43 42 40 39 38 39 37 35 35 35 35 34 34 34 32 32 33 34 35 33 28 26 27 28 28 28 28 28 26 23 21 19 17 15 13
47 47 46 43 39 38 40 41 40 38 38 38 37 36 35 36 36 35 34 34 34 34 33 33 34 35 32 28 28 29 28 28 29 29 28 25 23 21 19 17 15 13
47 47 46 43 39 38 39 39 38 38 38 36 35 35 35 36 35 35 34 34 34 35 34 32 33 33 29 26 29 30 29 30 30 29 28 25 24 22 20 18 16 14
44 44 43 42 39 38 38 38 39 39 37 34 34 34 35 34 35 35 34 35 36 35 32 32 33 31 27 26 30 31 31 32 31 29 27 26 24 22 20 18 16 14
38 37 38 38 37 37 37 37 38 37 36 34 34 34 34 34 35 35 34 36 37 34 31 32 35 31 27 26 31 33 32 31 31 29 27 26 24 22 19 18 16 14
31 32 33 35 36 37 36 36 37 36 35 34 34 34 34 35 35 34 35 37 37 33 30 33 35 33 30 28 32 34 32 31 31 29 28 26 24 22 20 18 16 14
27 28 30 32 33 34 34 35 36 35 34 34 34 34 34 35 35 35 36 37 35 31 29 32 33 32 31 31 33 34 32 32 31 29 28 26 24 22 21 18 16 14
25 26 27 29 30 31 31 32 33 34 34 34 34 34 34 34 34 35 36 36 33 30 30 31 29 27 28 32 34 34 33 32 31 29 28 26 24 22 20 18 16 14
26 26 27 27 27 28 29 30 31 32 32 32 33 34 33 33 33 34 37 36 30 28 32 32 26 24 27 34 35 33 33 32 31 29 28 26 24 22 20 18 16 14
26 27 28 28 28 28 28 28 29 29 30 31 31 32 32 33 34 36 39 36 28 27 34 34 26 24 28 34 35 33 33 32 31 30 28 26 24 22 20 19 16 15
24 26 28 28 29 28 27 27 27 27 28 29 31 32 32 32 35 39 39 33 26 28 35 33 24 25 29 34 34 32 33 32 31 30 28 25 24 22 20 19 16 15
22 24 26 28 28 28 28 27 27 26 27 28 30 32 32 32 36 38 34 28 24 27 33 32 26 27 31 34 34 32 32 32 31 29 27 25 24 22 20 18 16 15
20 22 24 26 27 28 28 27 27 28 28 28 29 29 30 33 36 34 29 26 25 27 32 32 29 30 34 35 34 33 32 31 30 28 27 26 24 22 20 18 17 15
18 20 21 23 24 24 26 26 27 27 27 28 29 30 30 32 33 31 27 26 28 30 31 29 28 32 35 35 33 33 32 31 29 27 26 25 23 21 20 18 17 16
16 17 18 18 19 19 21 22 23 24 24 26 27 28 28 29 30 29 28 28 29 31 30 27 28 33 36 35 34 34 33 32 30 28 26 24 23 21 20 18 17 16
14 14 14 15 18 19 21 22 22 22 24 24 25 27 28 29 30 30 29 28 29 29 28 27 29 34 36 36 35 34 34 33 31 29 26 25 23 22 20 19 17 16
13 13 14 15 17 19 21 22 23 24 25 23 23 27 29 29 30 29 26 27 28 29 28 28 31 35 37 37 36 36 35 34 31 29 27 25 24 22 21 20 18 16
13 14 15 16 17 18 20 21 22 23 24 22 22 25 27 29 29 28 26 28 29 29 29 29 32 36 38 37 37 36 35 33 31 30 28 26 24 23 21 20 18 16
14 15 16 17 19 20 21 21 21 22 23 23 24 25 27 29 29 28 28 29 29 29 29 30 34 37 38 38 37 36 34 33 31 30 28 26 25 23 22 20 18 16
15 16 17 19 20 22 23 24 24 24 25 26 27 27 29 30 30 30 30 30 30 30 30 32 35 37 38 38 37 36 34 33 31 30 28 27 25 24 22 21 19 16
15 16 18 20 21 23 24 26 26 27 27 27 27 28 30 31 32 31 31 31 31 32 33 35 37 38 38 37 36 36 35 33 32 30 28 26 25 24 23 22 20 17

ECMWFNIL_850_spd_123.txt.gz
Wind_Speed
42 43 43 43 43 44 44 45 45 45 45 45 45 45 44 44 43 43 44 43 43 43 43 43 42 40 39 38 37 36 35 34 33 32 32 31 30 29 29 29 28 27
42 42 42 43 43 43 44 44 45 45 45 45 45 44 43 43 43 42 42 42 41 41 41 42 43 41 40 40 39 38 37 36 35 35 34 34 32 31 30 30 29 28
41 42 42 43 43 43 43 44 44 44 44 44 44 44 43 43 42 42 41 40 39 38 38 40 41 42 41 41 40 39 38 37 37 36 35 35 34 32 32 30 30 30
41 42 42 43 42 43 43 44 45 44 44 45 44 44 43 43 42 42 41 40 38 36 36 37 39 40 41 42 42 41 40 39 37 36 35 35 33 33 32 30 30 31
40 41 42 43 42 43 44 45 45 45 45 45 44 44 44 43 43 42 41 41 39 37 36 36 37 39 40 42 42 42 41 39 38 37 35 33 33 34 32 30 31 33
38 40 41 42 42 43 44 45 45 45 45 45 44 44 44 43 43 43 42 41 40 38 36 36 37 39 41 42 42 43 42 40 39 37 34 33 35 35 33 32 31 33
35 37 40 41 42 43 43 44 44 44 44 44 44 44 44 44 43 43 42 41 40 39 38 37 38 40 42 43 44 44 42 39 38 36 34 35 35 33 34 34 33 34
34 36 38 39 40 41 42 42 42 43 42 43 43 43 43 43 43 42 42 41 41 39 38 38 38 39 41 44 45 45 42 39 38 36 34 34 33 31 34 37 36 35
34 35 36 38 38 39 40 40 40 40 39 40 40 40 41 42 42 42 41 41 41 40 39 38 37 37 40 42 44 45 43 39 36 33 32 34 34 31 33 38 37 36
34 34 35 36 36 37 37 37 37 36 36 37 37 38 39 40 40 40 40 40 40 40 39 38 36 37 39 41 42 44 44 39 33 31 31 34 36 33 32 35 35 36
29 30 31 32 32 33 34 34 34 34 34 35 35 37 37 38 38 39 38 39 39 39 39 37 35 35 39 41 43 45 45 37 31 33 32 30 33 35 34 35 36 36
24 25 26 27 28 30 30 31 32 32 33 34 34 35 36 36 37 37 37 38 38 38 37 36 35 34 38 41 42 46 46 35 29 34 35 32 32 34 34 35 35 34
19 20 22 23 24 26 27 29 30 31 32 32 33 34 35 36 36 35 36 36 36 36 36 36 34 33 37 40 42 46 47 34 25 32 38 37 33 31 31 32 31 31
16 17 18 19 21 22 24 26 28 30 31 32 32 33 34 34 34 34 34 34 35 35 35 35 33 32 34 37 42 50 46 30 28 36 40 37 32 28 29 29 29 31
15 16 17 18 19 21 22 24 26 28 31 33 34 34 34 34 33 33 32 32 33 33 30 30 31 32 32 34 42 49 41 30 36 41 38 33 31 30 29 28 29 31
15 15 16 17 18 19 20 21 23 25 27 29 29 30 31 31 31 32 32 32 32 29 26 29 31 33 33 34 41 43 35 33 39 37 32 30 31 31 28 26 28 33
13 14 14 15 16 17 18 19 20 21 23 24 25 26 26 27 29 31 31 33 33 28 26 29 30 31 32 36 42 41 33 34 37 32 28 29 30 31 30 27 29 35
12 12 13 13 14 15 16 17 17 18 19 20 22 23 24 24 26 27 26 27 30 29 28 29 29 30 33 36 39 38 34 35 35 31 27 27 28 31 31 28 31 37
12 12 12 13 14 14 15 16 17 17 18 18 19 19 20 21 22 23 24 25 28 31 31 31 30 31 34 34 34 36 38 40 37 31 27 27 28 29 28 28 32 37
12 12 12 12 13 14 14 15 16 17 17 18 19 19 21 22 22 22 23 24 25 27 28 29 30 31 32 33 34 37 40 38 33 31 30 28 27 27 25 26 31 35
12 13 13 12 12 13 13 14 15 16 17 17 18 19 20 21 22 22 22 23 23 25 26 27 28 28 28 30 33 35 36 33 31 32 31 26 25 24 24 26 30 34
13 13 14 13 13 13 13 13 14 14 15 16 17 18 20 21 21 21 22 22 22 22 22 22 23 25 25 27 31 33 32 31 31 31 29 25 24 24 25 29 31 33
14 15 14 14 14 13 12 13 13 13 13 13 14 16 18 20 21 22 22 22 21 20 19 18 18 20 23 25 28 31 31 30 30 30 28 27 26 25 27 30 32 32
16 16 15 15 14 13 12 12 12 11 11 11 11 12 13 14 16 18 19 20 20 20 20 19 17 18 20 22 26 29 30 29 28 26 26 27 27 27 29 31 32 32
17 17 16 15 13 12 12 11 10 10 10 11 11 11 11 11 12 14 15 15 16 17 18 18 16 16 18 21 23 27 27 25 24 24 25 26 28 29 31 32 33 33
18 17 16 15 14 14 13 12 12 11 11 11 12 11 12 12 13 13 14 14 14 16 17 18 17 16 17 19 21 24 25 24 24 26 27 27 28 30 33 35 36 37

ECMWFNIL_850_spd_129.txt.gz
Wind_Speed
43 43 44 44 43 42 41 41 41 41 41 42 41 41 40 40 39 39 40 39 40 41 41 41 41 41 42 42 42 42 42 42 42 42 41 41 41 41 40 40 40 40
43 43 43 44 44 43 42 41 41 41 41 40 40 40 40 40 40 39 39 39 39 39 39 39 39 39 40 40 41 41 42 42 42 42 42 42 41 41 41 41 40 41
43 43 44 44 42 41 40 41 42 41 40 39 39 39 39 39 40 39 39 39 39 38 38 38 38 38 39 39 40 41 41 41 41 41 42 41 41 41 41 40 41 42
43 43 43 42 40 38 38 41 42 40 40 39 38 38 38 39 39 39 39 39 39 38 38 37 37 37 38 38 39 40 40 40 40 39 40 40 39 39 38 39 42 44
41 41 41 40 39 37 38 41 40 39 39 39 38 38 38 38 39 39 39 39 39 38 37 37 37 37 37 37 38 38 39 39 39 38 39 40 39 38 37 37 39 44
39 39 39 39 38 38 39 40 38 38 38 38 37 38 38 38 38 38 38 38 38 37 36 36 36 36 36 36 36 37 37 37 37 37 38 39 38 38 39 38 38 40
36 36 37 37 37 38 39 39 38 37 37 37 37 37 37 37 37 37 36 36 36 35 35 34 34 34 34 34 34 35 35 35 35 35 37 38 37 37 38 39 40 39
33 33 34 35 36 37 38 38 37 36 36 36 37 36 36 37 36 35 34 34 34 34 33 32 32 31 31 31 33 34 34 34 34 35 37 38 38 39 39 39 40 39
31 32 32 34 35 36 37 36 36 35 35 36 37 36 36 36 35 34 33 32 32 32 31 31 31 30 29 30 31 33 33 33 34 36 37 38 39 39 38 38 39 40
30 31 32 34 35 36 36 35 35 35 36 37 37 36 36 35 34 33 32 31 31 31 31 30 30 30 29 30 31 32 32 32 32 32 32 33 33 32 33 35 35 35
30 31 33 34 34 35 35 35 35 35 36 36 36 35 35 34 34 33 32 32 31 31 31 30 30 30 29 30 30 30 29 30 30 28 29 29 28 27 30 36 38 35
31 32 33 34 35 35 35 35 35 35 35 34 34 34 34 34 33 33 32 31 31 30 30 30 29 29 29 29 28 27 27 28 28 29 31 32 31 28 25 29 34 36
30 32 33 34 35 35 35 34 34 33 33 32 32 33 33 33 33 33 32 31 30 30 29 29 27 27 27 26 26 26 25 25 26 29 33 35 33 30 28 29 31 31
29 30 30 31 32 33 33 32 31 31 31 31 32 32 33 32 32 31 31 30 29 29 28 27 26 25 25 23 23 23 22 22 23 25 27 27 25 24 27 29 29 30
28 27 27 27 28 29 29 29 29 30 30 30 31 31 30 30 29 29 29 29 29 29 28 26 24 24 22 20 20 21 22 24 26 27 29 29 26 23 24 24 24 25
25 25 25 25 26 27 27 28 29 29 29 28 28 27 27 26 27 27 28 28 29 28 27 24 24 23 23 22 20 20 21 24 24 26 30 32 31 25 22 22 23 24
22 22 22 23 24 25 25 26 26 25 25 25 24 24 24 24 25 25 26 27 26 25 23 22 21 21 20 21 21 21 24 25 21 18 21 24 26 24 23 24 28 29
19 19 20 20 21 22 22 22 22 22 22 22 22 22 22 23 24 24 25 25 25 24 23 21 21 22 21 21 22 24 27 26 21 17 18 19 20 22 23 25 27 26
17 17 18 19 19 20 20 20 21 21 21 21 21 21 22 23 24 24 25 25 25 26 25 23 23 25 26 24 24 25 26 25 22 18 18 21 22 22 23 23 22 20
17 18 18 19 19 20 20 21 21 20 20 21 21 22 22 23 23 24 24 25 26 27 26 26 26 27 29 28 27 26 24 23 23 21 20 23 24 23 22 20 17 17
19 19 20 21 21 22 22 22 21 21 21 22 22 22 23 23 23 24 24 25 26 26 25 24 24 25 26 26 27 26 24 23 24 23 23 24 25 24 23 20 16 14
21 21 22 23 24 24 24 23 23 22 23 23 23 23 23 23 23 24 24 24 24 24 23 22 21 21 22 23 24 25 25 25 26 26 25 24 23 24 24 21 17 14
27 25 24 24 25 25 26 26 25 24 24 23 23 24 24 24 24 23 24 23 22 22 21 20 20 20 21 23 24 25 25 26 27 27 25 22 21 21 21 19 17 16
33 31 29 27 27 27 27 27 26 26 25 24 24 24 24 24 24 23 22 22 21 21 20 20 20 20 20 21 24 25 26 27 28 28 26 24 22 20 19 17 16 16
35 35 34 32 30 29 29 29 29 28 26 25 25 24 24 23 22 21 21 21 21 21 20 19 20 20 20 20 22 24 25 25 25 26 27 26 24 21 19 18 17 17
36 37 36 34 32 30 30 31 30 29 27 26 25 24 23 22 21 20 21 21 21 21 21 19 20 21 21 21 22 23 24 24 23 23 24 23 24 23 21 19 18 17

ECMWFNIL_850_spd_132.txt.gz
Wind_Speed
38 38 39 39 39 38 37 37 37 37 37 36 36 34 34 34 34 34 34 33 33 32 32 33 33 34 34 35 36 37 37 37 37 37 39 39 39 39 39 39 39 38
38 38 39 40 40 39 39 38 38 38 37 35 34 33 33 34 35 35 34 33 32 31 31 31 31 31 32 32 32 33 33 34 34 34 36 37 36 37 38 38 38 37
37 38 39 40 40 40 39 38 38 38 37 36 35 34 34 35 35 35 34 33 32 32 31 31 31 30 31 31 31 32 32 32 32 32 34 35 35 36 36 36 35 35
35 37 38 38 39 39 39 39 39 39 38 37 35 34 35 35 35 35 34 34 33 32 32 31 31 30 30 30 30 31 31 31 31 31 32 33 33 34 34 33 34 34
33 34 36 36 37 38 38 39 39 39 39 37 35 35 35 35 35 35 34 34 34 33 32 31 31 30 30 30 30 31 31 30 30 29 31 32 31 32 31 31 33 33
32 33 34 35 35 36 37 38 38 38 39 37 36 36 35 35 35 34 34 34 33 32 32 31 31 30 29 29 30 30 30 29 28 27 28 30 30 30 31 31 33 33
32 32 33 34 35 35 36 37 37 38 38 36 36 35 35 35 34 34 33 33 32 32 31 30 30 29 28 28 28 28 28 27 26 26 27 28 28 29 29 29 30 33
31 32 33 33 34 35 36 36 36 36 36 35 35 34 34 35 34 33 33 32 32 31 30 29 28 27 26 26 26 26 26 26 25 26 27 28 29 29 28 27 27 28
31 31 32 33 34 35 35 35 35 35 34 34 34 34 34 34 33 33 32 32 31 30 29 28 27 27 26 25 25 25 25 26 26 26 28 30 30 31 32 32 33 34
31 31 32 33 33 34 34 34 34 33 33 34 34 33 34 33 32 32 31 31 30 29 28 28 27 27 26 25 25 26 26 26 26 27 28 29 28 28 28 29 31 33
30 31 32 33 32 32 32 32 32 33 33 33 33 33 33 32 32 32 31 31 31 30 29 29 28 26 26 26 26 25 25 26 27 27 29 28 26 24 24 25 26 27
31 31 31 32 32 32 32 32 32 32 33 33 33 33 32 32 32 32 32 32 31 30 30 29 28 26 26 25 25 25 25 27 27 28 27 26 24 24 25 27 28 28
33 32 31 31 31 32 32 33 33 33 33 33 33 33 33 32 33 33 32 32 32 31 30 29 28 26 25 25 25 25 25 26 26 25 25 24 23 24 24 26 30 32
33 32 32 32 32 32 32 32 33 34 34 34 34 34 33 33 33 33 33 32 31 30 30 28 27 27 26 25 24 23 24 25 24 23 23 23 22 21 21 22 24 26
31 32 32 33 32 32 32 32 32 33 34 34 34 34 34 33 34 33 33 32 31 30 29 28 27 26 25 23 23 22 22 22 21 20 20 20 20 21 22 21 19 18
29 30 31 31 32 32 32 31 31 31 32 32 33 33 33 33 33 33 32 31 30 29 29 29 28 26 24 24 23 21 19 18 18 20 21 21 22 22 23 23 23 23
27 28 29 29 30 31 31 31 30 29 29 30 30 31 32 32 32 32 31 30 29 29 29 28 28 26 26 26 24 22 21 21 21 21 21 22 22 21 22 22 22 24
26 26 27 27 28 29 29 28 28 27 28 28 29 30 30 30 30 29 28 28 28 28 28 27 27 26 26 25 23 22 24 26 26 24 23 23 23 22 21 20 19 22
26 25 25 25 26 26 26 25 25 26 26 27 27 27 27 27 26 26 26 26 27 27 26 25 25 24 23 23 22 22 23 24 26 27 25 23 23 23 21 20 19 21
27 24 23 23 23 23 24 24 24 24 24 24 24 24 25 25 25 25 26 26 26 25 24 24 23 22 22 23 23 23 24 25 26 27 26 25 25 24 23 22 22 21
27 26 23 22 22 22 23 23 23 23 23 24 24 24 25 25 25 25 26 26 25 25 24 24 23 23 23 23 24 25 26 27 27 27 27 26 26 26 25 24 23 23
27 27 25 23 22 22 22 23 24 24 24 24 25 25 25 26 26 26 26 26 25 25 25 25 24 23 23 23 24 25 27 29 30 29 28 28 27 27 27 25 25 25
28 28 28 26 25 24 24 24 25 26 27 26 26 26 26 27 27 27 26 26 26 26 26 25 24 23 23 22 23 24 26 29 30 29 29 29 28 28 27 26 25 25
32 32 31 30 29 28 27 28 29 29 29 29 29 29 28 28 28 28 27 27 27 26 25 24 24 23 23 23 23 23 24 27 28 27 28 29 29 28 27 26 25 25
37 36 35 33 33 33 32 32 34 34 32 32 32 31 30 30 29 29 29 28 27 26 25 24 24 24 24 24 24 23 23 25 26 26 27 28 28 28 27 27 27 26
43 41 39 38 38 36 34 35 37 37 36 34 34 34 33 32 31 31 30 29 27 26 26 26 26 26 25 25 24 23 22 23 25 26 26 25 25 26 28 28 27 26

ECMWFNIL_850_spd_135.txt.gz
Wind_Speed
36 35 35 34 35 35 35 36 36 36 36 35 34 32 31 30 30 31 31 30 30 29 28 28 29 28 29 30 30 31 32 33 34 36 37 37 37 37 37 37 37 37
34 34 34 35 35 36 36 36 36 36 36 35 34 33 32 32 32 32 31 30 30 29 27 27 27 27 27 27 28 28 28 29 31 31 32 32 33 34 34 34 34 34
33 33 34 35 36 36 36 36 36 37 37 36 35 35 34 33 33 33 32 31 31 29 28 28 27 27 27 27 27 27 27 28 28 28 29 30 30 31 32 32 32 33
30 31 33 34 34 35 35 36 36 37 37 37 36 35 34 34 34 34 33 33 32 30 29 28 27 27 27 27 27 27 27 27 27 27 28 29 30 31 31 31 32 32
28 29 30 31 32 33 34 35 35 35 36 36 35 35 35 34 35 34 34 33 32 31 29 28 28 27 27 27 27 28 27 27 27 27 29 30 30 31 30 30 30 30
26 27 28 29 31 32 33 34 34 34 35 35 35 35 35 34 34 34 34 34 32 31 30 29 28 27 27 27 27 28 28 28 28 28 29 31 31 31 30 29 28 27
24 26 27 29 30 32 33 33 33 34 34 34 35 35 34 34 34 34 34 33 33 32 30 29 29 28 27 27 27 28 28 28 29 29 30 31 30 29 28 27 26 25
24 26 27 29 30 31 33 33 34 34 34 34 35 34 34 34 34 34 34 33 33 32 30 30 29 28 27 27 28 28 28 28 29 30 30 30 28 28 26 25 24 24
23 24 25 27 29 31 32 33 34 33 33 34 34 34 34 34 34 33 33 33 33 32 31 30 29 28 27 27 28 28 28 29 29 30 29 28 28 27 25 24 23 25
23 24 25 27 28 30 31 32 32 32 32 33 33 33 34 34 34 33 33 33 33 32 31 30 29 28 28 28 29 29 29 29 29 29 28 28 28 27 25 24 26 27
22 24 26 28 29 30 30 29 30 31 31 32 32 32 33 33 33 33 33 33 33 32 31 30 29 29 29 30 30 30 30 30 29 29 28 28 28 27 26 26 28 29
22 24 27 29 29 30 30 29 29 30 31 32 32 32 32 32 33 33 33 33 33 31 31 30 30 29 30 31 31 30 30 30 29 29 29 29 28 27 26 26 28 28
24 27 29 30 30 30 30 30 30 31 32 33 32 32 32 32 33 33 33 33 32 32 31 31 31 31 31 32 31 31 30 30 30 29 29 30 29 29 28 28 29 29
27 28 30 31 32 31 31 32 32 33 33 33 33 33 33 33 33 33 34 33 33 33 32 32 32 32 33 32 32 32 31 30 29 29 30 31 30 30 30 30 30 29
29 29 30 32 34 34 32 32 33 33 33 33 33 33 33 33 34 34 34 35 34 34 34 33 34 34 34 33 32 32 31 29 29 30 31 31 31 30 30 30 29 29
30 30 30 31 34 36 33 32 32 32 32 33 33 33 33 33 34 35 36 36 36 35 35 35 35 35 34 33 32 31 31 31 32 32 32 32 32 32 30 30 30 31
32 33 31 31 34 36 34 32 31 31 31 31 31 32 33 33 34 35 36 37 37 36 36 35 35 35 34 33 33 33 32 31 30 31 32 32 32 31 31 31 31 32
34 34 32 31 34 36 35 31 30 30 30 30 30 30 31 32 32 33 33 34 35 35 35 35 34 34 33 34 34 33 32 29 28 30 31 29 29 30 31 31 30 29
35 35 33 31 33 37 35 30 28 28 28 27 27 27 28 29 30 30 30 31 32 33 34 33 33 33 33 34 33 32 31 30 32 33 31 28 29 30 30 30 30 28
33 33 32 31 33 36 36 30 27 26 25 24 24 24 25 26 27 28 28 29 30 31 32 32 32 31 32 32 31 30 30 31 34 35 34 32 31 31 31 31 31 28
30 31 32 31 32 36 36 32 27 24 23 23 23 23 23 24 24 25 26 27 28 29 30 30 30 29 30 30 30 31 32 33 34 33 33 33 32 32 33 33 30 28
29 31 32 31 32 36 37 33 29 25 22 22 22 22 23 23 24 24 25 26 26 27 28 29 28 28 28 28 28 29 31 32 32 31 31 32 31 31 32 32 31 29
28 30 31 31 32 36 37 34 31 27 24 23 24 24 23 24 24 25 26 26 27 28 28 28 28 27 27 27 27 27 28 29 30 31 32 32 32 31 31 32 32 30
28 30 31 32 33 35 37 35 33 31 29 27 27 27 26 26 26 27 27 28 28 29 29 29 29 28 28 27 27 28 29 30 32 34 35 34 33 32 33 34 33 30
30 30 32 33 33 35 37 38 37 35 34 32 32 31 29 29 29 30 30 30 30 30 30 30 30 29 28 28 28 29 30 31 33 35 36 36 35 34 34 34 33 32
31 31 32 32 33 35 37 41 42 40 39 37 36 35 34 32 32 33 32 32 32 32 32 32 32 31 30 29 30 31 31 31 32 33 34 35 36 36 35 34 34 33

ECMWFNIL_850_spd_138.txt.gz
Wind_Speed
34 36 37 38 38 38 38 38 37 36 36 35 35 35 35 34 33 33 33 32 33 33 32 31 31 31 31 32 33 34 35 36 37 38 39 40 41 42 43 43 44 44
32 34 35 36 36 36 36 36 36 36 36 35 35 35 34 34 33 33 33 33 34 33 32 31 30 30 29 30 31 32 33 34 35 36 37 38 38 39 40 41 41 42
30 32 33 33 33 34 35 35 36 36 36 36 35 35 34 34 33 33 33 33 34 34 32 31 31 30 30 30 30 31 32 32 33 34 35 35 36 37 37 38 39 39
26 29 31 32 32 33 33 34 35 35 36 36 36 35 34 34 33 33 34 34 34 34 33 32 32 31 31 31 31 31 32 32 33 33 34 35 35 36 36 36 37 37
22 25 29 30 30 31 31 32 33 33 35 35 34 34 34 33 33 34 35 35 34 34 33 33 33 32 32 32 32 32 32 33 33 33 34 36 36 36 37 37 37 37
22 23 26 28 29 29 29 30 30 31 32 32 32 33 33 34 34 35 35 35 35 34 34 34 34 33 33 33 33 33 34 34 34 34 35 36 36 37 37 37 37 37
23 22 22 24 26 27 28 29 29 30 30 31 32 33 34 34 35 35 35 34 34 34 34 34 34 33 33 34 34 34 34 34 34 34 36 37 37 38 38 38 38 38
19 19 19 21 22 24 25 26 27 29 29 31 32 33 33 34 34 34 34 34 34 34 34 35 35 34 33 34 35 35 34 34 35 35 37 38 38 39 40 40 39 38
16 16 17 18 19 21 22 23 24 26 27 29 30 30 32 32 32 32 33 34 34 35 35 35 35 35 35 35 36 35 35 35 36 36 38 39 39 40 40 40 38 38
14 14 15 16 17 18 20 21 22 24 25 27 27 28 29 30 30 31 33 34 35 35 36 36 36 36 36 35 36 36 36 36 36 37 38 39 39 39 39 38 36 35
11 11 12 14 16 18 20 21 23 25 26 27 28 28 29 30 30 31 32 34 34 35 36 36 37 37 37 36 36 37 36 36 36 37 38 38 38 39 38 36 35 34
8 9 11 14 17 19 21 22 24 25 26 27 28 30 31 32 32 32 33 34 34 34 35 35 36 37 37 36 36 36 36 36 37 38 38 38 38 38 36 34 33 33
10 10 13 15 18 21 23 25 26 27 27 27 28 30 32 33 34 35 35 34 34 34 34 35 36 36 36 36 36 36 36 37 38 38 38 38 38 37 35 34 34 32
14 14 15 16 19 23 26 26 27 28 28 27 28 30 31 33 35 36 36 36 35 35 35 35 36 36 36 37 37 37 37 38 39 39 38 38 38 35 35 36 35 34
19 18 18 18 22 26 28 29 28 28 28 27 27 28 31 32 34 35 37 38 37 36 36 37 37 38 38 38 38 38 38 39 39 38 38 38 37 36 36 37 35 35
22 21 20 21 26 30 31 31 30 29 29 28 27 28 30 32 33 35 36 37 38 38 38 38 39 40 39 38 38 38 38 38 38 38 38 38 37 37 38 38 36 35
25 25 26 28 31 33 33 32 32 31 30 30 28 28 30 32 33 34 35 36 37 39 39 40 40 40 40 39 39 38 38 38 38 38 37 37 38 39 38 37 36 36
26 27 28 30 30 31 31 32 32 32 31 31 30 29 30 32 33 32 32 34 36 38 39 40 40 39 39 39 39 38 37 37 37 37 37 37 38 38 37 36 37 37
23 23 24 25 25 27 29 31 32 33 32 31 30 30 30 32 32 31 30 31 32 35 37 38 38 38 37 37 38 37 36 36 36 36 37 37 36 37 38 38 39 38
20 21 22 22 22 24 27 30 31 32 31 31 31 30 30 31 31 30 28 27 28 30 32 33 34 33 34 34 35 35 35 35 35 36 37 38 39 40 39 37 36 37
18 19 21 21 22 24 27 29 30 30 30 31 31 31 30 30 31 30 28 26 25 26 28 29 29 29 31 32 33 34 34 35 35 37 39 40 41 40 37 34 35 37
18 20 20 21 22 24 27 28 29 30 30 30 31 32 31 31 31 30 29 27 26 26 26 26 25 26 28 30 30 32 33 35 36 37 39 40 39 39 37 36 37 38
19 21 22 22 23 25 27 29 30 30 31 31 32 33 32 31 32 32 31 30 28 27 27 26 24 25 26 27 28 30 32 34 35 35 37 37 37 36 37 37 38 39
20 22 23 24 24 25 26 29 31 32 32 32 33 34 34 33 33 34 34 33 31 29 29 28 26 25 26 28 28 29 30 32 32 33 35 37 37 37 38 39 40 41
20 22 24 25 25 25 25 27 30 33 34 34 35 36 37 36 35 36 36 35 34 33 32 31 29 27 28 29 29 29 29 30 31 33 36 37 39 41 41 42 42 41
21 22 24 25 26 26 26 26 29 32 35 37 38 39 40 39 39 39 39 39 38 37 36 35 33 30 29 30 31 31 31 31 32 34 35 35 37 40 41 41 40 38